[[{"header":{"parameterUnit":"m.s-1","parameterCategory":1,"la1":30.6,"la2":29.2853,"lo1":-89.7004,"lo2":-87.6739,"dy":0.0162,"dx":0.0183,"nx":112,"ny":82,"refTime":"2023-03-16T00:00:00:Z","depth":0,"parameterNumber":2,"parameterNumberName":"U-component_of_WINDS"},"data":[0.0,0.0,0.0,0.0,0.0,0.0,0.0,0.0,0.0,0.0,0.0,0.0,0.0,0.0,0.0,0.0,0.0,0.0,0.0,0.0,0.0,0.0,0.0,0.0,0.0,0.0,0.0,0.0,0.0,0.0,0.0,0.0,0.0,0.0,0.0,0.0,0.0,0.0,0.0,0.0,0.0,0.0,0.0,0.0,0.0,0.0,0.0,0.0,0.0,0.0,0.0,0.0,0.0,0.0,0.0,0.0,0.0,0.0,0.0,0.0,0.0,0.0,0.0,0.0,0.0,0.0,0.0,0.0,0.0,0.0,0.0,0.0,0.0,0.0,0.0,0.0,0.0,0.0,0.0,0.0,0.0,0.0,0.0,0.0,0.0,0.0,0.0,0.0,0.0,0.0,-0.3911,-0.3659,-0.2622,-0.1636,-0.0919,-0.121,-0.2401,-0.4675,0.0,0.0,0.0,0.0,0.0,0.0,0.0,0.0,0.0,0.0,0.0,0.0,0.0,0.0,0.0,0.0,0.0,0.0,0.0,0.0,0.0,0.0,0.0,0.0,0.0,0.0,0.0,0.0,0.0,0.0,0.0,0.0,0.0,0.0,0.0,0.0,0.0,0.0,0.0,0.0,0.0,0.0,0.0,0.0,0.0,0.0,0.0,0.0,0.0,0.0,0.0,0.0,0.0,0.0,0.0,0.0,0.0,0.0,0.0,0.0,0.0,0.0,0.0,0.0,0.0,0.0,0.0,0.0,0.0,0.0,0.0,0.0,0.0,0.0,0.0,0.0,0.0,0.0,0.0,0.0,0.0,0.0,0.0,0.0,0.0,0.0,0.0,0.0,0.0,0.0,0.0,0.0,0.0,0.0,0.0,0.0,0.0,0.0,0.0,0.0,0.0,0.0,0.0,0.0,-0.2177,-0.2343,-0.1644,-0.0916,-0.0284,-0.1364,-0.2208,-0.2559,0.0,0.0,0.0,0.0,0.0,0.0,0.0,0.0,0.0,0.0,0.0,0.0,0.0,0.0,0.0,0.0,0.0,0.0,0.0,0.0,0.0,0.0,0.0,0.0,0.0,0.0,0.0,0.0,0.0,0.0,0.0,0.0,0.0,0.0,0.0,0.0,0.0,0.0,0.0,0.0,0.0,0.0,0.0,0.0,0.0,0.0,0.0,0.0,0.0,0.0,0.0,0.0,0.0,0.0,0.0,0.0,0.0,0.0,0.0,0.0,0.0,0.0,0.0,0.0,0.0,0.0,0.0,0.0,0.0,0.0,0.0,0.0,0.0,0.0,0.0,0.0,0.0,0.0,0.0,0.0,0.0,0.0,0.0,0.0,0.0,0.0,0.0,0.0,0.0,0.0,0.0,0.0,0.0,0.0,0.0,0.0,0.0,0.0,0.0,0.0,0.0,0.0,0.0,-0.1013,-0.0922,-0.1238,-0.0756,-0.0196,0.0354,-0.0697,-0.1735,-0.2534,-0.3428,0.0,0.0,0.0,0.0,0.0,0.0,0.0,0.0,0.0,0.0,0.0,0.0,0.0,0.0,0.0,0.0,0.0,0.0,0.0,0.0,0.0,0.0,0.0,0.0,0.0,0.0,0.0,0.0,0.0,0.0,0.0,0.0,0.0,0.0,0.0,0.0,0.0,0.0,0.0,0.0,0.0,0.0,0.0,0.0,0.0,0.0,0.0,0.0,0.0,0.0,0.0,0.0,0.0,0.0,0.0,0.0,0.0,0.0,0.0,0.0,0.0,0.0,0.0,0.0,0.0,0.0,0.0,0.0,0.0,0.0,0.0,0.0,0.0,0.0,0.0,0.0,0.0,0.0,0.0,0.0,0.0,0.0,0.0,0.0,0.0,0.0,0.0,0.0,0.0,0.0,0.0,0.0,0.0,0.0,0.0,0.0,0.0,0.0,0.0,0.0,0.0,0.0,-0.0481,-0.0303,-0.051,-0.0085,0.0369,0.0744,-0.0076,-0.1217,-0.2675,-0.3261,0.0,0.0,0.0,0.0,0.0,0.0,0.0,0.0,0.0,0.0,0.0,0.0,0.0,0.0,0.0,0.0,0.0,0.0,0.0,0.0,0.0,0.0,0.0,0.0,0.0,0.0,0.0,0.0,0.0,0.0,0.0,0.0,0.0,0.0,0.0,0.0,0.0,0.0,0.0,0.0,0.0,0.0,0.0,0.0,0.0,0.0,0.0,0.0,0.0,0.0,0.0,0.0,0.0,0.0,0.0,0.0,0.0,0.0,0.0,0.0,0.0,0.0,0.0,0.0,0.0,0.0,0.0,0.0,0.0,0.0,0.0,0.0,0.0,0.0,0.0,0.0,0.0,0.0,0.0,0.0,0.0,0.0,0.0,0.0,0.0,0.0,0.0,0.0,0.0,0.0,0.0,0.0,0.0,0.0,0.0,0.0,0.0,0.0,0.0,0.0,0.0,0.0,-0.0265,-0.0692,-0.0368,0.0211,0.0596,0.0692,0.0071,-0.0829,-0.1999,-0.2983,0.0,0.0,0.0,0.0,0.0,0.0,0.0,0.0,0.0,0.0,0.0,0.0,0.0,0.0,0.0,0.0,0.0,0.0,0.0,0.0,0.0,0.0,0.0,0.0,0.0,0.0,0.0,0.0,0.0,0.0,0.0,0.0,0.0,0.0,0.0,0.0,0.0,0.0,0.0,0.0,0.0,0.0,0.0,0.0,0.0,0.0,0.0,0.0,0.0,0.0,0.0,0.0,0.0,0.0,0.0,0.0,0.0,0.0,0.0,0.0,0.0,0.0,0.0,0.0,0.0,0.0,0.0,0.0,0.0,0.0,0.0,0.0,0.0,0.0,0.0,0.0,0.0,0.0,0.0,0.0,0.0,0.0,0.0,0.0,0.0,0.0,0.0,0.0,0.0,0.0,0.0,0.0,0.0,0.0,0.0,0.0,0.0,0.0,0.0,0.0,0.0,0.0,0.0358,-0.0,-0.0053,0.0179,0.0432,0.0625,-0.0163,-0.1064,-0.1996,0.0,0.0,0.0,0.0,0.0,0.0,0.0,0.0,0.0,0.0,0.0,0.0,0.0,0.0,0.0,0.0,0.0,0.0,0.0,0.0,0.0,0.0,0.0,0.0,0.0,0.0,0.0,0.0,0.0,0.0,0.0,0.0,0.0,0.0,0.0,0.0,0.0,0.0,0.0,0.0,0.0,0.0,0.0,0.0,0.0,0.0,0.0,0.0,0.0,0.0,0.0,0.0,0.0,0.0,0.0,0.0,0.0,0.0,0.0,0.0,0.0,0.0,0.0,0.0,0.0,0.0,0.0,0.0,0.0,0.0,0.0,0.0,0.0,0.0,0.0,0.0,0.0,0.0,0.0,0.0,0.0,0.0,0.0,0.0,0.0,0.0,0.0,0.0,0.0,0.0,0.0,0.0,0.0,0.0,0.0,0.0,0.0,0.0,0.0,0.0,0.0,0.0,0.1188,0.0546,0.0132,-0.0,0.0072,0.0203,0.0393,-0.0415,-0.1224,-0.1896,0.0,0.0,0.0,0.0,0.0,0.0,0.0,0.0,0.0,0.0,0.0,0.0,0.0,0.0,0.0,0.0,0.0,0.0,0.0,0.0,0.0,0.0,0.0,0.0,0.0,0.0,0.0,0.0,0.0,0.0,0.0,0.0,0.0,0.0,0.0,0.0,0.0,0.0,0.0,0.0,0.0,0.0,0.0,0.0,0.0,0.0,0.0,0.0,0.0,0.0,0.0,0.0,0.0,0.0,0.0,0.0,0.0,0.0,0.0,0.0,0.0,0.0,0.0,0.0,0.0,0.0,0.0,0.0,0.0,0.0,0.0,0.0,0.0,0.0,0.0,0.0,0.0,0.0,0.0,0.0,0.0,0.0,0.0,0.0,0.0,0.0,0.0,0.0,0.0,0.0,0.0,0.0,0.0,0.0,0.0,0.0,0.0,0.0,0.0,0.0,0.0,0.0,0.1444,0.0175,-0.0607,-0.0351,-0.0131,-0.0019,-0.0034,-0.0633,-0.119,0.0,0.0,0.0,0.0,0.0,0.0,0.0,0.0,0.0,0.0,0.0,0.0,0.0,0.0,0.0,0.0,0.0,0.0,0.0,0.0,0.0,0.0,0.0,0.0,0.0,0.0,0.0,0.0,0.0,0.0,0.0,0.0,0.0,0.0,0.0,0.0,0.0,0.0,0.0,0.0,0.0,0.0,0.0,0.0,0.0,0.0,0.0,0.0,0.0,0.0,0.0,0.0,0.0,0.0,0.0,0.0,0.0,0.0,0.0,0.0,0.0,0.0,0.0,0.0,0.0,0.0,0.0,0.0,0.0,0.0,0.0,0.0,0.0,0.0,0.0,0.0,0.0,0.0,0.0,0.0,0.0,0.0,0.0,0.0,0.0,0.0,0.0,0.0,0.0,0.0,0.0,0.0,0.0,0.0,0.0,0.0,0.0,0.0,0.0,0.0,0.0,0.0,0.0,0.0954,-0.0242,-0.1061,-0.1064,-0.1058,-0.1227,-0.1648,-0.1776,-0.2033,-0.2495,0.0,0.0,0.0,0.0,0.0,0.0,0.0,0.0,0.0,0.0,0.0,0.0,0.0,0.0,0.0,0.0,0.0,0.0,0.0,0.0,0.0,0.0,0.0,0.0,0.0,0.0,0.0,0.0,0.0,0.0,0.0,0.0,0.0,0.0,0.0,0.0,0.0,0.0,0.0,0.0,0.0,0.0,0.0,0.0,0.0,0.0,0.0,0.0,0.0,0.0,0.0,0.0,0.0,0.0,0.0,0.0,0.0,0.0,0.0,0.0,0.0,0.0,0.0,0.0,0.0,0.0,0.0,0.0,0.0,0.0,0.0,0.0,0.0,0.0,0.0,0.0,0.0,0.0,0.0,0.0,0.0,0.0,0.0,0.0,0.0,0.0,0.0,0.0,0.0,0.0,0.0,0.0,0.0,0.0,0.0,0.0,0.0,0.0,0.0,0.0,0.0,0.0,0.0629,-0.0461,-0.1237,-0.1343,-0.1607,-0.192,-0.2298,-0.234,-0.2405,-0.2534,0.0,0.0,0.0,0.0,0.0,0.0,0.0,0.0,0.0,0.0,0.0,0.0,0.0,0.0,0.0,0.0,0.0,0.0,0.0,0.0,0.0,0.0,0.0,0.0,0.0,0.0,0.0,0.0,0.0,0.0,0.0,0.0,0.0,0.0,0.0,0.0,0.0,0.0,0.0,0.0,0.0,0.0,0.0,0.0,0.0,0.0,0.0,0.0,0.0,0.0,0.0,0.0,0.0,0.0,0.0,0.0,0.0,0.0,0.0,0.0,0.0,0.0,0.0,0.0,0.0,0.0,0.0,0.0,0.0,0.0,0.0,0.0,0.0,0.0,0.0,0.0,0.0,0.0,0.0,0.0,0.0,0.0,0.0,0.0,0.0,0.0,0.0,0.0,0.0,0.0,0.0,0.0,0.0,0.0,0.0,0.0,0.0,0.0,0.0,0.0,0.0,0.0,0.0402,-0.0611,-0.1303,-0.1426,-0.1933,-0.2298,-0.2305,-0.252,-0.2495,-0.2109,0.0,0.0,0.0,0.0,0.0,0.0,0.0,0.0,0.0,0.0,0.0,0.0,0.0,0.0,0.0,0.0,0.0,0.0,0.0,0.0,0.0,0.0,0.0,0.0,0.0,0.0,0.0,0.0,0.0,0.0,0.0,0.0,0.0,0.0,0.0,0.0,0.0,0.0,0.0,0.0,0.0,0.0,0.0,0.0,0.0,0.0,0.0,0.0,0.0,0.0,0.0,0.0,0.0,0.0,0.0,0.0,0.0,0.0,0.0,0.0,-0.4326,-0.3613,0.0,0.0,0.0,0.0,0.0,0.0,0.0,0.0,0.0,0.0,0.0,0.0,0.0,0.0,0.0,0.0,0.0,0.0,0.0,0.0,0.0,0.0,0.0,0.0,0.0,0.0,0.0,0.0,0.0,0.0,0.0,0.0,0.0,0.0,0.0,0.0,0.0,0.0,0.0,0.0,-0.0258,-0.1098,-0.1859,-0.234,-0.2709,-0.2942,-0.3049,-0.3154,-0.3084,-0.273,-0.1177,0.0,0.0,0.0,0.0,0.0,0.0,0.0,0.0,0.0,0.0,0.0,0.0,0.0,0.0,0.0,0.0,0.0,0.0,0.0,0.0,0.0,0.0,0.0,0.0,0.0,0.0,0.0,0.0,0.0,0.0,0.0,0.0,0.0,0.0,0.0,0.0,0.0,0.0,0.0,0.0,0.0,0.0,0.0,0.0,0.0,0.0,0.0,0.0,0.0,0.0,0.0,0.0,0.0,0.0,0.0,0.0,0.0,0.0,0.0,-0.4494,-0.4058,0.0,0.0,0.0,0.0,0.0,0.0,0.0,0.0,0.0,0.0,0.0,0.0,0.0,0.0,0.0,0.0,0.0,0.0,0.0,0.0,0.0,0.0,0.0,0.0,0.0,0.0,0.0,0.0,0.0,0.0,0.0,0.0,0.0,0.0,0.0,0.0,0.0,0.0,0.0,0.0,-0.0973,-0.1561,-0.2124,-0.2605,-0.3269,-0.3597,-0.3417,-0.3824,-0.3854,-0.3304,-0.1696,0.0,0.0,0.0,0.0,0.0,0.0,0.0,0.0,0.0,0.0,0.0,0.0,0.0,0.0,0.0,0.0,0.0,0.0,0.0,0.0,0.0,0.0,0.0,0.0,0.0,0.0,0.0,0.0,0.0,0.0,0.0,0.0,0.0,0.0,0.0,0.0,0.0,0.0,0.0,0.0,0.0,0.0,0.0,0.0,0.0,0.0,0.0,0.0,0.0,0.0,0.0,0.0,0.0,-0.5303,-0.5084,-0.5824,-0.4965,-0.4372,-0.4022,-0.4332,-0.4434,-0.4297,-0.3671,0.0,0.0,0.0,0.0,0.0,0.0,0.0,0.0,0.0,0.0,0.0,0.0,0.0,0.0,0.0,0.0,0.0,0.0,0.0,0.0,0.0,0.0,0.0,0.0,-0.1463,-0.1146,0.0067,0.0,0.0,0.0,0.0,0.0,0.0,0.0,0.0,0.0,0.0,0.0,-0.1837,-0.2189,-0.2574,-0.3012,-0.3847,-0.4182,-0.3761,-0.4348,-0.4466,-0.3788,-0.2598,-0.1932,0.0,0.0,0.0,0.0,0.0,0.0,0.0,0.0,0.0,0.0,0.0,0.0,0.0,0.0,0.0,0.0,0.0,0.0,0.0,0.0,0.0,0.0,0.0,0.0,0.0,0.0,0.0,0.0,0.0,0.0,0.0,0.0,-1.124,-1.2436,0.0,0.0,0.0,0.0,0.0,0.0,0.0,0.0,0.0,0.0,0.0,0.0,0.0,-0.8018,-0.6957,-0.7462,-0.7135,-0.6026,-0.6904,-0.6144,-0.4072,-0.4962,-0.4733,-0.3685,-0.3837,0.0,-0.3672,-0.3258,0.0,0.0,0.0,0.0,0.0,0.0,0.0,0.0,0.0,0.0,0.0,0.0,0.0,0.0,0.0,0.0,0.0,0.0,0.0,0.0,0.0,0.0,-0.2086,-0.2085,-0.2353,-0.2692,0.0,-0.1997,-0.1496,-0.3264,-0.1564,0.0,0.0,0.0,0.0,0.0,0.0,0.0,-0.3082,-0.3397,-0.3938,-0.4847,-0.4776,-0.4629,-0.4543,-0.4593,-0.4405,-0.3899,-0.3204,-0.3195,-0.3972,-0.2777,0.0,0.0,0.0,0.0,0.0,0.0,0.0,0.0,0.0,0.0,0.0,0.0,0.0,0.0,0.0,0.0,0.0,0.0,0.0,0.0,0.0,0.0,0.0,0.0,0.0,0.0,0.0,0.0,0.0,-1.2235,-1.4251,-1.4243,-1.4008,-1.3435,0.0,0.0,0.0,0.0,0.0,0.0,0.0,0.0,0.0,-1.1719,-1.0802,-0.9665,-0.8315,-0.8309,-0.7911,-0.7185,-0.7071,-0.6476,-0.5471,-0.4966,-0.4378,-0.3776,-0.4114,-0.4007,-0.3608,-0.3743,-0.4039,-0.441,0.0,0.0,0.0,0.0,-0.4599,-0.4648,-0.4893,-0.4647,-0.4186,-0.3936,0.0,0.0,0.0,0.0,0.0,0.0,0.0,0.0,0.0,0.0,-0.2369,-0.2418,-0.2821,-0.3532,-0.4717,-0.3901,-0.3207,0.0,-0.3874,-0.3305,-0.2707,0.0,0.0,0.0,0.0,-0.3792,-0.4189,-0.4468,-0.4672,-0.473,-0.4819,-0.4752,-0.4505,-0.5136,-0.5189,-0.4353,-0.4079,-0.4134,-0.4502,-0.3675,-0.3492,0.0,0.0,0.0,0.0,0.0,0.0,0.0,0.0,0.0,0.0,0.0,0.0,0.0,0.0,0.0,0.0,0.0,0.0,0.0,0.0,0.0,0.0,0.0,0.0,0.0,0.0,0.0,0.0,-1.5077,-1.6562,-1.5991,-1.6101,-1.5658,0.0,0.0,0.0,0.0,0.0,0.0,-1.5855,-1.5064,-1.4198,-1.3329,-1.2269,-1.1028,-0.9661,-0.9001,-0.844,-0.8032,-0.6947,-0.6458,-0.6465,-0.5079,-0.4248,-0.3923,-0.4017,-0.3785,-0.3382,-0.4008,-0.4489,-0.4835,-0.4792,-0.5517,-0.6484,-0.5837,-0.5708,-0.5816,-0.5676,-0.5199,-0.456,-0.4069,-0.3773,-0.3613,-0.3547,0.0,0.0,0.0,0.0,-0.2775,-0.2241,-0.2279,-0.2528,-0.2707,-0.3168,-0.4008,-0.5556,-0.5285,-0.4858,0.0,-0.5762,-0.5707,-0.441,0.0,0.0,-0.4792,-0.4949,-0.4926,-0.4701,-0.5015,-0.4977,-0.4229,-0.4663,-0.4903,-0.4596,-0.5449,-0.5636,-0.4781,-0.5012,-0.5051,-0.4776,-0.4736,-0.472,-0.4703,0.0,0.0,0.0,0.0,0.0,0.0,0.0,0.0,0.0,0.0,0.0,0.0,0.0,0.0,0.0,0.0,0.0,0.0,0.0,0.0,0.0,0.0,0.0,0.0,0.0,0.0,0.0,0.0,0.0,-1.837,-1.8179,0.0,0.0,0.0,0.0,-1.5771,-1.6858,-1.7241,-1.6592,-1.5966,-1.5346,-1.4732,-1.3288,-1.1936,-1.063,-0.9395,-0.8392,-0.7629,-0.6857,-0.6146,-0.5454,-0.5382,-0.4849,-0.3936,-0.2957,-0.2558,-0.2704,-0.3512,-0.4032,-0.4306,-0.4049,-0.5216,-0.6857,-0.5131,-0.5448,-0.6601,-0.558,-0.5401,-0.5566,-0.5163,-0.4542,-0.3891,-0.3437,-0.3294,0.0,0.0,-0.2576,-0.2585,-0.2428,-0.2537,-0.2767,-0.3108,-0.3474,-0.4167,-0.5608,-0.5455,-0.5729,0.0,-0.6684,-0.5781,-0.7472,0.0,-0.629,-0.6941,-0.637,-0.5402,-0.4185,-0.4737,-0.4816,-0.3839,-0.4558,-0.513,-0.5245,-0.5246,-0.5192,-0.5087,-0.5928,-0.6045,-0.5216,-0.6324,-0.6594,-0.5827,-0.5819,0.0,0.0,0.0,0.0,0.0,0.0,0.0,0.0,0.0,0.0,0.0,0.0,0.0,0.0,0.0,0.0,0.0,0.0,0.0,0.0,0.0,0.0,0.0,0.0,0.0,0.0,0.0,0.0,-1.9683,-1.9839,0.0,-1.8149,-1.8472,-1.8387,-1.7652,-1.795,-1.7908,-1.7397,-1.6143,-1.5416,-1.5324,-1.3195,-1.1466,-1.0219,-0.9336,-0.8663,-0.8103,-0.7093,-0.6367,-0.584,-0.5233,-0.4493,-0.3733,-0.375,-0.3438,-0.2997,-0.402,-0.4096,-0.361,-0.3921,-0.4438,-0.518,-0.6338,-0.6798,-0.6725,-0.6197,-0.5657,-0.5083,-0.4414,-0.3984,-0.3699,-0.3498,-0.3444,-0.3422,-0.325,-0.2977,-0.2723,-0.2723,-0.2746,-0.281,-0.2982,-0.3408,-0.3963,-0.4546,-0.4826,-0.5421,-0.689,-0.7023,-0.7227,-0.8276,-0.8117,-0.7991,-0.8385,-0.6679,-0.5172,-0.4588,-0.4309,-0.3807,-0.291,-0.3396,-0.3885,-0.4122,-0.3984,-0.4188,-0.4856,-0.5267,-0.5556,-0.5721,-0.5708,-0.555,-0.5245,-0.5195,-0.5089,0.0,0.0,0.0,0.0,0.0,0.0,0.0,0.0,0.0,0.0,0.0,0.0,0.0,0.0,0.0,0.0,0.0,0.0,0.0,0.0,0.0,0.0,0.0,0.0,0.0,-1.9603,-2.0783,-2.0422,-2.0872,-2.0699,-1.9503,-1.9889,-1.9827,-1.8913,-1.8745,-1.8409,-1.7739,-1.5982,-1.5081,-1.517,-1.2821,-1.1082,-1.0056,-0.9192,-0.8525,-0.799,-0.6964,-0.6209,-0.5703,-0.4909,-0.4155,-0.3516,-0.3757,-0.3566,-0.3132,-0.3991,-0.4078,-0.3723,-0.4684,-0.5069,-0.5246,-0.6673,-0.7092,-0.6891,-0.645,-0.5689,-0.4787,-0.4042,-0.3642,-0.3436,-0.3302,-0.3293,-0.329,-0.3247,-0.2928,-0.2594,-0.2541,-0.2476,-0.2433,-0.2445,-0.2928,-0.3445,-0.3722,-0.3965,-0.4508,-0.5813,-0.6993,-0.8033,-0.872,-0.9049,-0.9101,-0.867,-0.6637,-0.4563,-0.296,-0.2898,-0.2395,-0.0796,-0.1975,-0.2937,-0.3071,-0.301,-0.3235,-0.4004,-0.4488,-0.4821,-0.498,-0.5305,-0.5337,-0.5077,-0.514,-0.4938,-0.4385,0.0,0.0,0.0,0.0,0.0,0.0,0.0,0.0,0.0,0.0,0.0,0.0,0.0,0.0,0.0,0.0,0.0,0.0,0.0,0.0,0.0,0.0,0.0,-1.9539,-2.0382,-2.0864,-2.0653,-2.1199,-2.0948,-1.933,-2.0637,-2.0948,-1.9466,-1.9288,-1.8771,-1.753,-1.5604,-1.4396,-1.4237,-1.2196,-1.0867,-1.0348,-0.8977,-0.7928,-0.7184,-0.6369,-0.5646,-0.4984,-0.4433,-0.3849,-0.3269,-0.281,-0.2745,-0.2992,-0.3323,-0.3869,-0.4646,-0.6242,-0.7029,-0.7176,-0.5887,-0.6186,-0.7105,-0.617,-0.5417,-0.477,-0.4175,-0.3619,-0.3129,-0.2853,-0.2735,-0.2649,-0.2519,-0.2324,-0.2106,-0.1865,-0.1733,-0.1689,-0.1623,-0.2076,-0.2661,-0.3238,-0.2956,-0.3132,-0.4965,-0.6599,-0.7951,-0.884,-0.9557,-0.9442,-0.7734,-0.6147,0.0,0.0734,-0.0553,-0.07,0.2285,-0.0363,-0.2308,-0.225,-0.2286,-0.2399,-0.2575,-0.3689,-0.3928,-0.3075,-0.5255,-0.6133,-0.5378,-0.5734,-0.5351,-0.4199,0.0,0.0,0.0,0.0,0.0,0.0,0.0,0.0,0.0,0.0,0.0,0.0,0.0,0.0,0.0,0.0,0.0,0.0,0.0,0.0,0.0,-1.8536,-1.9505,-2.0418,-2.1121,-2.1545,-2.1498,-2.154,-2.1418,-2.0948,-2.1124,-2.0871,-1.9887,-1.9159,-1.8318,-1.7215,-1.555,-1.4099,-1.2981,-1.1834,-1.0496,-0.8955,-0.8497,-0.788,-0.7042,-0.6254,-0.5513,-0.4814,-0.4055,-0.3443,-0.2997,-0.2668,-0.2455,-0.2376,-0.2669,-0.3281,-0.4163,-0.5136,-0.5609,-0.5712,-0.5534,-0.5648,-0.5834,-0.523,-0.4632,-0.4014,-0.3398,-0.3012,-0.2713,-0.238,-0.2215,-0.2092,-0.1953,-0.1711,-0.1491,-0.1623,-0.1645,-0.1667,-0.185,-0.2237,-0.2531,-0.2414,-0.251,-0.2778,-0.3396,-0.4182,-0.5187,-0.6625,-0.7486,-0.7177,-0.4782,-0.3212,0.0,0.0594,0.0012,-0.0269,0.0579,-0.0432,-0.1121,-0.1003,-0.0654,-0.1001,-0.2296,-0.2473,-0.2952,-0.389,-0.4051,-0.4164,-0.4234,-0.446,-0.4387,0.0,0.0,0.0,0.0,0.0,0.0,0.0,0.0,0.0,0.0,0.0,0.0,0.0,0.0,0.0,0.0,0.0,0.0,0.0,0.0,0.0,0.0,-1.8729,-1.9754,-2.0481,-2.1097,-2.1458,-2.141,-2.1313,-2.1264,-2.1264,-2.1118,-2.0788,-2.0129,-1.9063,-1.8028,-1.7025,-1.5217,-1.3626,-1.2362,-1.1408,-1.0192,-0.8634,-0.8216,-0.7623,-0.6782,-0.5981,-0.5152,-0.4346,-0.364,-0.3036,-0.25,-0.2298,-0.2207,-0.2229,-0.2401,-0.2762,0.0,0.0,0.0,0.0,0.0,-0.502,-0.4844,-0.4452,-0.3933,-0.3356,-0.2725,-0.238,-0.2128,-0.1777,-0.1645,-0.1585,-0.1402,-0.1247,-0.1141,-0.1269,-0.1358,-0.1424,-0.1563,-0.1865,-0.2048,-0.174,-0.1931,-0.2168,-0.2143,-0.2768,0.0,-0.38,-0.524,-0.5531,-0.3175,-0.2047,-0.0738,0.1245,0.0703,0.0422,0.1129,0.0339,-0.0209,-0.0125,0.0192,0.0,0.0,0.0,-0.2004,-0.353,-0.3246,0.0,0.0,0.0,-0.3994,-0.3888,0.0,0.0,0.0,-0.1606,-0.0991,0.0,0.0,0.0,0.0,0.0,0.0,0.0,0.0,0.0,0.0,0.0,0.0,0.0,0.0,0.0,0.0,-1.8447,-1.953,-1.9991,-2.0472,-2.0772,-2.0746,-2.0696,-2.0696,-2.0746,-2.0696,-2.0497,-2.0169,-1.8904,-1.7798,-1.6825,-1.4693,0.0,0.0,0.0,-0.9903,-0.8798,-0.7976,-0.7188,-0.632,-0.5545,-0.4654,-0.369,-0.3229,-0.2661,-0.1997,-0.1883,-0.2038,-0.2365,-0.2385,-0.2388,-0.2457,-0.364,-0.4138,-0.4199,-0.4443,-0.4362,-0.4097,-0.3763,0.0,0.0,-0.212,-0.1727,-0.1469,-0.1114,-0.1074,-0.1074,-0.0902,-0.0883,-0.0932,-0.0916,-0.1011,-0.1076,-0.1068,-0.1271,-0.1429,-0.1257,-0.1402,-0.1469,-0.1176,-0.1944,-0.2238,-0.0962,-0.2961,-0.4079,-0.2128,-0.1645,-0.0526,0.221,0.136,0.1049,0.2519,0.0,0.0,0.0408,0.0458,0.0327,-0.0066,-0.0494,-0.1253,-0.2409,-0.2711,-0.3168,-0.3818,-0.3948,-0.3892,-0.3678,-0.3686,-0.3742,-0.3869,-0.3049,-0.2569,0.0,0.0,0.0,0.0,0.0,0.0,0.0,0.0,0.0,0.0,0.0,0.0,0.0,0.0,0.0,-1.6979,-1.7897,-1.868,-1.9165,-1.9525,-1.9862,-2.0271,-2.0194,-2.0194,-2.0321,-2.0118,-1.9914,-1.9708,-1.8338,-1.7144,-1.63,-1.4548,-1.2874,-1.1362,-1.0809,-0.9758,-0.8024,-0.7284,-0.6399,-0.5371,0.0,0.0,-0.3078,-0.2755,-0.2391,-0.2012,-0.2012,-0.2088,-0.2164,-0.2373,-0.2535,-0.2681,-0.3368,-0.3772,-0.3973,-0.4081,-0.3937,-0.3626,-0.3033,-0.2629,-0.2228,-0.1441,-0.1159,-0.1048,-0.065,-0.0585,0.0,-0.0534,-0.0494,-0.0576,-0.09,-0.0995,-0.1089,-0.1404,-0.1356,-0.1284,-0.1339,-0.1319,-0.1136,-0.0645,-0.0856,-0.0828,0.0134,-0.1308,-0.1762,0.071,0.0589,0.0743,0.2166,0.1219,0.048,0.0642,0.031,0.0184,0.0453,0.0443,0.0297,0.0,-0.0603,-0.1146,-0.161,-0.2198,-0.2624,-0.2873,-0.332,-0.3532,-0.3547,-0.3603,-0.3673,-0.3736,-0.3713,-0.3953,0.0,0.0,0.0,0.0,0.0,0.0,0.0,0.0,0.0,0.0,0.0,-1.4474,-1.4446,0.0,-1.6114,-1.6336,-1.7119,-1.7764,-1.8178,-1.8387,-1.8815,-1.95,-1.9604,-1.9604,-1.9604,-1.95,-1.9169,-1.8642,-1.752,-1.6436,-1.5393,-1.3972,-1.2488,-1.0919,-1.0346,-0.9311,-0.7769,-0.6842,-0.6001,-0.5176,-0.4202,-0.3373,-0.2673,-0.2137,-0.1776,-0.1546,-0.1445,-0.1479,-0.1609,-0.1915,-0.2187,-0.2427,-0.2652,-0.3038,-0.3437,-0.3445,-0.3235,-0.2874,-0.2371,-0.1938,-0.1507,-0.0892,-0.0647,-0.0536,-0.0202,-0.009,-0.0091,-0.0071,-0.0095,-0.0219,-0.0469,-0.0636,-0.0824,-0.1089,-0.1062,-0.1026,-0.109,-0.1083,-0.0879,-0.0302,-0.039,-0.0285,0.0547,-0.0088,-0.0186,0.1321,0.0893,0.0723,0.1638,0.1015,0.0497,0.0452,0.0383,0.0396,0.0498,0.0373,0.021,0.0011,-0.0509,-0.1012,-0.1484,-0.1954,-0.2386,-0.2787,-0.3121,-0.3372,-0.3543,-0.3637,-0.3744,-0.3861,-0.3995,-0.425,0.0,0.0,0.0,0.0,0.0,0.0,0.0,-1.5979,-1.5401,-1.4697,-1.4419,-1.4312,-1.4295,-1.4964,-1.5499,-1.5499,-1.6168,-1.6821,-1.7045,-1.7324,-1.7733,-1.8441,-1.8911,-1.9042,-1.8762,-1.8804,-1.8478,-1.7542,-1.6667,-1.5647,-1.4499,-1.3204,-1.1892,-1.0514,-0.9681,-0.8715,-0.7616,-0.6504,-0.5669,-0.5125,-0.3937,-0.3011,-0.2361,-0.1583,-0.1121,-0.1008,-0.0755,-0.082,-0.1124,-0.1411,-0.169,-0.1912,-0.1872,-0.2141,-0.2589,-0.2657,-0.2417,-0.2027,-0.167,-0.1221,-0.0728,-0.0344,-0.0139,0.0023,0.0259,0.0353,0.0378,0.0384,0.0264,0.0097,-0.0026,-0.0268,-0.0513,-0.0645,-0.0683,-0.0711,-0.0709,-0.0733,-0.0617,-0.0168,-0.0212,-0.0101,0.0628,0.0658,0.0711,0.111,0.0733,0.0606,0.1183,0.0957,0.0799,0.0885,0.0746,0.0592,0.0469,0.0294,0.0123,-0.0011,-0.0413,-0.0904,-0.1504,-0.1833,-0.2289,-0.2922,-0.3095,-0.3339,-0.361,-0.3758,-0.398,-0.4222,-0.4336,-0.4346,-1.54,-1.6872,-1.8561,-1.951,-1.9307,-1.8906,0.0,-1.7896,-1.6641,-1.5703,-1.5139,-1.4593,-1.4057,-1.4176,-1.4391,-1.4391,-1.5155,-1.5853,-1.6046,-1.6446,-1.6751,-1.6842,-1.8081,-1.8677,-1.792,-1.8227,-1.8069,-1.7135,-1.5764,-1.4663,-1.3937,-1.2298,-1.0963,-1.0027,-0.8889,-0.8027,-0.7339,-0.5984,-0.5044,-0.4478,-0.3347,-0.2512,-0.2029,-0.1213,-0.0815,-0.0733,-0.059,-0.0759,-0.1117,-0.1189,-0.1219,-0.1219,-0.1337,-0.1248,-0.1117,-0.1707,-0.1638,-0.118,-0.084,-0.0421,0.0025,0.0298,0.0492,0.0629,0.0711,0.0684,0.0664,0.0647,0.0442,0.0177,0.0096,-0.0163,-0.0418,-0.051,-0.045,-0.0364,-0.0418,-0.0347,-0.0281,-0.0337,-0.0239,0.0025,0.0528,0.0564,0.0647,0.1048,0.1336,0.1507,0.1468,0.137,0.1285,0.1245,0.0754,0.0411,0.0329,0.0195,0.0056,-0.0078,-0.052,-0.0915,-0.1227,-0.1734,-0.2202,-0.2642,-0.3012,-0.3332,-0.3598,-0.3795,-0.4295,-0.5072,-0.5252,-0.5022,-1.8866,-1.9692,-2.0322,-2.1255,-2.1095,-2.0543,-1.9667,-1.8407,-1.7119,-1.5903,-1.5036,-1.4273,-1.3645,-1.369,-1.3797,-1.3907,-1.4326,-1.4799,-1.5042,-1.5422,-1.5565,-1.5235,-1.6236,-1.6963,-1.692,-1.7048,-1.6757,-1.5736,-1.4745,-1.3845,-1.291,-1.1645,-1.0531,-0.9573,-0.8571,-0.7576,-0.6657,-0.5458,-0.4557,-0.3925,-0.2888,-0.2163,-0.1619,-0.0768,-0.0192,0.0118,-0.0038,-0.0229,-0.0417,-0.0575,-0.066,-0.0748,-0.0656,-0.0478,-0.0402,-0.0858,-0.0709,-0.0213,-0.0027,0.0427,0.0933,0.0989,0.1147,0.1291,0.1327,0.1311,0.1243,0.1102,0.0975,0.0879,0.0754,0.0543,0.0352,0.032,0.0193,0.0065,-0.0064,0.0,0.0094,0.0063,0.0202,0.0456,0.0939,0.1043,0.1198,0.1563,0.1623,0.1689,0.1843,0.1755,0.1552,0.1222,0.0822,0.0526,0.0429,0.0185,-0.0013,-0.0146,-0.0629,-0.1025,-0.1258,-0.1668,-0.207,-0.2481,-0.3152,-0.3683,-0.4061,-0.432,-0.4922,-0.5873,-0.5634,-0.5651,-2.1353,-2.1624,-2.1753,-2.2781,-2.2482,-2.1534,-2.0239,-1.8931,-1.7531,-1.6069,-1.5003,-1.4157,-1.331,-1.3168,-1.3256,-1.3267,-1.3525,-1.375,-1.395,-1.431,-1.4294,-1.3769,-1.4387,-1.4925,-1.5274,-1.5722,-1.5603,-1.4677,-1.3848,-1.2969,-1.2147,-1.099,-0.9972,-0.9112,-0.8127,-0.7122,-0.6105,-0.5115,-0.4224,-0.346,-0.2583,-0.1884,-0.1349,-0.0379,0.0289,0.0761,0.0561,0.04,0.0319,0.019,0.0037,-0.0109,0.0139,0.0272,0.0332,0.0183,0.0379,0.0746,0.0775,0.1233,0.1775,0.1695,0.1773,0.1921,0.1861,0.187,0.1833,0.1618,0.157,0.1522,0.1405,0.1232,0.1051,0.0966,0.0774,0.0572,0.0336,0.0369,0.0436,0.0504,0.0619,0.0861,0.1409,0.1586,0.1792,0.2149,0.2005,0.1937,0.2136,0.2026,0.1722,0.1163,0.0936,0.0724,0.0473,0.0195,-0.0047,-0.0244,-0.0716,-0.1091,-0.1371,-0.166,-0.206,-0.2602,-0.3319,-0.3979,-0.4507,-0.4863,-0.5576,-0.6571,-0.6218,-0.6596,-2.1926,-2.2184,-2.2844,-2.4133,-2.2977,-2.1502,-2.1244,-1.9784,-1.8119,-1.6417,-1.5449,-1.4479,-1.3091,-1.2633,-1.2482,-1.2288,-1.2623,-1.2912,-1.2786,-1.3044,-1.3091,-1.2613,-1.2704,-1.2826,-1.2887,-1.4294,-1.5037,-1.4547,-1.3094,-1.2103,-1.1824,-1.018,-0.904,-0.8606,-0.7471,-0.6561,-0.5916,-0.5047,-0.4123,-0.3202,-0.245,-0.1835,-0.1257,-0.0134,0.0569,0.0926,0.109,0.1046,0.0875,0.0994,0.0988,0.0875,0.1016,0.1158,0.1305,0.1534,0.1607,0.1561,0.1496,0.1957,0.254,0.2351,0.2355,0.2461,0.2329,0.2296,0.2296,0.2263,0.207,0.1871,0.1876,0.1671,0.1405,0.1143,0.1143,0.111,0.0841,0.0774,0.0772,0.0803,0.083,0.1134,0.1861,0.2026,0.2224,0.261,0.2617,0.2507,0.2315,0.2114,0.1762,0.1159,0.1157,0.0954,0.0351,0.0178,-0.005,-0.0365,-0.0717,-0.1109,-0.1576,-0.173,-0.2229,-0.3155,-0.3515,-0.4067,-0.4792,-0.539,-0.6114,-0.6982,-0.7362,-0.8013,-2.3414,-2.386,-2.3986,-2.4186,-2.3816,-2.3097,-2.1815,-2.0268,-1.8617,-1.6914,-1.5427,-1.4018,-1.2538,-1.2127,-1.184,-1.1505,-1.1998,-1.2304,-1.2123,-1.2315,-1.2251,-1.1718,-1.166,-1.1701,-1.1809,-1.2923,-1.3509,-1.3208,-1.2117,-1.1262,-1.0736,-0.9479,-0.8514,-0.7865,-0.6788,-0.5908,-0.5242,-0.409,-0.3257,-0.2721,-0.1561,-0.0671,0.0045,0.0627,0.1156,0.1625,0.1403,0.1447,0.1616,0.1505,0.1465,0.16,0.1815,0.2039,0.2223,0.233,0.2546,0.2761,0.2404,0.2566,0.2919,0.2943,0.2957,0.2977,0.2977,0.2904,0.2805,0.2739,0.2606,0.248,0.2447,0.2242,0.2009,0.1976,0.1709,0.1442,0.1408,0.1408,0.1408,0.1509,0.179,0.2115,0.2358,0.2499,0.2648,0.2935,0.2599,0.2314,0.2245,0.2092,0.1894,0.1607,0.1305,0.1025,0.0786,0.0283,-0.0098,-0.0254,-0.0839,-0.1311,-0.1658,-0.2086,-0.2458,-0.2739,-0.3809,-0.4568,-0.4998,-0.5687,-0.6635,-0.7786,-0.7644,-0.8122,-2.4764,-2.4886,-2.4692,-2.4898,-2.4482,-2.3735,-2.2365,-2.0884,-1.9246,-1.7256,-1.5631,-1.4047,-1.2305,-1.1681,-1.1274,-1.0891,-1.1256,-1.1508,-1.1436,-1.1436,-1.1326,-1.086,-1.0808,-1.0824,-1.0857,-1.1453,-1.1977,-1.2243,-1.1361,-1.0581,-1.0064,-0.8971,-0.7973,-0.7224,-0.6256,-0.542,-0.4603,-0.3656,-0.2825,-0.206,-0.0946,-0.0045,0.0595,0.0991,0.1433,0.1928,0.1749,0.1884,0.2192,0.2086,0.2131,0.2301,0.2553,0.2775,0.2998,0.3056,0.3272,0.3468,0.3016,0.306,0.3331,0.3433,0.3433,0.3433,0.3431,0.334,0.3266,0.3134,0.3043,0.2911,0.2845,0.2679,0.2474,0.2408,0.2142,0.1909,0.1842,0.1909,0.2009,0.2147,0.2437,0.2694,0.2819,0.2972,0.3138,0.3251,0.2904,0.2581,0.2439,0.2266,0.207,0.185,0.1469,0.1175,0.1009,0.0391,-0.0064,-0.0265,-0.0925,-0.1465,-0.1832,-0.2266,-0.2656,-0.299,-0.4028,-0.4782,-0.5281,-0.5982,-0.6808,-0.7766,-0.7693,-0.8115,-2.5844,-2.5402,-2.5114,-2.6108,-2.5016,-2.3452,-2.275,-2.1538,-1.9913,-1.7526,-1.6071,-1.4606,-1.2445,-1.1425,-1.0836,-1.0353,-1.0349,-1.0527,-1.0599,-1.0454,-1.0217,-1.0032,-1.0136,-1.0167,-1.0092,-1.0068,-1.0536,-1.1575,-1.0765,-1.004,-0.9628,-0.8486,-0.7444,-0.6554,-0.5882,-0.5093,-0.4089,-0.3628,-0.2663,-0.129,-0.0551,0.0046,0.0427,0.1052,0.1481,0.1839,0.2111,0.233,0.2549,0.2776,0.293,0.2947,0.3239,0.3431,0.3567,0.376,0.3837,0.3774,0.3338,0.3421,0.3743,0.3743,0.3805,0.3876,0.3708,0.3644,0.3602,0.3545,0.3381,0.3208,0.315,0.2985,0.2779,0.2507,0.2474,0.2474,0.2203,0.2302,0.2474,0.2712,0.2779,0.2911,0.3282,0.351,0.362,0.362,0.3488,0.3255,0.285,0.2581,0.2276,0.196,0.1667,0.138,0.1048,0.0515,0.0045,-0.0356,-0.0936,-0.1513,-0.2062,-0.2227,-0.28,-0.3831,-0.413,-0.4701,-0.5571,-0.6171,-0.6655,-0.7034,-0.7563,-0.804,-2.6713,-2.6262,-2.5658,-2.5928,-2.5026,-2.3897,-2.2833,-2.1468,-1.9779,-1.7632,-1.5826,-1.4087,-1.2645,-1.14,-1.0511,-1.0101,-0.9924,-0.983,-0.9905,-0.9681,-0.9596,-0.9652,-0.9558,-0.9455,-0.9366,-0.9254,-0.9285,-0.9548,-0.9345,-0.904,-0.8531,-0.7724,-0.6786,-0.588,-0.5279,-0.4485,-0.3614,-0.2513,-0.1655,-0.0894,-0.0246,0.0339,0.0808,0.1366,0.1799,0.2111,0.2241,0.2415,0.2687,0.2904,0.3108,0.3302,0.3738,0.4054,0.4253,0.4314,0.4382,0.4454,0.4319,0.4211,0.4084,0.4309,0.4286,0.4186,0.4127,0.4024,0.3925,0.399,0.3889,0.3728,0.369,0.3509,0.3274,0.3109,0.301,0.2944,0.2937,0.2838,0.2904,0.3364,0.3723,0.3961,0.3906,0.3889,0.3871,0.3839,0.3589,0.326,0.2844,0.2654,0.2431,0.2144,0.1799,0.1513,0.1385,0.0739,0.0247,-0.0022,-0.0603,-0.1203,-0.1843,-0.2186,-0.2609,-0.3071,-0.3731,-0.4381,-0.5,-0.5664,-0.6401,-0.7241,-0.7636,-0.8003,-2.7186,-2.6589,-2.5957,-2.6021,-2.4952,-2.3738,-2.2608,-2.1328,-1.9719,-1.7349,-1.5689,-1.4162,-1.2482,-1.1196,-1.0155,-0.9749,-0.9374,-0.9165,-0.9279,-0.9076,-0.8969,-0.914,-0.9129,-0.9061,-0.8985,-0.8859,-0.8711,-0.8689,-0.8698,-0.8447,-0.7902,-0.726,-0.6441,-0.5554,-0.4787,-0.3928,-0.2975,-0.1931,-0.1189,-0.0723,-0.0051,0.0503,0.085,0.1428,0.177,0.2029,0.0,0.2547,0.2821,0.317,0.3435,0.3663,0.4104,0.4412,0.4657,0.4711,0.4759,0.4852,0.4927,0.4808,0.4652,0.4685,0.4644,0.461,0.4546,0.4495,0.4492,0.4474,0.4413,0.4307,0.4267,0.4056,0.3831,0.3761,0.362,0.3479,0.3479,0.3405,0.3458,0.3831,0.4113,0.4253,0.4285,0.4242,0.421,0.4156,0.4009,0.374,0.3326,0.296,0.2578,0.2204,0.1949,0.1714,0.1435,0.0873,0.0424,0.0156,-0.0445,-0.1025,-0.1519,-0.1931,-0.2346,-0.2795,-0.3292,-0.3881,-0.4546,-0.5072,-0.5744,-0.6604,-0.7044,-0.7414,-2.7382,-2.6673,-2.6166,-2.609,-2.4828,-2.3292,-2.221,-2.1145,-1.966,-1.6773,-1.5484,-1.4284,-1.2317,-1.0898,-0.99,-0.9486,-0.8768,-0.8403,-0.8848,-0.8544,-0.8331,-0.8588,-0.8789,-0.8844,-0.8768,-0.8561,-0.8494,-0.8409,-0.8317,-0.8099,-0.7588,-0.6904,-0.613,-0.517,-0.4307,-0.3364,-0.2305,-0.161,-0.102,-0.0536,0.0104,0.0571,0.0798,0.1342,0.1644,0.1824,0.2351,0.2674,0.2937,0.3468,0.3766,0.3928,0.4368,0.4631,0.4849,0.498,0.5033,0.5077,0.5285,0.5328,0.5201,0.4981,0.4933,0.4994,0.4888,0.4958,0.505,0.492,0.4937,0.4964,0.4816,0.4605,0.4433,0.4395,0.4251,0.4098,0.3974,0.4021,0.4122,0.4272,0.4306,0.4372,0.4524,0.4545,0.4545,0.449,0.4458,0.4316,0.3973,0.3365,0.2802,0.2284,0.2168,0.1938,0.1443,0.1003,0.0612,0.0295,-0.0336,-0.0825,-0.1096,-0.1491,-0.1997,-0.2639,-0.2799,-0.3265,-0.4045,-0.4412,-0.4943,-0.5639,-0.6194,-0.6637,-2.7722,-2.6941,-2.629,-2.5441,-2.4538,-2.3369,-2.1678,-2.047,-1.9015,-1.6799,-1.4967,-1.3528,-1.2744,-1.0907,-0.948,-0.9547,-0.8465,-0.7854,-0.8316,-0.8007,-0.7769,-0.8077,-0.819,-0.8174,-0.8042,-0.7987,-0.7785,-0.7446,-0.7247,-0.7195,-0.7279,-0.6369,-0.5247,-0.3946,-0.3254,-0.2623,-0.1887,-0.1166,-0.0611,-0.0278,0.0331,0.0708,0.0799,0.1217,0.1553,0.1799,0.2247,0.0,0.2871,0.3339,0.3683,0.3928,0.4403,0.4753,0.498,0.5154,0.5328,0.5448,0.5588,0.5631,0.5577,0.5449,0.5261,0.5106,0.5185,0.5153,0.5121,0.519,0.5297,0.5375,0.5319,0.5181,0.5077,0.4926,0.485,0.4812,0.4726,0.4883,0.5037,0.4882,0.5176,0.5324,0.498,0.4854,0.4751,0.4534,0.4318,0.4113,0.4007,0.368,0.3317,0.2892,0.2488,0.215,0.189,0.1357,0.0938,0.0714,0.0163,-0.0291,-0.0603,-0.0959,-0.138,-0.1887,-0.2076,-0.2521,-0.3202,-0.3763,-0.4457,-0.5299,-0.5959,-0.6435,-2.755,-2.6582,-2.6035,-2.5371,-2.4027,-2.2511,-2.1275,-1.9856,-1.8072,-1.5683,-1.4195,-1.3047,-1.2085,-1.0456,-0.9138,-0.9042,-0.8098,-0.7483,-0.7788,-0.7556,-0.7336,-0.7501,-0.7596,-0.7553,-0.7526,-0.7409,-0.7225,-0.704,-0.672,-0.658,-0.6753,-0.57,-0.4532,-0.3299,-0.2798,-0.2352,-0.1902,-0.1177,-0.0673,-0.0449,0.0168,0.0611,0.0875,0.1205,0.1558,0.187,0.2336,0.2741,0.3039,0.3477,0.3866,0.4228,0.4641,0.4868,0.5015,0.533,0.5385,0.5415,0.5545,0.5631,0.5717,0.5761,0.5631,0.5491,0.5616,0.5715,0.5769,0.5843,0.5908,0.5959,0.5843,0.5704,0.5573,0.5532,0.5451,0.5407,0.5325,0.5381,0.5386,0.5326,0.549,0.5603,0.5492,0.5372,0.5216,0.4964,0.4772,0.456,0.4242,0.3998,0.3629,0.3058,0.2695,0.2342,0.1933,0.1546,0.1221,0.1012,0.0498,0.0143,-0.0024,-0.0387,-0.0778,-0.1181,-0.1402,-0.1858,-0.2533,-0.3075,-0.3687,-0.4401,-0.5096,-0.5544,-2.7311,-2.6423,-2.5963,-2.4985,-2.3294,-2.1556,-2.0536,-1.9112,-1.7224,-1.4684,-1.3441,-1.2453,-1.118,-0.9792,-0.8743,-0.8379,-0.7547,-0.7079,-0.7259,-0.7082,-0.698,-0.7053,-0.7075,-0.7145,-0.7173,-0.704,-0.6861,-0.6873,-0.6309,-0.5977,-0.604,-0.4991,-0.3952,-0.2941,-0.2583,-0.224,-0.1849,-0.1177,-0.0785,-0.0561,0.0,0.0505,0.0841,0.1179,0.1495,0.1886,0.2424,0.2847,0.3155,0.361,0.3993,0.4363,0.4808,0.4969,0.5076,0.5405,0.5494,0.547,0.5637,0.5781,0.5914,0.6135,0.6055,0.5879,0.6019,0.6233,0.6416,0.6404,0.6459,0.6447,0.6307,0.6136,0.605,0.6147,0.605,0.5993,0.592,0.5844,0.5774,0.5809,0.5849,0.5875,0.6002,0.5876,0.5714,0.5452,0.5272,0.5025,0.4581,0.4285,0.3869,0.3291,0.2966,0.2563,0.2003,0.1744,0.1497,0.1233,0.0817,0.0564,0.0515,0.0184,-0.0134,-0.0388,-0.0687,-0.114,-0.1737,-0.2271,-0.2799,-0.3356,-0.4115,-0.4573,-2.7361,-2.6845,-2.6237,-2.3749,-2.2502,-2.1299,-1.9303,-1.8043,-1.6726,-1.4719,-1.3005,-1.1564,-1.0725,-0.9192,-0.8028,-0.7779,-0.7001,-0.6528,-0.6888,-0.6737,-0.6654,-0.6851,-0.7051,-0.7111,-0.7096,-0.6958,-0.6841,-0.6604,-0.6029,-0.5393,-0.4785,-0.4317,-0.3696,-0.2926,-0.2444,-0.1961,-0.1347,-0.0953,-0.0561,-0.0224,0.0393,0.0673,0.0729,0.1123,0.1401,0.1676,0.2233,0.2676,0.0,0.3533,0.3933,0.4172,0.466,0.4948,0.5135,0.5487,0.5712,0.5886,0.6213,0.6405,0.656,0.68,0.6487,0.6019,0.6288,0.6373,0.6416,0.6489,0.666,0.6787,0.652,0.666,0.6787,0.6672,0.6617,0.6634,0.6592,0.6622,0.6596,0.6613,0.6584,0.655,0.6362,0.6205,0.6026,0.5863,0.5382,0.5004,0.4946,0.4449,0.4091,0.4006,0.3445,0.2887,0.2472,0.2135,0.1767,0.1331,0.1182,0.1041,0.0857,0.0694,0.06,0.057,0.0198,-0.0198,-0.057,-0.1278,-0.1932,-0.2523,-0.333,-0.3973,-2.6795,-2.6589,-2.6175,-2.4144,-2.1764,-1.9212,-1.6843,-1.624,-1.5583,-1.3377,-1.1979,-1.0892,-0.9958,-0.842,-0.7283,-0.704,-0.6186,-0.5676,-0.5997,-0.583,-0.5725,-0.6002,-0.6019,-0.6084,-0.6163,-0.6047,-0.588,-0.5475,-0.5066,-0.4529,-0.3967,-0.3849,-0.3427,-0.2666,-0.233,-0.1961,-0.1544,-0.1167,-0.0809,-0.052,0.0057,0.0449,0.0729,0.1009,0.1401,0.1849,0.2296,0.2832,0.0,0.367,0.4072,0.4506,0.4869,0.512,0.5327,0.5641,0.5808,0.5946,0.618,0.6423,0.6627,0.6821,0.686,0.6878,0.7028,0.7074,0.7036,0.6995,0.7076,0.705,0.671,0.6745,0.6872,0.6829,0.6829,0.6829,0.6829,0.6745,0.6745,0.6829,0.6745,0.6761,0.6852,0.6661,0.6435,0.635,0.5939,0.5577,0.5383,0.4989,0.4684,0.4602,0.3841,0.3241,0.2951,0.2686,0.2445,0.2145,0.2013,0.1859,0.1701,0.1471,0.1327,0.1229,0.0805,0.0446,0.015,-0.0601,-0.1175,-0.1633,-0.2353,-0.2926,-2.6898,-2.6642,-2.5971,-2.3161,-2.0053,-1.7349,-1.5407,-1.4912,-1.4263,-1.2089,-1.0898,-0.9945,-0.8871,-0.7577,-0.6564,-0.6176,-0.5467,-0.5026,-0.532,-0.5127,-0.5015,-0.5183,-0.5147,-0.5189,-0.5283,-0.5319,-0.5174,-0.4651,-0.4377,-0.3983,-0.3474,-0.3374,-0.3087,-0.244,-0.2166,-0.1911,-0.1603,-0.1268,-0.1011,-0.0707,-0.023,0.0226,0.0617,0.0953,0.1401,0.1905,0.2296,0.2854,0.0,0.3688,0.4132,0.4684,0.4959,0.5163,0.5422,0.5738,0.5916,0.6036,0.6338,0.6589,0.6851,0.7039,0.7338,0.7586,0.7684,0.7669,0.7633,0.7577,0.7511,0.7471,0.7185,0.7132,0.7163,0.7176,0.7154,0.7088,0.7088,0.6937,0.6885,0.6956,0.6872,0.6872,0.7167,0.6956,0.6765,0.6706,0.6413,0.6088,0.5901,0.55,0.5156,0.504,0.4301,0.369,0.3381,0.3183,0.2967,0.2701,0.2623,0.2506,0.2306,0.2173,0.2029,0.1895,0.1495,0.1152,0.0856,0.0157,-0.0374,-0.0761,-0.1452,-0.2039,-2.7863,-2.7441,-2.5272,-1.9638,-1.727,-1.6067,-1.5451,-1.4329,-1.2912,-1.1181,-0.9876,-0.8667,-0.7437,-0.6597,-0.5933,-0.5418,-0.5074,-0.4961,-0.4985,-0.4814,-0.4699,-0.4787,-0.4529,-0.4507,-0.4879,-0.4993,-0.4876,-0.4538,-0.4279,-0.3884,-0.3438,-0.2931,-0.2586,-0.2323,-0.194,-0.1603,-0.142,-0.1112,-0.0911,-0.0707,-0.0236,0.0116,0.0393,0.0897,0.1291,0.1628,0.2244,0.2742,0.0,0.3633,0.4076,0.4519,0.4787,0.5069,0.5352,0.5681,0.5955,0.6273,0.6858,0.7192,0.7365,0.7729,0.7889,0.7943,0.8156,0.8075,0.8004,0.8051,0.8051,0.8004,0.8051,0.7909,0.7719,0.7875,0.7742,0.7558,0.7513,0.7328,0.7209,0.7209,0.707,0.7027,0.7167,0.7041,0.6914,0.6972,0.6611,0.6349,0.6481,0.5913,0.5444,0.5317,0.4865,0.4363,0.3752,0.3575,0.3277,0.2735,0.2891,0.2836,0.2507,0.268,0.2733,0.26,0.2327,0.2018,0.1683,0.1093,0.0538,0.0075,-0.0672,-0.1501,-2.6445,-2.4492,-2.0883,-1.4823,-1.4003,-1.4194,-1.2384,-1.2164,-1.1695,-0.9664,-0.8473,-0.7455,-0.6493,-0.5603,-0.5092,-0.4995,-0.4428,-0.4074,-0.4325,-0.4034,-0.3802,-0.3859,-0.4058,-0.4201,-0.408,-0.425,-0.411,-0.3714,-0.3548,-0.3266,-0.2877,-0.2669,-0.2529,-0.2394,-0.2172,-0.1899,-0.1572,-0.1477,-0.1139,-0.0565,-0.0307,0.0061,0.0479,0.0821,0.1218,0.1619,0.2264,0.2798,0.3355,0.3855,0.4353,0.4787,0.4959,0.5289,0.5681,0.5845,0.6164,0.6598,0.6977,0.7246,0.7473,0.7794,0.8062,0.8262,0.854,0.8463,0.8318,0.8432,0.8214,0.8051,0.8193,0.8146,0.8099,0.816,0.8044,0.7915,0.7915,0.7801,0.7701,0.7779,0.7616,0.7466,0.7598,0.7389,0.7251,0.728,0.6989,0.6798,0.6852,0.6445,0.612,0.5887,0.5541,0.5039,0.4253,0.4029,0.3831,0.3596,0.3658,0.3565,0.3255,0.3193,0.3093,0.3023,0.2701,0.2431,0.2236,0.1745,0.1179,0.0564,0.015,-0.0336,-2.0395,-1.8902,-1.6133,-1.2424,-1.2091,-1.2236,-1.061,-1.041,-0.9947,-0.808,-0.6967,-0.6061,-0.5135,-0.4487,-0.4079,-0.4073,-0.3693,-0.3407,-0.3808,-0.3486,-0.3213,-0.3197,-0.3483,-0.3581,-0.3451,-0.3579,-0.362,-0.3381,-0.3074,-0.2871,-0.2623,-0.2417,-0.2287,-0.2223,-0.2085,-0.1817,-0.1479,-0.1454,-0.1173,-0.0581,-0.038,-0.0062,0.0432,0.0847,0.1319,0.1791,0.2315,0.2853,0.0,0.3934,0.4408,0.4849,0.5069,0.5407,0.5845,0.6009,0.6273,0.6652,0.7031,0.7311,0.7568,0.7901,0.8209,0.8527,0.8804,0.8857,0.8803,0.8936,0.8741,0.849,0.8686,0.8637,0.8539,0.8539,0.8407,0.829,0.8242,0.8051,0.7936,0.8017,0.7915,0.7784,0.7719,0.7671,0.7589,0.7517,0.7363,0.728,0.7321,0.7027,0.6754,0.6507,0.6195,0.5763,0.514,0.4625,0.4296,0.4156,0.4156,0.4026,0.3765,0.3626,0.3495,0.3405,0.3142,0.2924,0.2756,0.2261,0.172,0.111,0.0933,0.0626,0.0,-1.1848,-1.1601,-1.1784,-1.1128,-1.0383,-0.9869,-0.8958,0.0,-0.6371,-0.5416,-0.448,-0.3485,-0.3232,-0.3037,-0.2812,-0.2885,-0.3078,-0.3313,-0.3241,-0.2987,-0.2583,-0.2812,-0.2962,-0.2953,-0.3058,-0.3231,-0.3385,-0.2998,-0.2628,-0.2566,-0.2217,-0.1951,-0.1971,-0.1693,-0.1486,-0.1277,-0.1143,-0.0996,-0.0777,-0.0453,-0.0128,0.0249,0.0992,0.1548,0.0,0.2453,0.2947,0.0,0.3863,0.4311,0.4746,0.5132,0.5517,0.5845,0.6119,0.6282,0.6544,0.7095,0.7419,0.7622,0.8062,0.8421,0.8685,0.8949,0.9211,0.9406,0.9562,0.942,0.9263,0.9368,0.9211,0.9015,0.9015,0.8848,0.8605,0.8504,0.819,0.7989,0.7989,0.8072,0.8057,0.7725,0.7853,0.7946,0.7757,0.7726,0.7753,0.7878,0.7628,0.7334,0.7126,0.6823,0.6544,0.626,0.5367,0.474,0.4481,0.4426,0.4285,0.4026,0.4026,0.3938,0.3761,0.3653,0.348,0.3241,0.271,0.2204,0.1721,0.1688,0.1399,-1.1193,0.0,-0.9783,-0.9129,-0.8696,-0.8276,0.0,-0.6937,-0.5944,-0.4374,-0.3402,-0.2731,-0.2652,-0.2333,-0.2283,-0.2856,-0.2689,-0.2499,-0.2771,-0.2785,-0.2655,-0.2354,-0.2713,-0.2861,-0.2596,-0.2706,-0.2811,-0.2825,-0.2681,-0.256,-0.2546,-0.2264,-0.2151,-0.2283,-0.1736,-0.1404,-0.1277,-0.1143,-0.0939,-0.0534,-0.02,0.0133,0.0462,0.1032,0.1531,0.1911,0.2591,0.3066,0.3406,0.4013,0.4452,0.4746,0.5022,0.5407,0.5845,0.6109,0.6436,0.6825,0.7311,0.7634,0.7901,0.8368,0.8738,0.9106,0.9263,0.9211,0.9159,0.9368,0.9406,0.9368,0.951,0.9406,0.9316,0.9316,0.9103,0.8906,0.9009,0.8851,0.8796,0.8899,0.8805,0.8658,0.8553,0.8378,0.8253,0.8092,0.7873,0.7753,0.7878,0.7655,0.7416,0.7273,0.719,0.6982,0.6629,0.5825,0.5274,0.5172,0.4778,0.4479,0.4318,0.4253,0.4295,0.4477,0.4374,0.4078,0.3593,0.3198,0.295,0.2825,0.2516,0.2246,-1.0375,-1.0132,-0.9641,-0.8851,-0.8272,-0.7672,-0.6957,-0.5769,-0.4522,-0.3461,-0.2423,-0.1725,-0.1605,-0.1377,-0.1379,-0.2006,-0.2072,-0.2151,-0.2381,-0.2405,-0.2405,-0.2216,-0.2495,-0.2549,-0.2444,-0.2409,-0.2443,-0.2445,-0.2329,-0.2211,-0.2165,-0.1962,-0.1851,-0.1973,-0.1496,-0.1326,-0.1509,-0.1165,-0.0886,-0.0607,-0.0135,0.0202,0.0404,0.1125,0.1644,0.2035,0.2674,0.3175,0.3493,0.4219,0.4624,0.484,0.5243,0.5661,0.5978,0.6304,0.6634,0.6933,0.7365,0.7794,0.8221,0.8633,0.8949,0.9263,0.9406,0.9406,0.9316,0.9524,0.9472,0.9406,0.9562,0.942,0.9211,0.9316,0.9159,0.9015,0.9001,0.8962,0.8962,0.9054,0.9123,0.912,0.909,0.9107,0.9036,0.8882,0.8617,0.8442,0.8527,0.8203,0.7911,0.7864,0.7809,0.7708,0.7393,0.6818,0.6305,0.5883,0.5516,0.5268,0.5199,0.4875,0.474,0.4796,0.4991,0.4873,0.4381,0.4031,0.3794,0.3696,0.3175,0.2873,-0.9543,-0.9966,-1.0109,-0.9242,-0.8338,-0.7451,-0.666,-0.4924,-0.3403,-0.3005,-0.1995,-0.1138,-0.0923,-0.0691,-0.0733,-0.119,-0.1497,-0.1841,-0.2173,-0.2169,-0.2157,-0.2183,-0.2157,-0.2196,-0.2281,-0.217,-0.2044,-0.213,-0.2029,-0.1907,-0.1832,-0.1636,-0.1452,-0.149,-0.1244,-0.1306,-0.1612,-0.1117,-0.0826,-0.0741,-0.0067,0.0337,0.0337,0.1212,0.1817,0.222,0.0,0.0,0.3663,0.4294,0.4668,0.4904,0.5487,0.5868,0.6072,0.6539,0.6743,0.6933,0.7354,0.7889,0.8421,0.8791,0.9054,0.9211,0.9458,0.9562,0.9614,0.9732,0.9577,0.9406,0.951,0.9263,0.9015,0.9159,0.9054,0.8962,0.8857,0.8857,0.891,0.9054,0.9263,0.9438,0.9442,0.9684,0.9819,0.9719,0.9514,0.9327,0.9327,0.8962,0.8683,0.8683,0.8657,0.8615,0.849,0.8118,0.7594,0.6928,0.6412,0.6146,0.6146,0.5708,0.5369,0.5133,0.5627,0.5676,0.5291,0.494,0.4662,0.4428,0.3844,0.3525,-1.0132,-1.0418,-0.9912,-0.7443,-0.6485,-0.5845,-0.4731,-0.3569,-0.2599,-0.2059,-0.1261,-0.0888,-0.1424,-0.1075,-0.1035,-0.2172,-0.2067,-0.1845,-0.1615,-0.1834,-0.1925,-0.1679,-0.1789,-0.1963,-0.1884,-0.1814,-0.1854,-0.2008,-0.1938,-0.1891,-0.1877,-0.1603,-0.158,-0.1722,-0.1387,-0.1214,-0.1262,-0.096,-0.0744,-0.0539,0.0,0.0337,0.0472,0.1413,0.1951,0.222,0.0,0.3361,0.3604,0.399,0.4363,0.4716,0.5129,0.5521,0.5908,0.6358,0.6621,0.6815,0.7461,0.7889,0.8275,0.858,0.8844,0.9054,0.9368,0.951,0.9614,0.9614,0.951,0.9368,0.9263,0.9106,0.9015,0.9015,0.9001,0.9015,0.9106,0.9211,0.9368,0.9458,0.9562,0.9599,0.9725,0.9638,0.9573,0.9657,0.9549,0.9479,0.9525,0.9522,0.9518,0.9579,0.9714,0.9759,0.9714,0.9425,0.9173,0.9039,0.7393,0.6417,0.6366,0.6598,0.656,0.6188,0.6474,0.6361,0.5776,0.5553,0.5356,0.5122,0.4867,0.4661,-0.9449,-0.9535,-0.9356,-0.7557,-0.6999,-0.6687,-0.5714,-0.4278,-0.301,-0.2652,-0.1936,-0.1462,-0.1705,-0.1538,-0.1619,-0.211,-0.2058,-0.18,-0.1546,-0.1645,-0.1632,-0.1414,-0.1408,-0.1392,-0.126,-0.1145,-0.1207,-0.1432,-0.1404,-0.1373,-0.1338,-0.1228,-0.1204,-0.1187,-0.094,-0.0846,-0.0824,-0.061,-0.0404,-0.0202,0.0337,0.0673,0.0875,0.1548,0.2018,0.2223,0.0,0.3338,0.3619,0.4146,0.4534,0.4771,0.5171,0.5526,0.5891,0.6407,0.6743,0.6977,0.7461,0.7783,0.8115,0.8474,0.8738,0.899,0.9407,0.9517,0.9491,0.9604,0.9463,0.9263,0.9211,0.9068,0.891,0.8962,0.8962,0.891,0.8962,0.9106,0.9211,0.9368,0.9577,0.9784,1.0058,1.0175,1.0316,1.0516,1.0398,1.0322,1.0509,1.0274,1.0183,1.0273,1.0273,1.0245,1.02,1.009,0.9683,0.8939,0.8031,0.7378,0.707,0.7381,0.7356,0.6957,0.7158,0.7083,0.6706,0.635,0.6117,0.5951,0.5512,0.5303,-0.9186,-0.9093,-0.899,-0.8304,-0.8016,-0.7658,-0.7032,-0.5333,-0.3883,-0.3667,-0.2957,-0.2343,-0.2159,-0.2125,-0.2077,-0.1798,-0.1826,-0.1847,-0.1579,-0.1465,-0.1349,-0.1145,-0.1035,-0.0923,-0.0719,-0.0714,-0.0702,-0.0844,-0.0839,-0.0821,-0.0709,-0.0768,-0.0673,-0.0511,-0.0497,-0.0415,-0.0404,-0.0202,-0.0135,0.0,0.0471,0.0874,0.1143,0.1682,0.2018,0.229,0.2891,0.3293,0.3623,0.4196,0.4614,0.4919,0.5239,0.562,0.6,0.6423,0.6815,0.7192,0.7354,0.7634,0.7955,0.8368,0.858,0.8805,0.9371,0.9398,0.9354,0.9535,0.9408,0.9207,0.9178,0.9004,0.8884,0.8923,0.891,0.8857,0.8857,0.8962,0.9134,0.9309,0.9582,0.9866,1.0269,1.0621,1.0879,1.1116,1.1028,1.105,1.1291,1.1006,1.0811,1.0967,1.0967,1.0885,1.0749,1.0749,1.0268,0.9081,0.8782,0.8455,0.8047,0.814,0.81,0.7849,0.7904,0.79,0.7802,0.7391,0.71,0.6963,0.6467,0.6257,-1.0628,-1.0047,-0.9412,-0.9204,-0.8472,-0.7554,-0.7088,-0.602,-0.5027,-0.4709,-0.3974,-0.3357,-0.3178,-0.2814,-0.237,-0.1619,-0.177,-0.1813,-0.131,-0.1209,-0.1092,-0.0862,-0.0857,-0.075,-0.072,-0.0706,-0.0605,-0.0422,-0.0413,-0.0242,-0.0079,-0.023,-0.0299,-0.0292,-0.0284,-0.0208,-0.0067,0.0135,0.0202,0.0,0.0336,0.074,0.1143,0.1682,0.2085,0.2424,0.2824,0.3288,0.3808,0.3851,0.4204,0.4857,0.5213,0.5812,0.641,0.6267,0.6663,0.7311,0.7311,0.758,0.7955,0.8168,0.8328,0.8526,0.8932,0.9023,0.9088,0.9375,0.9311,0.9163,0.9062,0.9095,0.9084,0.8871,0.891,0.9015,0.9015,0.9106,0.9295,0.9738,0.9713,0.9821,1.0363,1.052,1.0573,1.0726,1.0947,1.1133,1.1283,1.1449,1.1697,1.1796,1.2043,1.2089,1.1808,1.1771,1.149,1.0757,0.9917,0.941,0.9376,0.9031,0.8931,0.9162,0.8834,0.8743,0.8975,0.8714,0.8514,0.8436,0.8268,0.8115,-1.0292,-0.9902,-0.9564,-0.9021,-0.891,-0.8633,-0.7624,-0.6745,-0.5913,-0.54,-0.4795,-0.4117,-0.3429,-0.2856,-0.2454,-0.1936,-0.1753,-0.1664,-0.1288,-0.1081,-0.0869,-0.0563,-0.0561,-0.037,-0.009,0.0,0.0,0.0084,0.0084,0.0164,0.0157,0.0234,0.0304,0.0438,0.0577,0.0633,0.0673,0.074,0.074,0.0673,0.0874,0.121,0.1615,0.1951,0.2153,0.229,0.2891,0.3226,0.348,0.4051,0.4417,0.4739,0.5132,0.5718,0.6285,0.6256,0.6553,0.6944,0.7091,0.728,0.7549,0.7917,0.8086,0.8336,0.8878,0.8955,0.8956,0.9285,0.9358,0.9322,0.9182,0.9182,0.9144,0.9097,0.9071,0.9128,0.924,0.9339,0.9534,0.9939,1.0046,1.0141,1.0423,1.083,1.1091,1.1065,1.1473,1.1938,1.2331,1.2434,1.2646,1.3167,1.3238,1.3181,1.308,1.2978,1.28,1.2531,1.1,1.0065,1.0021,0.9707,0.9619,0.9709,0.9485,0.937,0.9452,0.9267,0.9128,0.9051,0.8911,0.8724,-1.0007,-0.983,-0.9665,-0.895,-0.9141,-0.9212,-0.8147,-0.7434,-0.6839,-0.6064,-0.5128,-0.4185,-0.3395,-0.2764,-0.2247,-0.2034,-0.1733,-0.1344,-0.1077,-0.0869,-0.0568,-0.0278,-0.0185,0.0,0.0359,0.0535,0.0613,0.0675,0.0752,0.0819,0.0787,0.0864,0.0998,0.1095,0.1167,0.1208,0.1144,0.121,0.1344,0.1479,0.1546,0.1682,0.1817,0.2018,0.222,0.2421,0.2958,0.3293,0.3418,0.4229,0.4665,0.4859,0.5202,0.5611,0.6015,0.6196,0.6445,0.6729,0.7016,0.7224,0.7455,0.7722,0.7903,0.8097,0.8702,0.8769,0.8753,0.9134,0.9268,0.9313,0.915,0.9244,0.9335,0.9246,0.922,0.922,0.9337,0.9499,0.9758,1.0144,1.0322,1.0524,1.0796,1.1272,1.156,1.1505,1.1956,1.2485,1.3032,1.3081,1.3351,1.4038,1.4014,1.3956,1.398,1.3822,1.3678,1.3676,1.23,1.1334,1.1048,1.0801,1.0707,1.0781,1.0525,1.0448,1.0564,1.0368,1.0221,1.0172,0.9974,0.9714,-0.9983,-0.9757,-0.9853,-0.9199,-0.9132,-0.9004,-0.8444,-0.8059,-0.7583,-0.658,-0.4886,-0.3484,-0.3252,-0.2463,-0.1862,-0.1902,-0.1525,-0.1151,-0.088,-0.0579,-0.0284,0.0,0.0277,0.0367,0.0449,0.0791,0.1119,0.1261,0.1481,0.1689,0.1889,0.173,0.1614,0.1533,0.1459,0.135,0.1346,0.1479,0.1817,0.222,0.222,0.2018,0.1615,0.1817,0.2217,0.2686,0.3025,0.3426,0.3818,0.4159,0.4734,0.5404,0.5404,0.5537,0.5851,0.6023,0.6358,0.6778,0.718,0.7498,0.7677,0.7677,0.7677,0.7779,0.827,0.8409,0.8465,0.889,0.9011,0.9022,0.9022,0.928,0.9516,0.9238,0.9174,0.9174,0.9174,0.9467,0.9838,1.0315,1.0638,1.097,1.1419,1.1783,1.2008,1.2008,1.2342,1.2729,1.3077,1.3346,1.3758,1.4324,1.4347,1.4324,1.4427,1.4208,1.4064,1.4019,1.3695,1.3273,1.2742,1.2406,1.2287,1.2498,1.2097,1.2057,1.2398,1.212,1.2008,1.2008,1.1656,1.1352,-0.9926,-0.954,-0.9349,-0.908,-0.8972,-0.8882,-0.8489,-0.8254,-0.774,-0.6283,-0.5025,-0.3977,-0.3332,-0.2706,-0.219,-0.1862,-0.1476,-0.1012,-0.0845,-0.0562,-0.0185,0.0272,0.0458,0.073,0.0968,0.1307,0.154,0.1728,0.1794,0.1852,0.1889,0.1963,0.2072,0.2046,0.2187,0.2273,0.2284,0.2085,0.2085,0.222,0.2085,0.2153,0.2351,0.2418,0.2552,0.2753,0.3226,0.3498,0.3627,0.4389,0.4938,0.5403,0.537,0.5555,0.5866,0.6164,0.637,0.6471,0.7058,0.7147,0.711,0.7257,0.7306,0.7345,0.7761,0.7896,0.7906,0.8032,0.8236,0.8431,0.8431,0.8709,0.9087,0.9143,0.9194,0.9256,0.9381,0.9619,1.0004,1.0594,1.0849,1.1123,1.1642,1.2049,1.2364,1.2265,1.2789,1.3378,1.3942,1.4317,1.4735,1.506,1.5019,1.498,1.5096,1.4983,1.4888,1.483,1.4773,1.4223,1.3184,1.2949,1.2824,1.277,1.2553,1.2442,1.2564,1.2398,1.2231,1.212,1.2064,1.183,-1.0207,-0.982,-0.9717,-0.9488,-0.9287,-0.9083,-0.8536,-0.7921,-0.7013,-0.5941,-0.4842,-0.3952,-0.3419,-0.278,-0.2259,-0.203,-0.1364,-0.0903,-0.0831,-0.0367,0.0,0.0359,0.072,0.1073,0.1306,0.1625,0.1924,0.2036,0.2175,0.223,0.228,0.2434,0.2546,0.2595,0.2636,0.2711,0.2734,0.2501,0.2421,0.2488,0.2421,0.2488,0.282,0.2753,0.2753,0.2954,0.3493,0.3832,0.4028,0.4561,0.5061,0.5387,0.5387,0.5525,0.5715,0.6145,0.6285,0.6293,0.6849,0.6949,0.6804,0.6985,0.7022,0.704,0.7363,0.7531,0.7661,0.7727,0.7847,0.7977,0.8107,0.8376,0.8776,0.9022,0.9227,0.9356,0.9356,0.9728,1.0174,1.0618,1.1029,1.1374,1.1813,1.2354,1.2629,1.2646,1.3281,1.3907,1.4447,1.477,1.5079,1.5313,1.5369,1.5484,1.5664,1.5737,1.5731,1.5715,1.56,1.5191,1.4482,1.4109,1.3829,1.3641,1.3471,1.3357,1.3243,1.3072,1.29,1.2843,1.2728,1.267,-1.0568,-1.0448,-1.0376,-1.0058,-0.9804,-0.9376,-0.8387,-0.7076,-0.593,-0.5655,-0.4614,-0.3762,-0.3599,-0.2869,-0.2257,-0.221,-0.1362,-0.0813,-0.0828,-0.0091,0.0358,0.0447,0.0967,0.1301,0.1382,0.1914,0.2273,0.2268,0.2622,0.2826,0.2826,0.2976,0.3095,0.3095,0.3015,0.2938,0.2858,0.2788,0.2887,0.3025,0.3025,0.3025,0.3025,0.282,0.2887,0.3226,0.3761,0.4295,0.4761,0.4761,0.5022,0.5346,0.5396,0.5373,0.5441,0.5896,0.6077,0.6101,0.6677,0.6745,0.6679,0.6811,0.6745,0.6679,0.7007,0.7269,0.7456,0.7652,0.7587,0.7521,0.7792,0.8117,0.8517,0.8829,0.9151,0.9356,0.9227,0.9792,1.0301,1.0555,1.1122,1.1685,1.2058,1.2552,1.292,1.3042,1.3649,1.4267,1.4602,1.4821,1.4999,1.5214,1.5597,1.5908,1.6133,1.6471,1.6593,1.6465,1.6153,1.6071,1.6173,1.5635,1.5096,1.4762,1.4643,1.4543,1.4381,1.4063,1.39,1.3935,1.3735,1.3674,-0.9924,-0.9583,-0.9548,-0.9695,-0.9072,-0.8208,-0.7028,-0.6268,-0.5732,-0.5619,-0.5017,-0.4324,-0.3678,-0.3227,-0.2785,-0.2257,-0.1709,-0.1168,-0.0812,-0.027,0.0178,0.0614,0.122,0.1628,0.1737,0.2208,0.25,0.2455,0.2675,0.2904,0.3061,0.3008,0.3242,0.3597,0.3367,0.3348,0.3592,0.3439,0.3293,0.3159,0.3159,0.3092,0.3025,0.3092,0.3226,0.3431,0.3828,0.4095,0.4228,0.4628,0.4882,0.4976,0.5246,0.5375,0.5472,0.5824,0.5832,0.5784,0.6286,0.6284,0.6086,0.6284,0.6218,0.6086,0.6342,0.6548,0.6679,0.6679,0.6942,0.7129,0.6811,0.7204,0.7792,0.8117,0.8441,0.884,0.9356,0.9728,1.011,1.0491,1.0996,1.1483,1.2104,1.2428,1.2858,1.3329,1.3511,1.3872,1.4488,1.4506,1.4736,1.5597,1.567,1.5923,1.65,1.6655,1.6714,1.6675,1.6408,1.6325,1.6383,1.6019,1.5689,1.5392,1.5252,1.5087,1.4921,1.4718,1.4756,1.4868,1.4868,1.4868,-1.0007,-0.9745,-0.9459,-0.9461,-0.8496,-0.7341,-0.6712,-0.5808,-0.5127,-0.5102,-0.475,-0.4287,-0.3629,-0.3178,-0.2642,-0.2091,-0.1493,-0.0973,-0.0619,0.0,0.0441,0.0697,0.1366,0.1835,0.1873,0.2414,0.2704,0.2669,0.2979,0.3122,0.3165,0.3275,0.3366,0.3644,0.348,0.3409,0.3632,0.3452,0.3364,0.3364,0.3364,0.336,0.3355,0.336,0.3431,0.3498,0.3828,0.4028,0.4161,0.4561,0.4827,0.4954,0.5205,0.5308,0.5438,0.5697,0.5689,0.5632,0.6056,0.5954,0.5815,0.602,0.5954,0.5815,0.602,0.6086,0.6218,0.635,0.6548,0.6679,0.6482,0.6679,0.7129,0.7661,0.7922,0.8182,0.8905,0.9408,0.9919,1.0681,1.1233,1.1697,1.219,1.2554,1.2867,1.318,1.3542,1.4031,1.4581,1.4762,1.5041,1.5663,1.5996,1.6351,1.6773,1.7096,1.7278,1.7193,1.7193,1.7127,1.6996,1.6992,1.6619,1.5889,1.5745,1.5575,1.5512,1.5323,1.5241,1.5375,1.5375,1.5483,-1.0103,-0.9892,-0.9477,-0.899,-0.779,-0.6744,-0.6622,-0.5494,-0.4488,-0.4402,-0.4289,-0.4054,-0.3552,-0.2938,-0.232,-0.1855,-0.1196,-0.0693,-0.0519,0.0173,0.0691,0.0689,0.1415,0.1865,0.194,0.2381,0.2741,0.273,0.3196,0.3392,0.3313,0.3515,0.3622,0.3551,0.3459,0.3479,0.3479,0.3398,0.336,0.3565,0.3498,0.3627,0.3823,0.3627,0.3565,0.3565,0.3894,0.4095,0.43,0.4495,0.4827,0.502,0.5153,0.5226,0.5425,0.555,0.555,0.5617,0.5756,0.569,0.5617,0.5756,0.569,0.5617,0.5756,0.5822,0.5888,0.6152,0.6284,0.635,0.6284,0.6284,0.6548,0.7129,0.7326,0.7531,0.8322,0.8969,0.9676,1.0618,1.1497,1.2183,1.235,1.2764,1.3043,1.3024,1.3614,1.4259,1.4764,1.5177,1.5476,1.579,1.6449,1.6959,1.7016,1.761,1.794,1.7784,1.793,1.788,1.7666,1.7831,1.7543,1.6636,1.6336,1.6196,1.6196,1.5873,1.5761,1.5834,1.5834,1.5951,-0.9285,-0.8922,-0.8521,-0.7958,-0.7119,-0.6369,-0.6085,-0.5145,-0.4387,-0.4223,-0.3978,-0.3725,-0.3461,-0.304,-0.2532,-0.2018,-0.1434,-0.0931,-0.0677,0.0085,0.0672,0.0659,0.1388,0.1936,0.1899,0.228,0.2488,0.2436,0.2964,0.331,0.3227,0.3438,0.367,0.3867,0.3637,0.365,0.3919,0.3766,0.3756,0.3756,0.356,0.3627,0.3823,0.3761,0.3761,0.3761,0.4095,0.4167,0.4095,0.4561,0.4827,0.4894,0.5226,0.5359,0.5425,0.5425,0.5425,0.5425,0.5425,0.5425,0.5425,0.5425,0.5425,0.5425,0.5425,0.5491,0.5491,0.5491,0.5954,0.6284,0.569,0.5954,0.6416,0.6548,0.6548,0.6876,0.8192,0.8765,0.9215,0.9612,1.1154,1.2502,1.2716,1.2952,1.3218,1.3454,1.3687,1.4049,1.459,1.4967,1.5453,1.6127,1.6618,1.7054,1.7532,1.7833,1.8008,1.794,1.8011,1.805,1.7959,1.7774,1.7909,1.8151,1.7533,1.7089,1.6938,1.6741,1.6816,1.7241,1.7086,1.7036,-0.834,-0.8055,-0.7685,-0.7252,-0.6492,-0.5716,-0.5352,-0.4518,-0.3706,-0.3299,-0.2939,-0.2681,-0.2796,-0.2311,-0.1726,-0.1298,-0.0901,-0.0493,-0.0162,0.0328,0.0652,0.0786,0.1408,0.1858,0.1813,0.2261,0.2622,0.2669,0.3039,0.3297,0.3283,0.3451,0.3474,0.3492,0.3381,0.3426,0.356,0.3627,0.3694,0.3894,0.3966,0.3966,0.4095,0.4095,0.3961,0.3823,0.4028,0.4095,0.4028,0.4495,0.4694,0.4694,0.496,0.5093,0.5093,0.5093,0.5093,0.5093,0.5093,0.5093,0.5093,0.5093,0.51,0.5166,0.5166,0.5299,0.5359,0.5093,0.5325,0.5604,0.565,0.5759,0.5954,0.6284,0.6745,0.7456,0.8974,0.9786,1.0042,0.9592,1.0982,1.2472,1.3084,1.3208,1.3447,1.3906,1.4193,1.4563,1.5167,1.556,1.6043,1.6565,1.6992,1.7366,1.7694,1.8011,1.8189,1.8197,1.8228,1.8184,1.8027,1.8142,1.8748,1.9655,1.8556,1.8093,1.8158,1.7719,1.7631,1.7802,1.7505,1.7455,-0.7459,-0.7306,-0.7017,-0.6699,-0.5953,-0.5165,-0.4729,-0.3761,-0.2896,-0.2497,-0.1976,-0.1641,-0.175,-0.1439,-0.1111,-0.0696,-0.0392,-0.0079,0.0232,0.047,0.0781,0.0904,0.1426,0.1787,0.1754,0.2257,0.2614,0.2743,0.3031,0.3209,0.3193,0.3328,0.3368,0.323,0.3226,0.3226,0.3293,0.3493,0.3694,0.4028,0.4233,0.43,0.43,0.4367,0.4228,0.4023,0.4095,0.4161,0.4161,0.4561,0.4755,0.4761,0.4761,0.4761,0.4634,0.4561,0.4561,0.4561,0.4634,0.4718,0.4748,0.4827,0.4901,0.4974,0.4925,0.4999,0.4999,0.4727,0.4792,0.505,0.5513,0.561,0.5728,0.6279,0.6958,0.7947,0.9543,1.0368,1.0583,1.0024,1.1063,1.2257,1.3142,1.3287,1.3464,1.4071,1.4551,1.5066,1.5878,1.6263,1.6669,1.706,1.7502,1.7845,1.8003,1.818,1.8342,1.8461,1.8461,1.851,1.8672,1.8839,1.9468,2.0547,1.9577,1.9078,1.9078,1.8533,1.8381,1.8381,1.8056,1.7953,-0.6849,-0.6747,-0.6598,-0.6302,-0.5526,-0.4757,-0.4423,-0.3273,-0.2199,-0.1963,-0.1311,-0.0683,-0.0532,-0.076,-0.0905,-0.0735,-0.0293,0.0,0.022,0.0586,0.0953,0.1097,0.1462,0.1754,0.1971,0.2332,0.2524,0.2253,0.2879,0.312,0.2764,0.3234,0.3435,0.3226,0.3226,0.3293,0.3498,0.3694,0.3828,0.4028,0.4233,0.43,0.43,0.4495,0.4561,0.4561,0.4561,0.4561,0.4628,0.4954,0.5087,0.502,0.4827,0.4561,0.43,0.3961,0.3889,0.3961,0.4233,0.4507,0.4746,0.4856,0.4874,0.4886,0.4753,0.4421,0.4061,0.4133,0.4437,0.4798,0.5018,0.561,0.629,0.629,0.6896,0.7964,0.9528,0.9916,1.0207,1.0896,1.1428,1.1909,1.2526,1.2879,1.3302,1.381,1.453,1.5353,1.6422,1.6826,1.7188,1.7712,1.8119,1.8414,1.8654,1.848,1.8461,1.8692,1.8711,1.9182,2.041,2.0081,2.006,2.0566,2.0508,2.0078,1.9277,1.9058,1.9039,1.9258,1.902,1.8947,-0.6001,-0.5978,-0.5875,-0.5145,-0.442,-0.3737,-0.3171,-0.2186,-0.1245,-0.0829,-0.0301,0.015,0.0508,0.0146,-0.0147,0.0073,0.0291,0.0579,0.0784,0.1009,0.1296,0.139,0.1689,0.1838,0.1944,0.2251,0.2369,0.2322,0.2622,0.2802,0.2686,0.3025,0.3159,0.3092,0.3159,0.3293,0.3498,0.3694,0.3894,0.4028,0.4361,0.4495,0.4495,0.4561,0.4628,0.4694,0.4694,0.4694,0.4628,0.4827,0.4761,0.4561,0.4628,0.4495,0.43,0.4033,0.3966,0.3976,0.4008,0.4117,0.4206,0.4298,0.4426,0.4546,0.4499,0.4428,0.418,0.4022,0.4283,0.4649,0.486,0.5166,0.564,0.6183,0.6949,0.7787,0.8932,0.9539,1.0143,1.0956,1.118,1.1552,1.2305,1.2746,1.3185,1.3912,1.4418,1.5242,1.6694,1.7181,1.7528,1.7952,1.8265,1.8544,1.8845,1.8939,1.9183,1.9659,1.9678,1.9947,2.0547,2.0411,2.0411,2.0566,2.0566,2.041,2.0098,1.9749,1.9613,1.9687,1.9341,1.9286,-0.5435,-0.5464,-0.5329,-0.4357,-0.3761,-0.3197,-0.2399,-0.1512,-0.067,-0.0146,0.0367,0.0801,0.1185,0.0975,0.0772,0.078,0.0923,0.1129,0.1247,0.1463,0.1591,0.1665,0.1805,0.1936,0.1965,0.225,0.2372,0.2351,0.2506,0.0,0.2579,0.2784,0.2861,0.2887,0.3064,0.3263,0.3498,0.3694,0.3894,0.4095,0.4495,0.4628,0.4495,0.4694,0.4761,0.4827,0.4827,0.4761,0.4761,0.4894,0.4761,0.4561,0.4561,0.4523,0.436,0.4089,0.3978,0.4018,0.3904,0.3942,0.4037,0.4035,0.4184,0.4327,0.4327,0.416,0.4055,0.3895,0.4088,0.4443,0.4801,0.4931,0.5251,0.6106,0.6949,0.7633,0.8169,0.916,1.0067,1.0743,1.1043,1.1341,1.2009,1.2452,1.2966,1.3768,1.4274,1.5284,1.7087,1.7517,1.7854,1.841,1.8745,1.8951,1.9198,1.9467,1.9812,2.0333,2.0352,2.043,2.0722,2.0644,2.0644,2.0799,2.0644,2.0644,2.0741,2.035,2.0137,2.0137,1.9844,1.9788,0.0,0.0,0.0,-0.3935,-0.3644,-0.3283,-0.2028,-0.125,-0.0545,-0.0072,0.0569,0.1178,0.1484,0.1773,0.1884,0.1403,0.1475,0.1611,0.1611,0.1834,0.1996,0.1803,0.1883,0.1973,0.2157,0.2403,0.2403,0.2219,0.2526,0.2561,0.2314,0.2449,0.2608,0.2676,0.2937,0.3197,0.3489,0.3689,0.3961,0.4295,0.4628,0.4634,0.43,0.4827,0.496,0.4827,0.4827,0.4894,0.5087,0.5087,0.5093,0.5027,0.47,0.4574,0.448,0.4062,0.3985,0.4075,0.3858,0.3999,0.4232,0.4162,0.4155,0.4077,0.4077,0.3761,0.3448,0.3682,0.3765,0.3999,0.4784,0.5018,0.5174,0.6028,0.6872,0.748,0.748,0.8703,0.9992,1.0443,1.0807,1.1267,1.18,1.2157,1.2599,1.3346,1.4145,1.5438,1.7683,1.7803,1.8087,1.914,1.9548,1.9706,1.9706,2.0039,2.0274,2.0566,2.0644,2.0741,2.0994,2.0741,2.0819,2.1225,2.0819,2.0741,2.0936,2.0741,2.0644,2.0644,2.0644,2.0644,-0.4931,0.0,0.0,0.0,0.0,0.0,-0.1689,-0.0901,-0.0191,0.0194,0.0709,0.1222,0.1562,0.1911,0.219,0.2394,0.2397,0.2271,0.2211,0.2321,0.2374,0.2122,0.2169,0.2219,0.2096,0.2236,0.2287,0.0,0.2173,0.2236,0.2119,0.2246,0.2318,0.24,0.2748,0.2943,0.2908,0.3361,0.3661,0.3786,0.4257,0.45,0.4495,0.4761,0.496,0.502,0.4894,0.4894,0.5087,0.4821,0.4698,0.4671,0.4574,0.4458,0.439,0.4123,0.3951,0.3875,0.3679,0.3696,0.3704,0.3611,0.3515,0.3534,0.3374,0.3295,0.3217,0.3295,0.353,0.3999,0.4784,0.4545,0.4311,0.5174,0.6022,0.6648,0.6648,0.7863,0.9387,1.0657,1.0818,1.0968,1.2009,1.2746,1.3273,1.3492,1.4649,1.6043,1.7763,1.794,1.8285,1.9195,1.939,1.9548,1.9784,2.0039,2.0274,2.0566,2.0741,2.0879,2.1115,2.1055,2.1113,2.1431,2.153,2.153,2.1609,2.1055,2.0819,2.0819,2.0974,2.1128,0.0,0.0,0.0,-0.3831,0.0,0.0,-0.1756,-0.0988,-0.0284,0.006,0.0539,0.107,0.1612,0.2,0.238,0.2842,0.29,0.2767,0.2635,0.2654,0.2625,0.2293,0.2245,0.2219,0.2071,0.2158,0.2148,0.2012,0.2038,0.2047,0.1992,0.2055,0.2128,0.2157,0.2506,0.2715,0.2641,0.3156,0.3467,0.3544,0.4069,0.43,0.4289,0.4694,0.4894,0.4888,0.4827,0.4894,0.496,0.4686,0.4563,0.4577,0.4415,0.4456,0.4551,0.4225,0.4073,0.4008,0.3785,0.3789,0.3776,0.3344,0.3221,0.3221,0.3142,0.2982,0.2826,0.2826,0.3061,0.337,0.3839,0.3843,0.4038,0.5022,0.5565,0.5873,0.6183,0.7334,0.8694,1.0282,1.0669,1.0956,1.1713,1.2746,1.3492,1.3492,1.4792,1.6114,1.6987,1.7655,1.8353,1.9231,1.945,1.9706,1.996,2.0274,2.0508,2.08,2.1155,2.1432,2.1727,2.175,2.1889,2.2211,2.2231,2.2231,2.2311,2.181,2.161,2.161,2.1768,2.1746,0.0,0.0,0.0,0.0,-0.3435,0.0,-0.1986,-0.1301,-0.0692,-0.028,0.0223,0.0808,0.1481,0.1882,0.2339,0.2814,0.3037,0.3051,0.2943,0.2896,0.2763,0.2332,0.2206,0.2145,0.2164,0.206,0.1949,0.1949,0.1955,0.1871,0.1811,0.1872,0.1896,0.1951,0.2265,0.2489,0.2553,0.2963,0.3213,0.348,0.3961,0.41,0.3828,0.464,0.4913,0.4645,0.4797,0.4809,0.4815,0.4585,0.456,0.4635,0.4372,0.4488,0.4737,0.4317,0.4232,0.4307,0.3917,0.3995,0.4073,0.3295,0.2982,0.2907,0.3002,0.2768,0.245,0.2515,0.251,0.2518,0.2701,0.3266,0.4146,0.5277,0.532,0.5331,0.6198,0.7002,0.794,0.9463,1.0443,1.1031,1.1117,1.2378,1.3477,1.3682,1.4744,1.5644,1.5884,1.7132,1.8353,1.9231,1.9627,1.9882,2.0156,2.0352,2.0683,2.1089,2.1648,2.2069,2.2513,2.2655,2.2859,2.3247,2.2961,2.288,2.3104,2.2757,2.2635,2.2635,2.2635,2.2413,0.0,0.0,0.0,0.0,-0.3484,0.0,-0.1955,-0.1581,-0.1285,-0.0524,0.0045,0.0569,0.0911,0.148,0.1966,0.2305,0.2524,0.2732,0.3035,0.303,0.2772,0.2254,0.2181,0.2067,0.1824,0.1776,0.1722,0.1615,0.149,0.1405,0.1416,0.1586,0.1647,0.166,0.1875,0.2083,0.2217,0.253,0.2857,0.3184,0.3524,0.3766,0.3961,0.4393,0.478,0.4992,0.4891,0.4938,0.508,0.4605,0.4544,0.4698,0.4504,0.4543,0.4578,0.4278,0.4064,0.3917,0.3843,0.337,0.2823,0.2666,0.2199,0.182,0.2545,0.2491,0.2141,0.2458,0.251,0.2715,0.3688,0.4106,0.4301,0.455,0.5044,0.5849,0.6714,0.7237,0.7787,0.878,0.9614,1.0368,1.0968,1.1922,1.3078,1.4816,1.4394,1.4528,1.6332,1.7379,1.8353,1.9231,1.9371,1.9548,1.9803,1.9942,2.0215,2.0723,2.1467,2.2063,2.2553,2.3084,2.3597,2.39,2.3762,2.3846,2.4196,2.3309,2.2941,2.3103,2.3103,2.3062,-0.4103,0.0,-0.4249,-0.3995,-0.3473,0.0,0.0,-0.1564,-0.0967,-0.0596,-0.0084,0.0432,0.0702,0.1085,0.1514,0.1914,0.2039,0.2156,0.2388,0.2537,0.2501,0.2174,0.1978,0.179,0.1706,0.1556,0.1464,0.1331,0.1211,0.1179,0.1179,0.1291,0.1403,0.1459,0.1589,0.1746,0.1926,0.2302,0.2632,0.2894,0.3338,0.3565,0.3766,0.4287,0.462,0.4821,0.4891,0.4956,0.502,0.4719,0.4593,0.4599,0.4438,0.4447,0.4462,0.4233,0.3765,0.3214,0.3682,0.3214,0.2531,0.2651,0.2104,0.1435,0.1899,0.1912,0.1729,0.1946,0.2354,0.2804,0.3459,0.3942,0.43,0.43,0.5191,0.6274,0.7097,0.7414,0.771,0.8551,0.9387,1.0143,1.0968,1.2261,1.3721,1.517,1.4882,1.5008,1.6487,1.7465,1.8273,1.8931,1.9152,1.939,1.9664,2.0039,2.0333,2.0566,2.1797,2.2605,2.2859,2.3487,2.405,2.4272,2.4237,2.4407,2.47,2.4158,2.3846,2.3867,2.3867,2.3743,-0.3825,-0.4018,-0.4132,-0.4064,-0.3288,-0.2487,0.0,0.0,0.0,-0.0632,-0.0121,0.0365,0.0563,0.0751,0.1063,0.1528,0.1564,0.1537,0.1564,0.1837,0.2018,0.1944,0.1615,0.1418,0.1526,0.1276,0.1102,0.1008,0.0972,0.0989,0.1121,0.1123,0.1179,0.1291,0.136,0.1525,0.1786,0.2135,0.2463,0.2753,0.3226,0.3498,0.3565,0.425,0.4529,0.4577,0.4886,0.4973,0.4956,0.4828,0.4715,0.4488,0.4341,0.4313,0.4307,0.4155,0.3452,0.2588,0.3292,0.3015,0.2287,0.2546,0.1975,0.1166,0.1166,0.1256,0.144,0.1464,0.2,0.2608,0.2721,0.3519,0.43,0.4389,0.5453,0.666,0.7412,0.7634,0.7974,0.8826,0.9597,1.0405,1.098,1.2555,1.4062,1.4977,1.5257,1.5673,1.6319,1.7465,1.8434,1.8772,1.9073,1.9408,1.9604,2.027,2.0742,2.082,2.2285,2.3144,2.3232,2.3927,2.442,2.4674,2.4674,2.4802,2.5123,2.5123,2.4953,2.4615,2.4615,2.4428,-0.2781,-0.3096,-0.3313,-0.231,-0.2565,-0.2748,-0.1233,0.0,-0.0911,-0.0448,0.0,0.026,0.0182,0.0,0.0,0.1005,0.1091,0.1132,0.1091,0.1084,0.1151,0.1354,0.1069,0.0909,0.0995,0.0659,0.0505,0.0738,0.0604,0.0659,0.106,0.1123,0.1179,0.1291,0.1186,0.14,0.197,0.1924,0.2238,0.2958,0.3159,0.3426,0.3761,0.4066,0.4523,0.4931,0.482,0.5011,0.52,0.483,0.4681,0.4681,0.4443,0.4142,0.3843,0.3843,0.3292,0.251,0.2588,0.2153,0.1505,0.1521,0.0897,0.018,0.018,0.0719,0.1457,0.1566,0.1614,0.1719,0.2253,0.3319,0.4389,0.4835,0.5719,0.6675,0.7672,0.8271,0.8855,0.9676,1.0562,1.1134,1.1115,1.1889,1.2866,1.4088,1.4922,1.5423,1.5506,1.7691,1.9134,1.9231,1.9311,1.9311,1.9311,2.0461,2.1307,2.1738,2.2617,2.3319,2.3667,2.4186,2.465,2.515,2.515,2.5337,2.582,2.582,2.5581,2.5126,2.5126,2.5084,-0.236,-0.2578,-0.2802,-0.2038,-0.2012,-0.1951,-0.1141,0.0,-0.0257,-0.0206,0.0,0.0,0.0,0.0,0.0,0.0,0.0962,0.1022,0.1002,0.0782,0.0698,0.0918,0.0724,0.0,0.0289,0.0084,0.0,0.0048,0.0234,0.0436,0.0649,0.0762,0.0879,0.0953,0.0972,0.1169,0.1561,0.1927,0.2308,0.2759,0.3205,0.3493,0.3828,0.4147,0.441,0.4592,0.4781,0.4914,0.4935,0.4779,0.4623,0.454,0.4311,0.4077,0.3773,0.3443,0.2999,0.2627,0.2698,0.2176,0.1441,0.1476,0.1024,0.0465,0.0744,0.1117,0.1498,0.155,0.1553,0.1643,0.2259,0.3046,0.4021,0.4848,0.5542,0.6222,0.708,0.799,0.8878,0.9644,1.0835,1.1815,1.2326,1.2661,1.3198,1.4282,1.5257,1.5922,1.6087,1.7546,1.8754,1.9231,1.9292,1.9574,2.0379,2.0667,2.1313,2.2493,2.2949,2.3319,2.3754,2.4257,2.4764,2.5233,2.5482,2.5778,2.6055,2.6055,2.6046,2.6019,2.5756,2.5581,-0.1785,0.0,0.0,0.0,0.0,0.0,0.0,0.0,0.0,0.0,0.0269,0.0,0.0,0.0,0.0,0.0,0.0,0.0828,0.0818,0.0472,0.0346,0.0602,0.0347,0.0037,0.0,-0.0464,-0.0526,-0.0401,-0.0087,0.0137,0.0423,0.0533,0.0649,0.0728,0.0861,0.1114,0.1371,0.187,0.2311,0.2741,0.3197,0.356,0.3823,0.4167,0.4293,0.4297,0.4587,0.4715,0.4623,0.458,0.4511,0.4353,0.4068,0.3918,0.3687,0.3265,0.2997,0.2725,0.2745,0.2079,0.1194,0.1244,0.1066,0.0775,0.0969,0.1158,0.1248,0.1257,0.1378,0.1703,0.2116,0.2833,0.3658,0.4576,0.5255,0.5997,0.6701,0.7816,0.8931,0.9602,1.0921,1.2209,1.3052,1.3391,1.3831,1.4587,1.5492,1.6252,1.6812,1.7546,1.8273,1.9073,1.9231,1.9765,2.0837,2.0957,2.1587,2.2999,2.3242,2.3525,2.3754,2.4384,2.4954,2.5399,2.5834,2.6214,2.6522,2.6522,2.6634,2.6816,2.6271,2.6055,0.0,0.0,0.0,-0.0509,0.0,0.0,0.0,0.0,0.0177,0.0,0.0,0.0,0.0,0.0,0.0,0.0,0.0,0.0,0.0,0.0042,0.0,0.044,-0.0066,-0.0511,-0.0658,-0.103,-0.101,-0.0352,-0.0475,-0.0207,0.0632,0.0692,0.0757,0.0897,0.1011,0.1332,0.1783,0.1727,0.216,0.3021,0.3159,0.3426,0.3823,0.4167,0.4293,0.4297,0.4297,0.4343,0.4394,0.4259,0.4223,0.4151,0.3827,0.3692,0.3684,0.3553,0.3183,0.2758,0.2399,0.1566,0.0766,0.0797,0.0806,0.0706,0.0202,0.0298,0.0489,0.0501,0.1091,0.1568,0.1607,0.2573,0.3671,0.4003,0.505,0.6133,0.6897,0.8009,0.9061,0.9854,1.0895,1.1929,1.2613,1.3789,1.4629,1.4727,1.5492,1.6417,1.7237,1.7708,1.821,1.8692,1.9073,1.9531,2.0099,2.1183,2.2244,2.3018,2.3713,2.4018,2.3774,2.4865,2.5603,2.5854,2.631,2.6765,2.722,2.722,2.7315,2.7295,2.6767,2.6615,0.0,0.0,-0.0823,-0.0269,0.0,0.0,0.0,0.0,0.0,0.0,0.0,0.0,0.0,0.0,0.0,0.0,0.0,0.0,0.0,-0.0238,-0.0527,-0.0503,-0.0815,-0.1109,-0.1355,-0.1657,-0.165,-0.1196,-0.0933,-0.0482,0.0197,0.0406,0.0627,0.0867,0.0943,0.1147,0.1555,0.1893,0.2265,0.2749,0.3064,0.3426,0.3823,0.3894,0.4082,0.4297,0.4225,0.4269,0.4394,0.4263,0.4227,0.4155,0.4001,0.3733,0.3521,0.3333,0.3172,0.2869,0.2169,0.1585,0.1149,0.0885,0.07,0.0505,0.0505,0.0502,0.05,0.0605,0.1004,0.1399,0.1512,0.2286,0.3123,0.3788,0.4823,0.5888,0.6575,0.7916,0.9069,0.9777,1.0982,1.2186,1.3052,1.4068,1.4741,1.4908,1.559,1.6335,1.6894,1.7546,1.821,1.8612,1.9073,1.9839,2.1165,2.2178,2.2843,2.3038,2.3281,2.3683,2.4283,2.4957,2.5584,2.6074,2.6525,2.6832,2.6784,2.6784,2.6784,2.6784,2.6763,2.69,0.0247,-0.008,0.0,0.0207,0.0065,0.0,0.0314,0.0,0.0331,0.0,0.0,0.0,0.0,0.0,0.0,0.0,0.0,0.0,0.0,-0.0729,-0.1088,-0.1021,-0.126,-0.1523,-0.1723,-0.2097,-0.206,-0.1505,-0.121,-0.0732,0.0046,0.0344,0.0564,0.0798,0.0992,0.1197,0.153,0.1943,0.2377,0.2645,0.3053,0.336,0.3694,0.3866,0.4052,0.4225,0.4191,0.4227,0.4321,0.4142,0.4112,0.4125,0.3998,0.3819,0.3598,0.3396,0.3141,0.274,0.1938,0.1509,0.1149,0.0787,0.04,0.0202,0.0404,0.0303,0.0202,0.0404,0.0808,0.1112,0.1314,0.2,0.2961,0.3697,0.4656,0.5752,0.6581,0.7916,0.9235,0.9941,1.1154,1.2443,1.3222,1.4153,1.4824,1.5159,1.5824,1.6417,1.6812,1.7546,1.821,1.8692,1.9254,2.0216,2.1759,2.2486,2.2969,2.3057,2.3281,2.3673,2.4306,2.4997,2.5551,2.602,2.6465,2.6688,2.6496,2.6496,2.6496,2.6496,2.6709,2.688]},{"header":{"parameterUnit":"m.s-1","parameterCategory":1,"la1":30.6,"la2":29.2853,"lo1":-89.7004,"lo2":-87.6739,"dy":0.0162,"dx":0.0183,"nx":112,"ny":82,"refTime":"2023-03-16T00:00:00:Z","depth":0,"parameterNumber":3,"parameterNumberName":"V-component_of_WINDS"},"data":[0.0,0.0,0.0,0.0,0.0,0.0,0.0,0.0,0.0,0.0,0.0,0.0,0.0,0.0,0.0,0.0,0.0,0.0,0.0,0.0,0.0,0.0,0.0,0.0,0.0,0.0,0.0,0.0,0.0,0.0,0.0,0.0,0.0,0.0,0.0,0.0,0.0,0.0,0.0,0.0,0.0,0.0,0.0,0.0,0.0,0.0,0.0,0.0,0.0,0.0,0.0,0.0,0.0,0.0,0.0,0.0,0.0,0.0,0.0,0.0,0.0,0.0,0.0,0.0,0.0,0.0,0.0,0.0,0.0,0.0,0.0,0.0,0.0,0.0,0.0,0.0,0.0,0.0,0.0,0.0,0.0,0.0,0.0,0.0,0.0,0.0,0.0,0.0,0.0,0.0,-1.6134,-1.7033,-1.5879,-1.436,-1.274,-1.0831,-0.817,-0.4437,0.0,0.0,0.0,0.0,0.0,0.0,0.0,0.0,0.0,0.0,0.0,0.0,0.0,0.0,0.0,0.0,0.0,0.0,0.0,0.0,0.0,0.0,0.0,0.0,0.0,0.0,0.0,0.0,0.0,0.0,0.0,0.0,0.0,0.0,0.0,0.0,0.0,0.0,0.0,0.0,0.0,0.0,0.0,0.0,0.0,0.0,0.0,0.0,0.0,0.0,0.0,0.0,0.0,0.0,0.0,0.0,0.0,0.0,0.0,0.0,0.0,0.0,0.0,0.0,0.0,0.0,0.0,0.0,0.0,0.0,0.0,0.0,0.0,0.0,0.0,0.0,0.0,0.0,0.0,0.0,0.0,0.0,0.0,0.0,0.0,0.0,0.0,0.0,0.0,0.0,0.0,0.0,0.0,0.0,0.0,0.0,0.0,0.0,0.0,0.0,0.0,0.0,0.0,0.0,-1.4565,-1.5448,-1.4713,-1.3524,-1.1833,-0.9552,-0.7453,-0.5616,0.0,0.0,0.0,0.0,0.0,0.0,0.0,0.0,0.0,0.0,0.0,0.0,0.0,0.0,0.0,0.0,0.0,0.0,0.0,0.0,0.0,0.0,0.0,0.0,0.0,0.0,0.0,0.0,0.0,0.0,0.0,0.0,0.0,0.0,0.0,0.0,0.0,0.0,0.0,0.0,0.0,0.0,0.0,0.0,0.0,0.0,0.0,0.0,0.0,0.0,0.0,0.0,0.0,0.0,0.0,0.0,0.0,0.0,0.0,0.0,0.0,0.0,0.0,0.0,0.0,0.0,0.0,0.0,0.0,0.0,0.0,0.0,0.0,0.0,0.0,0.0,0.0,0.0,0.0,0.0,0.0,0.0,0.0,0.0,0.0,0.0,0.0,0.0,0.0,0.0,0.0,0.0,0.0,0.0,0.0,0.0,0.0,0.0,0.0,0.0,0.0,0.0,0.0,-1.3634,-1.4071,-1.4518,-1.3847,-1.285,-1.1596,-0.9114,-0.6894,-0.5196,-0.4509,0.0,0.0,0.0,0.0,0.0,0.0,0.0,0.0,0.0,0.0,0.0,0.0,0.0,0.0,0.0,0.0,0.0,0.0,0.0,0.0,0.0,0.0,0.0,0.0,0.0,0.0,0.0,0.0,0.0,0.0,0.0,0.0,0.0,0.0,0.0,0.0,0.0,0.0,0.0,0.0,0.0,0.0,0.0,0.0,0.0,0.0,0.0,0.0,0.0,0.0,0.0,0.0,0.0,0.0,0.0,0.0,0.0,0.0,0.0,0.0,0.0,0.0,0.0,0.0,0.0,0.0,0.0,0.0,0.0,0.0,0.0,0.0,0.0,0.0,0.0,0.0,0.0,0.0,0.0,0.0,0.0,0.0,0.0,0.0,0.0,0.0,0.0,0.0,0.0,0.0,0.0,0.0,0.0,0.0,0.0,0.0,0.0,0.0,0.0,0.0,0.0,0.0,-1.3781,-1.3903,-1.3741,-1.2968,-1.2065,-1.099,-0.875,-0.6568,-0.468,-0.3686,0.0,0.0,0.0,0.0,0.0,0.0,0.0,0.0,0.0,0.0,0.0,0.0,0.0,0.0,0.0,0.0,0.0,0.0,0.0,0.0,0.0,0.0,0.0,0.0,0.0,0.0,0.0,0.0,0.0,0.0,0.0,0.0,0.0,0.0,0.0,0.0,0.0,0.0,0.0,0.0,0.0,0.0,0.0,0.0,0.0,0.0,0.0,0.0,0.0,0.0,0.0,0.0,0.0,0.0,0.0,0.0,0.0,0.0,0.0,0.0,0.0,0.0,0.0,0.0,0.0,0.0,0.0,0.0,0.0,0.0,0.0,0.0,0.0,0.0,0.0,0.0,0.0,0.0,0.0,0.0,0.0,0.0,0.0,0.0,0.0,0.0,0.0,0.0,0.0,0.0,0.0,0.0,0.0,0.0,0.0,0.0,0.0,0.0,0.0,0.0,0.0,0.0,-1.3513,-1.3772,-1.2964,-1.2108,-1.0921,-0.931,-0.8086,-0.6628,-0.4795,-0.3767,0.0,0.0,0.0,0.0,0.0,0.0,0.0,0.0,0.0,0.0,0.0,0.0,0.0,0.0,0.0,0.0,0.0,0.0,0.0,0.0,0.0,0.0,0.0,0.0,0.0,0.0,0.0,0.0,0.0,0.0,0.0,0.0,0.0,0.0,0.0,0.0,0.0,0.0,0.0,0.0,0.0,0.0,0.0,0.0,0.0,0.0,0.0,0.0,0.0,0.0,0.0,0.0,0.0,0.0,0.0,0.0,0.0,0.0,0.0,0.0,0.0,0.0,0.0,0.0,0.0,0.0,0.0,0.0,0.0,0.0,0.0,0.0,0.0,0.0,0.0,0.0,0.0,0.0,0.0,0.0,0.0,0.0,0.0,0.0,0.0,0.0,0.0,0.0,0.0,0.0,0.0,0.0,0.0,0.0,0.0,0.0,0.0,0.0,0.0,0.0,0.0,0.0,-1.2612,-1.2852,-1.207,-1.1717,-1.1007,-0.9863,-0.8319,-0.6911,-0.5757,0.0,0.0,0.0,0.0,0.0,0.0,0.0,0.0,0.0,0.0,0.0,0.0,0.0,0.0,0.0,0.0,0.0,0.0,0.0,0.0,0.0,0.0,0.0,0.0,0.0,0.0,0.0,0.0,0.0,0.0,0.0,0.0,0.0,0.0,0.0,0.0,0.0,0.0,0.0,0.0,0.0,0.0,0.0,0.0,0.0,0.0,0.0,0.0,0.0,0.0,0.0,0.0,0.0,0.0,0.0,0.0,0.0,0.0,0.0,0.0,0.0,0.0,0.0,0.0,0.0,0.0,0.0,0.0,0.0,0.0,0.0,0.0,0.0,0.0,0.0,0.0,0.0,0.0,0.0,0.0,0.0,0.0,0.0,0.0,0.0,0.0,0.0,0.0,0.0,0.0,0.0,0.0,0.0,0.0,0.0,0.0,0.0,0.0,0.0,0.0,0.0,0.0,-1.1305,-1.1902,-1.207,-1.1562,-1.1015,-1.035,-0.9484,-0.7919,-0.6606,-0.5668,0.0,0.0,0.0,0.0,0.0,0.0,0.0,0.0,0.0,0.0,0.0,0.0,0.0,0.0,0.0,0.0,0.0,0.0,0.0,0.0,0.0,0.0,0.0,0.0,0.0,0.0,0.0,0.0,0.0,0.0,0.0,0.0,0.0,0.0,0.0,0.0,0.0,0.0,0.0,0.0,0.0,0.0,0.0,0.0,0.0,0.0,0.0,0.0,0.0,0.0,0.0,0.0,0.0,0.0,0.0,0.0,0.0,0.0,0.0,0.0,0.0,0.0,0.0,0.0,0.0,0.0,0.0,0.0,0.0,0.0,0.0,0.0,0.0,0.0,0.0,0.0,0.0,0.0,0.0,0.0,0.0,0.0,0.0,0.0,0.0,0.0,0.0,0.0,0.0,0.0,0.0,0.0,0.0,0.0,0.0,0.0,0.0,0.0,0.0,0.0,0.0,0.0,-1.1157,-1.1483,-1.1586,-1.1479,-0.9999,-0.8672,-0.7812,-0.6728,-0.5538,0.0,0.0,0.0,0.0,0.0,0.0,0.0,0.0,0.0,0.0,0.0,0.0,0.0,0.0,0.0,0.0,0.0,0.0,0.0,0.0,0.0,0.0,0.0,0.0,0.0,0.0,0.0,0.0,0.0,0.0,0.0,0.0,0.0,0.0,0.0,0.0,0.0,0.0,0.0,0.0,0.0,0.0,0.0,0.0,0.0,0.0,0.0,0.0,0.0,0.0,0.0,0.0,0.0,0.0,0.0,0.0,0.0,0.0,0.0,0.0,0.0,0.0,0.0,0.0,0.0,0.0,0.0,0.0,0.0,0.0,0.0,0.0,0.0,0.0,0.0,0.0,0.0,0.0,0.0,0.0,0.0,0.0,0.0,0.0,0.0,0.0,0.0,0.0,0.0,0.0,0.0,0.0,0.0,0.0,0.0,0.0,0.0,0.0,0.0,0.0,0.0,0.0,0.0,-1.0386,-1.1091,-1.1278,-1.0572,-1.0062,-0.9649,-0.9348,-0.7848,-0.6649,-0.5985,0.0,0.0,0.0,0.0,0.0,0.0,0.0,0.0,0.0,0.0,0.0,0.0,0.0,0.0,0.0,0.0,0.0,0.0,0.0,0.0,0.0,0.0,0.0,0.0,0.0,0.0,0.0,0.0,0.0,0.0,0.0,0.0,0.0,0.0,0.0,0.0,0.0,0.0,0.0,0.0,0.0,0.0,0.0,0.0,0.0,0.0,0.0,0.0,0.0,0.0,0.0,0.0,0.0,0.0,0.0,0.0,0.0,0.0,0.0,0.0,0.0,0.0,0.0,0.0,0.0,0.0,0.0,0.0,0.0,0.0,0.0,0.0,0.0,0.0,0.0,0.0,0.0,0.0,0.0,0.0,0.0,0.0,0.0,0.0,0.0,0.0,0.0,0.0,0.0,0.0,0.0,0.0,0.0,0.0,0.0,0.0,0.0,0.0,0.0,0.0,0.0,0.0,-0.9001,-0.9598,-0.9726,-0.912,-0.8998,-0.8937,-0.8887,-0.7536,-0.6607,-0.6433,0.0,0.0,0.0,0.0,0.0,0.0,0.0,0.0,0.0,0.0,0.0,0.0,0.0,0.0,0.0,0.0,0.0,0.0,0.0,0.0,0.0,0.0,0.0,0.0,0.0,0.0,0.0,0.0,0.0,0.0,0.0,0.0,0.0,0.0,0.0,0.0,0.0,0.0,0.0,0.0,0.0,0.0,0.0,0.0,0.0,0.0,0.0,0.0,0.0,0.0,0.0,0.0,0.0,0.0,0.0,0.0,0.0,0.0,0.0,0.0,0.0,0.0,0.0,0.0,0.0,0.0,0.0,0.0,0.0,0.0,0.0,0.0,0.0,0.0,0.0,0.0,0.0,0.0,0.0,0.0,0.0,0.0,0.0,0.0,0.0,0.0,0.0,0.0,0.0,0.0,0.0,0.0,0.0,0.0,0.0,0.0,0.0,0.0,0.0,0.0,0.0,0.0,-0.7372,-0.7553,-0.7584,-0.7602,-0.7408,-0.7344,-0.7424,-0.648,-0.5985,-0.6214,0.0,0.0,0.0,0.0,0.0,0.0,0.0,0.0,0.0,0.0,0.0,0.0,0.0,0.0,0.0,0.0,0.0,0.0,0.0,0.0,0.0,0.0,0.0,0.0,0.0,0.0,0.0,0.0,0.0,0.0,0.0,0.0,0.0,0.0,0.0,0.0,0.0,0.0,0.0,0.0,0.0,0.0,0.0,0.0,0.0,0.0,0.0,0.0,0.0,0.0,0.0,0.0,0.0,0.0,0.0,0.0,0.0,0.0,0.0,0.0,-0.0293,-0.1941,0.0,0.0,0.0,0.0,0.0,0.0,0.0,0.0,0.0,0.0,0.0,0.0,0.0,0.0,0.0,0.0,0.0,0.0,0.0,0.0,0.0,0.0,0.0,0.0,0.0,0.0,0.0,0.0,0.0,0.0,0.0,0.0,0.0,0.0,0.0,0.0,0.0,0.0,0.0,0.0,-0.7378,-0.7459,-0.7669,-0.8228,-0.8156,-0.8365,-0.9113,-0.7615,-0.7008,-0.7818,-0.566,0.0,0.0,0.0,0.0,0.0,0.0,0.0,0.0,0.0,0.0,0.0,0.0,0.0,0.0,0.0,0.0,0.0,0.0,0.0,0.0,0.0,0.0,0.0,0.0,0.0,0.0,0.0,0.0,0.0,0.0,0.0,0.0,0.0,0.0,0.0,0.0,0.0,0.0,0.0,0.0,0.0,0.0,0.0,0.0,0.0,0.0,0.0,0.0,0.0,0.0,0.0,0.0,0.0,0.0,0.0,0.0,0.0,0.0,0.0,0.0833,-0.0597,0.0,0.0,0.0,0.0,0.0,0.0,0.0,0.0,0.0,0.0,0.0,0.0,0.0,0.0,0.0,0.0,0.0,0.0,0.0,0.0,0.0,0.0,0.0,0.0,0.0,0.0,0.0,0.0,0.0,0.0,0.0,0.0,0.0,0.0,0.0,0.0,0.0,0.0,0.0,0.0,-0.6055,-0.6092,-0.6168,-0.6447,-0.701,-0.7416,-0.7586,-0.7346,-0.7286,-0.7508,-0.6015,0.0,0.0,0.0,0.0,0.0,0.0,0.0,0.0,0.0,0.0,0.0,0.0,0.0,0.0,0.0,0.0,0.0,0.0,0.0,0.0,0.0,0.0,0.0,0.0,0.0,0.0,0.0,0.0,0.0,0.0,0.0,0.0,0.0,0.0,0.0,0.0,0.0,0.0,0.0,0.0,0.0,0.0,0.0,0.0,0.0,0.0,0.0,0.0,0.0,0.0,0.0,0.0,0.0,0.4314,0.4026,0.4212,0.3255,0.2949,0.31,0.1986,0.0932,-0.0037,-0.0541,0.0,0.0,0.0,0.0,0.0,0.0,0.0,0.0,0.0,0.0,0.0,0.0,0.0,0.0,0.0,0.0,0.0,0.0,0.0,0.0,0.0,0.0,0.0,0.0,0.4822,0.5826,0.4414,0.0,0.0,0.0,0.0,0.0,0.0,0.0,0.0,0.0,0.0,0.0,-0.4692,-0.4668,-0.4692,-0.4751,-0.5651,-0.6084,-0.5709,-0.6631,-0.7113,-0.6833,-0.6196,-0.5532,0.0,0.0,0.0,0.0,0.0,0.0,0.0,0.0,0.0,0.0,0.0,0.0,0.0,0.0,0.0,0.0,0.0,0.0,0.0,0.0,0.0,0.0,0.0,0.0,0.0,0.0,0.0,0.0,0.0,0.0,0.0,0.0,1.2429,1.4755,0.0,0.0,0.0,0.0,0.0,0.0,0.0,0.0,0.0,0.0,0.0,0.0,0.0,0.6609,0.5684,0.6178,0.596,0.5034,0.5871,0.5317,0.365,0.4587,0.4433,0.3437,0.3206,0.0,-0.0024,-0.0393,0.0,0.0,0.0,0.0,0.0,0.0,0.0,0.0,0.0,0.0,0.0,0.0,0.0,0.0,0.0,0.0,0.0,0.0,0.0,0.0,0.0,0.0,0.6878,0.6715,0.6833,0.6748,0.0,0.5799,0.5584,0.4772,0.5281,0.0,0.0,0.0,0.0,0.0,0.0,0.0,-0.5029,-0.5012,-0.5395,-0.6521,-0.6281,-0.6342,-0.7063,-0.656,-0.6593,-0.7571,-0.5994,-0.5189,-0.5467,-0.2965,0.0,0.0,0.0,0.0,0.0,0.0,0.0,0.0,0.0,0.0,0.0,0.0,0.0,0.0,0.0,0.0,0.0,0.0,0.0,0.0,0.0,0.0,0.0,0.0,0.0,0.0,0.0,0.0,0.0,1.2182,1.4693,1.5612,1.6547,1.6815,0.0,0.0,0.0,0.0,0.0,0.0,0.0,0.0,0.0,0.9363,0.9185,0.8589,0.752,0.7351,0.7092,0.6729,0.6565,0.6227,0.574,0.5516,0.5148,0.4683,0.486,0.3836,0.2031,0.1475,0.0712,-0.0193,0.0,0.0,0.0,0.0,-0.0677,-0.002,0.0819,0.1499,0.211,0.2756,0.0,0.0,0.0,0.0,0.0,0.0,0.0,0.0,0.0,0.0,0.7935,0.7388,0.7495,0.7447,0.6374,0.6036,0.5726,0.0,0.4805,0.4308,0.2816,0.0,0.0,0.0,0.0,-0.3551,-0.4263,-0.397,-0.3851,-0.4203,-0.4397,-0.4412,-0.4275,-0.5249,-0.5788,-0.5571,-0.5388,-0.5197,-0.4935,-0.2846,-0.1135,0.0,0.0,0.0,0.0,0.0,0.0,0.0,0.0,0.0,0.0,0.0,0.0,0.0,0.0,0.0,0.0,0.0,0.0,0.0,0.0,0.0,0.0,0.0,0.0,0.0,0.0,0.0,0.0,1.4245,1.6418,1.6705,1.8039,1.8578,0.0,0.0,0.0,0.0,0.0,0.0,1.4089,1.3743,1.2953,1.1638,1.1242,1.0511,0.9452,0.8617,0.8186,0.8209,0.7193,0.6956,0.7372,0.659,0.6181,0.6069,0.5818,0.5023,0.384,0.3118,0.2374,0.1677,0.1284,0.1097,0.1012,0.0846,0.1135,0.1682,0.2322,0.2867,0.3359,0.3827,0.4172,0.4563,0.5334,0.0,0.0,0.0,0.0,0.7136,0.7566,0.8286,0.8743,0.8033,0.8198,0.8172,0.6861,0.6527,0.6218,0.0,0.4362,0.3619,0.3234,0.0,0.0,-0.1284,-0.2037,-0.2716,-0.3431,-0.2954,-0.2536,-0.2441,-0.2705,-0.2593,-0.1868,-0.3727,-0.4523,-0.3521,-0.4533,-0.4835,-0.4152,-0.2888,-0.1648,-0.0474,0.0,0.0,0.0,0.0,0.0,0.0,0.0,0.0,0.0,0.0,0.0,0.0,0.0,0.0,0.0,0.0,0.0,0.0,0.0,0.0,0.0,0.0,0.0,0.0,0.0,0.0,0.0,0.0,0.0,1.9023,1.9581,0.0,0.0,0.0,0.0,1.6913,1.6785,1.6504,1.5883,1.5351,1.4755,1.4041,1.3173,1.2094,1.0912,0.9771,0.8999,0.8585,0.8065,0.7589,0.714,0.8055,0.8069,0.7286,0.5417,0.4522,0.4391,0.3668,0.315,0.2837,0.3065,0.2996,0.2736,0.2489,0.2731,0.3219,0.3453,0.4126,0.4968,0.544,0.5919,0.6412,0.671,0.6868,0.0,0.0,0.787,0.8523,0.8609,0.9228,0.9813,0.971,0.9544,0.9091,0.7899,0.7863,0.7568,0.0,0.4551,0.3648,0.3191,0.0,0.0689,-0.0409,-0.098,-0.1703,-0.2876,-0.2572,-0.2507,-0.3264,-0.2411,-0.1779,-0.1806,-0.2336,-0.2631,-0.2578,-0.3405,-0.3741,-0.3371,-0.2983,-0.2079,-0.0612,-0.0102,0.0,0.0,0.0,0.0,0.0,0.0,0.0,0.0,0.0,0.0,0.0,0.0,0.0,0.0,0.0,0.0,0.0,0.0,0.0,0.0,0.0,0.0,0.0,0.0,0.0,0.0,0.0,0.0,1.9427,2.01,0.0,1.998,1.9895,1.9546,1.8683,1.8669,1.8383,1.7626,1.6937,1.6174,1.5391,1.4027,1.296,1.2179,1.0931,1.0324,1.0325,0.9328,0.8845,0.8782,0.884,0.8494,0.7871,0.7646,0.6972,0.6144,0.679,0.5715,0.3626,0.3349,0.3195,0.3284,0.4295,0.4521,0.4347,0.4885,0.5275,0.5621,0.616,0.6901,0.7627,0.7764,0.8213,0.8686,0.8752,0.9095,0.9419,0.9419,0.9656,0.9882,0.9831,0.9692,0.9393,0.8687,0.8445,0.8076,0.692,0.5413,0.4278,0.4149,0.2443,0.0946,0.0476,-0.0102,-0.0808,-0.167,-0.1124,-0.068,-0.0759,-0.0126,0.0408,0.069,0.0043,-0.0505,-0.0802,-0.161,-0.2203,-0.2517,-0.2134,-0.1474,-0.0551,-0.0034,0.0829,0.0,0.0,0.0,0.0,0.0,0.0,0.0,0.0,0.0,0.0,0.0,0.0,0.0,0.0,0.0,0.0,0.0,0.0,0.0,0.0,0.0,0.0,0.0,0.0,0.0,1.8441,1.9809,2.0069,2.0781,2.1063,2.0642,2.0868,2.0711,2.0017,2.0014,1.9741,1.919,1.8144,1.7272,1.6775,1.5145,1.3995,1.3405,1.2198,1.1574,1.1572,1.0521,0.9985,0.9878,0.9686,0.9224,0.8648,0.9183,0.8881,0.8003,0.8913,0.7918,0.5733,0.4979,0.4645,0.4682,0.5477,0.5642,0.558,0.6422,0.675,0.6901,0.7406,0.8085,0.8723,0.8774,0.9235,0.9691,0.9705,0.9807,0.9941,0.9914,0.993,0.9941,0.9898,0.9807,0.9596,0.9155,0.901,0.8707,0.7749,0.5946,0.4522,0.4395,0.2595,0.1198,0.118,0.0756,0.0259,-0.0226,0.0427,0.0955,0.1014,0.1657,0.2203,0.2476,0.1817,0.1274,0.1054,0.0186,-0.0464,-0.0767,-0.0959,-0.0762,-0.0111,0.0405,0.1185,0.2234,0.0,0.0,0.0,0.0,0.0,0.0,0.0,0.0,0.0,0.0,0.0,0.0,0.0,0.0,0.0,0.0,0.0,0.0,0.0,0.0,0.0,0.0,0.0,1.8623,1.9942,2.0955,2.1108,2.1667,2.1693,2.0911,2.1558,2.1693,2.0784,2.0684,2.0575,2.0525,1.8929,1.8098,1.8223,1.6633,1.5376,1.4642,1.3498,1.2688,1.2135,1.161,1.1021,1.039,1.0637,1.0363,0.9698,0.9882,0.99,0.9787,0.9721,0.9517,0.9119,0.8061,0.7439,0.7021,0.599,0.6133,0.6982,0.7969,0.8545,0.8878,0.9215,0.949,0.9703,0.9788,0.9862,0.9886,0.9919,0.9967,1.0015,1.0063,1.0087,1.0094,1.0105,0.9982,0.9761,0.9337,0.9594,0.9497,0.8182,0.6154,0.443,0.3867,0.2516,0.1559,0.175,0.1661,0.0,0.138,0.1995,0.2237,0.1706,0.271,0.339,0.3336,0.2874,0.2676,0.2885,0.188,0.143,0.1784,0.0437,0.0013,0.0744,0.1206,0.1856,0.2714,0.0,0.0,0.0,0.0,0.0,0.0,0.0,0.0,0.0,0.0,0.0,0.0,0.0,0.0,0.0,0.0,0.0,0.0,0.0,0.0,0.0,1.8862,1.9936,2.024,2.1029,2.1545,2.1592,2.1824,2.189,2.1693,2.2066,2.209,2.1513,2.1278,2.098,2.079,1.9725,1.8967,1.8712,1.7462,1.6239,1.5126,1.4353,1.3718,1.3244,1.2682,1.2383,1.2378,1.203,1.1813,1.1692,1.1331,1.0739,0.9995,0.9961,0.9735,0.935,0.8807,0.8514,0.835,0.7904,0.7919,0.8217,0.8661,0.8994,0.9287,0.9529,0.9699,0.9868,0.9914,0.9992,1.0058,1.0046,1.009,1.0125,1.0105,1.0101,1.0098,1.0105,0.9987,0.9876,0.9865,0.9882,0.9688,0.8906,0.7907,0.6852,0.5835,0.4454,0.3462,0.3318,0.3414,0.0,0.2428,0.2734,0.2996,0.2912,0.3646,0.4148,0.4178,0.4247,0.3978,0.316,0.2922,0.2499,0.1824,0.1545,0.1578,0.1918,0.226,0.2558,0.0,0.0,0.0,0.0,0.0,0.0,0.0,0.0,0.0,0.0,0.0,0.0,0.0,0.0,0.0,0.0,0.0,0.0,0.0,0.0,0.0,0.0,2.0349,2.137,2.1867,2.2038,2.2123,2.217,2.2263,2.231,2.231,2.2449,2.2489,2.2454,2.1833,2.1485,2.1596,2.0471,1.9642,1.9219,1.8435,1.7389,1.6069,1.5452,1.488,1.4379,1.3756,1.342,1.3374,1.3016,1.2769,1.2566,1.2247,1.1907,1.1465,1.0831,1.0219,0.0,0.0,0.0,0.0,0.0,0.8918,0.9015,0.9128,0.9322,0.9544,0.9743,0.9914,1.0011,1.0079,1.0101,1.015,1.0138,1.0158,1.021,1.0155,1.0144,1.0135,1.0154,1.0063,1.0067,1.0125,1.0051,0.9882,0.9568,0.8916,0.0,0.8012,0.6413,0.518,0.5156,0.5197,0.4866,0.3949,0.4437,0.459,0.378,0.4558,0.5035,0.4764,0.4879,0.0,0.0,0.0,0.3579,0.2518,0.2571,0.0,0.0,0.0,0.2876,0.3205,0.0,0.0,0.0,0.089,0.0361,0.0,0.0,0.0,0.0,0.0,0.0,0.0,0.0,0.0,0.0,0.0,0.0,0.0,0.0,0.0,0.0,2.1694,2.2566,2.3303,2.3038,2.2768,2.274,2.2785,2.2785,2.274,2.2785,2.2965,2.3304,2.233,2.1979,2.2635,2.1279,0.0,0.0,0.0,1.8625,1.7174,1.6536,1.5956,1.5352,1.4733,1.4219,1.3772,1.3847,1.353,1.2972,1.2989,1.3242,1.3585,1.227,1.1114,1.0136,0.9607,0.9403,0.9376,0.9263,0.9301,0.9421,0.9433,0.0,0.0,0.9972,1.0048,1.0128,1.0174,1.0217,1.0217,1.0312,1.0353,1.0388,1.0468,1.0498,1.0453,1.0375,1.0352,1.0331,1.0236,1.0138,1.0128,1.0127,0.9451,0.9144,0.9993,0.8192,0.6755,0.707,0.6917,0.6502,0.5721,0.654,0.6439,0.4544,0.0,0.0,0.5179,0.4979,0.4989,0.5078,0.5015,0.4557,0.3605,0.3533,0.3295,0.2787,0.2739,0.3013,0.3614,0.3606,0.349,0.329,0.1587,0.1045,0.0,0.0,0.0,0.0,0.0,0.0,0.0,0.0,0.0,0.0,0.0,0.0,0.0,0.0,0.0,2.2028,2.26,2.3275,2.3987,2.3897,2.3566,2.3216,2.3231,2.3231,2.3172,2.3348,2.3523,2.3696,2.2747,2.2443,2.3064,2.2084,2.1111,2.0186,2.0222,1.9359,1.7506,1.6853,1.6246,1.5709,0.0,0.0,1.48,1.4864,1.4887,1.4786,1.4786,1.4854,1.4922,1.4574,1.3196,1.1167,0.9995,0.9514,0.9474,0.9386,0.9447,0.9571,0.9693,0.981,0.9949,1.0093,1.0169,1.0181,1.0253,1.0296,0.0,1.112,1.1317,1.147,1.2115,1.2304,1.2139,1.1438,1.1247,1.1058,1.0343,1.0188,1.0171,1.0175,1.0042,0.9966,1.0233,0.9165,0.8291,0.8329,0.8417,0.8091,0.714,0.7282,0.7093,0.5981,0.6164,0.6013,0.5176,0.5059,0.503,0.5039,0.5003,0.4867,0.461,0.436,0.4118,0.39,0.3687,0.3594,0.3689,0.3634,0.3563,0.3439,0.2862,0.2214,0.0,0.0,0.0,0.0,0.0,0.0,0.0,0.0,0.0,0.0,0.0,2.0575,2.1118,0.0,2.3337,2.3658,2.4111,2.4562,2.4792,2.4735,2.441,2.3867,2.3782,2.3782,2.3782,2.3867,2.3884,2.3754,2.304,2.2726,2.2929,2.2361,2.1522,2.0429,2.0638,1.9967,1.8302,1.7709,1.7185,1.6799,1.6101,1.5536,1.5157,1.5202,1.5288,1.5352,1.5362,1.5359,1.5306,1.4798,1.3615,1.2063,1.1375,1.0507,0.964,0.9596,0.9668,0.9782,0.9876,0.997,1.0083,1.0195,1.0214,1.022,1.0271,1.0312,1.039,1.082,1.0937,1.1131,1.1944,1.2132,1.216,1.2139,1.2141,1.2027,1.1589,1.1512,1.149,1.1519,1.1165,1.0895,1.0885,1.0078,0.9451,0.94,0.9489,0.919,0.8237,0.8573,0.8423,0.7134,0.7021,0.6707,0.5838,0.5339,0.5074,0.5039,0.5053,0.4976,0.4816,0.4603,0.4394,0.4151,0.3906,0.3745,0.3637,0.3543,0.3431,0.3298,0.3135,0.2707,0.0,0.0,0.0,0.0,0.0,0.0,0.0,1.9732,1.9891,2.0416,2.1277,2.2145,2.2988,2.4182,2.5045,2.5045,2.5502,2.5779,2.5631,2.5443,2.5208,2.4695,2.4534,2.4482,2.4451,2.4616,2.4521,2.4144,2.3474,2.3088,2.3091,2.2642,2.1902,2.0859,2.1001,2.0532,1.9335,1.8624,1.8118,1.7873,1.7051,1.6247,1.5564,1.5387,1.5546,1.5906,1.5724,1.5643,1.5584,1.4659,1.3764,1.2985,1.2912,1.1839,1.0385,1.0368,1.0266,1.0191,1.0255,1.0319,1.0404,1.0502,1.0624,1.0703,1.0778,1.0775,1.0814,1.1009,1.1012,1.1171,1.2031,1.2263,1.2372,1.2835,1.3029,1.3027,1.2988,1.2909,1.2837,1.2811,1.2147,1.1562,1.1506,1.0761,1.017,1.0135,1.0169,0.9903,0.9142,0.9719,0.9615,0.8077,0.7934,0.7516,0.6507,0.5617,0.5116,0.5117,0.5101,0.4997,0.4769,0.4652,0.4445,0.4153,0.3927,0.3774,0.3626,0.3474,0.3339,0.3225,0.3136,0.2918,2.2831,2.2697,2.2717,2.3046,2.2706,2.2431,0.0,2.2701,2.2285,2.2955,2.3424,2.3814,2.4225,2.5057,2.5698,2.5698,2.6117,2.6385,2.6314,2.6066,2.5917,2.5811,2.5822,2.5589,2.5123,2.5672,2.5926,2.5524,2.4508,2.4046,2.4384,2.35,2.2729,2.2131,2.1728,2.1187,2.0441,1.9125,1.8343,1.8127,1.7217,1.6806,1.6831,1.5852,1.623,1.768,1.6904,1.6545,1.6486,1.554,1.4676,1.3931,1.3881,1.3262,1.245,1.2343,1.184,1.1227,1.1297,1.1359,1.1367,1.1363,1.1865,1.2523,1.2519,1.252,1.2678,1.3461,1.3508,1.3553,1.4687,1.496,1.4721,1.3741,1.3743,1.3901,1.3665,1.3238,1.2888,1.2886,1.2185,1.1562,1.1511,1.0766,1.0214,1.0181,1.0147,1.0083,0.9971,1.0063,0.976,0.8858,0.8835,0.8193,0.6554,0.5583,0.5117,0.5117,0.5051,0.4995,0.4968,0.4731,0.4489,0.4291,0.4089,0.3884,0.3693,0.3432,0.3447,0.3719,0.346,0.3018,2.7322,2.6491,2.5663,2.6015,2.559,2.5032,2.4836,2.4427,2.4111,2.4372,2.4779,2.5227,2.5527,2.6298,2.7078,2.7592,2.7816,2.7833,2.7703,2.7538,2.7233,2.6791,2.7021,2.6755,2.5807,2.6003,2.6052,2.5679,2.4908,2.4347,2.4281,2.3613,2.2975,2.2416,2.1898,2.1393,2.0796,1.9849,1.9353,1.9292,1.904,1.8625,1.8052,1.76,1.7616,1.7968,1.7617,1.7459,1.7378,1.6474,1.5924,1.5568,1.5025,1.4602,1.4174,1.3097,1.248,1.2225,1.2266,1.2219,1.2191,1.2226,1.2486,1.2826,1.3176,1.302,1.2909,1.3627,1.352,1.3409,1.4394,1.4638,1.4644,1.4645,1.4764,1.4844,1.4726,1.4492,1.4336,1.4336,1.3241,1.2296,1.2269,1.1084,1.0125,1.0154,1.0105,1.0094,1.0067,1.0083,0.98,0.898,0.8947,0.8304,0.6548,0.6521,0.6172,0.5154,0.5983,0.6046,0.5,0.5331,0.5188,0.4431,0.4564,0.4507,0.4224,0.3959,0.3915,0.4075,0.3589,0.3181,3.0637,2.9627,2.8606,2.8897,2.8137,2.7194,2.6616,2.6176,2.5869,2.5841,2.6249,2.6626,2.6842,2.7606,2.8428,2.9112,2.9337,2.9319,2.8921,2.8701,2.8359,2.7617,2.7785,2.7633,2.6724,2.669,2.6488,2.6075,2.5373,2.478,2.4497,2.3839,2.335,2.2986,2.2482,2.1919,2.129,2.0706,2.0307,2.0135,2.0305,2.0029,1.9289,1.9293,1.8943,1.8344,1.8351,1.8316,1.8278,1.7382,1.6914,1.664,1.5976,1.5584,1.5231,1.3944,1.3354,1.3143,1.3141,1.3106,1.3044,1.3094,1.3241,1.3457,1.3899,1.374,1.347,1.393,1.3778,1.3626,1.4267,1.444,1.4571,1.5243,1.541,1.5419,1.5387,1.5386,1.5384,1.5382,1.4166,1.3136,1.3128,1.1847,1.071,1.0445,1.0434,1.0328,1.0049,1.0072,0.989,0.9303,0.9093,0.8485,0.7211,0.7458,0.7148,0.5893,0.6955,0.6986,0.5657,0.5985,0.5859,0.5163,0.5111,0.507,0.4983,0.4635,0.4535,0.4644,0.398,0.3732,3.1903,3.139,3.1155,3.131,3.008,2.8795,2.8841,2.8254,2.7637,2.7732,2.8015,2.8265,2.8074,2.8881,2.9584,2.9665,3.0287,3.042,2.9582,2.9298,2.8891,2.8164,2.8037,2.7982,2.7954,2.8053,2.7839,2.7215,2.612,2.5517,2.5648,2.4577,2.4019,2.4136,2.3694,2.307,2.2274,2.1646,2.0966,2.0217,2.0322,2.0465,2.0547,2.0546,2.007,1.9275,1.9188,1.9151,1.9081,1.8215,1.7394,1.6696,1.661,1.6052,1.5296,1.5235,1.4678,1.3976,1.3943,1.3926,1.3871,1.3865,1.4458,1.5113,1.5134,1.5139,1.5139,1.5144,1.5211,1.5237,1.5276,1.526,1.5287,1.5387,1.5387,1.539,1.5407,1.541,1.5371,1.533,1.4625,1.4017,1.3899,1.3165,1.23,1.1304,1.1222,1.0967,1.0129,1.0054,1.0121,1.0169,0.9421,0.8894,0.8938,0.8162,0.7695,0.7608,0.7623,0.7536,0.7413,0.6573,0.6338,0.6804,0.568,0.5397,0.5971,0.5437,0.5292,0.5529,0.4942,0.4791,3.5375,3.4555,3.3319,3.2835,3.2186,3.1357,3.0165,2.9629,2.9222,2.8572,2.8561,2.8583,2.8326,2.9097,3.0057,3.0771,3.1462,3.1846,3.1581,3.1465,3.0902,2.9559,2.9414,2.9145,2.851,2.8195,2.8006,2.7847,2.6588,2.59,2.608,2.4855,2.4211,2.4388,2.3289,2.264,2.2483,2.129,2.0564,2.0326,2.0409,2.0497,2.0547,2.0537,2.0358,2.0091,2.0068,2.0065,1.9974,1.9121,1.8614,1.8289,1.7641,1.7223,1.6886,1.6319,1.5851,1.5459,1.4964,1.4739,1.4673,1.4629,1.4865,1.514,1.514,1.5114,1.5133,1.5145,1.5168,1.5229,1.5234,1.5226,1.5259,1.5263,1.5295,1.5323,1.5326,1.5326,1.5326,1.5316,1.4578,1.3942,1.3903,1.3163,1.2456,1.211,1.1146,1.033,1.0025,1.0058,1.0097,1.0147,0.9914,0.9554,0.8989,0.9253,0.8945,0.7769,0.871,0.877,0.7555,0.765,0.7292,0.6263,0.6597,0.6434,0.58,0.5966,0.6,0.5894,0.5083,0.476,3.8133,3.707,3.5594,3.5068,3.4165,3.297,3.15,3.0817,3.021,2.9005,2.8939,2.8961,2.847,2.9279,3.0357,3.1407,3.2232,3.2723,3.2748,3.2748,3.2207,3.088,3.0733,3.0354,2.9428,2.9075,2.8737,2.8327,2.7259,2.6522,2.6388,2.5333,2.4723,2.4586,2.3761,2.3244,2.314,2.1845,2.1101,2.0914,2.0642,2.0664,2.0968,2.064,2.0497,2.0495,2.0511,2.05,2.043,1.9852,1.9454,1.9081,1.8457,1.803,1.7677,1.7112,1.6833,1.6674,1.5888,1.5561,1.5506,1.5483,1.5483,1.5483,1.5163,1.5064,1.504,1.5068,1.5127,1.5153,1.5165,1.5195,1.519,1.5201,1.5241,1.5272,1.528,1.5272,1.5259,1.5279,1.4761,1.4359,1.4335,1.3545,1.2945,1.2918,1.1756,1.0749,1.0462,1.0221,1.0063,1.0105,1.0128,0.9931,0.9399,0.9953,0.9804,0.8668,0.9604,0.9655,0.8436,0.8532,0.8173,0.7175,0.7458,0.7328,0.673,0.6912,0.6837,0.6545,0.5693,0.522,4.0179,3.893,3.7763,3.7987,3.5892,3.3649,3.2948,3.1931,3.0664,2.9025,2.9144,2.9295,2.8452,2.938,3.0599,3.163,3.2575,3.3134,3.3111,3.3156,3.2903,3.2061,3.1905,3.1526,3.0605,3.0531,2.9959,2.8648,2.8044,2.7398,2.6633,2.6117,2.5539,2.4894,2.4981,2.4755,2.4109,2.3234,2.2499,2.1876,2.1047,2.1055,2.1754,2.095,2.0533,2.0504,2.0517,2.0454,2.0388,2.0398,1.9903,1.9149,1.9102,1.8513,1.7731,1.7691,1.7674,1.7568,1.6781,1.6445,1.6375,1.6375,1.632,1.6143,1.5299,1.5033,1.5003,1.5057,1.5095,1.5092,1.5145,1.5178,1.5177,1.5185,1.519,1.519,1.5193,1.5178,1.519,1.5189,1.5177,1.5153,1.5117,1.4342,1.375,1.375,1.3017,1.215,1.1327,1.0548,1.0058,1.0085,1.0098,1.0141,1.0181,1.026,1.0273,1.0189,1.0191,1.0122,1.0024,0.9187,0.8947,0.9364,0.8329,0.8021,0.8538,0.8115,0.7724,0.738,0.672,0.6141,4.2543,4.1025,3.9135,3.844,3.6928,3.5098,3.3223,3.1978,3.075,2.8915,2.8699,2.8724,2.8235,2.9892,3.1413,3.1793,3.3237,3.4282,3.4261,3.4325,3.4024,3.3114,3.306,3.2439,3.0876,3.0747,3.037,2.9386,2.8548,2.8031,2.7905,2.6718,2.6004,2.5984,2.4836,2.4197,2.4184,2.342,2.2948,2.2756,2.2538,2.2224,2.1782,2.1558,2.1095,2.0517,2.0464,2.0404,2.041,2.0341,2.0192,2.0003,1.9926,1.9704,1.9383,1.8688,1.8431,1.8374,1.8165,1.7709,1.7177,1.7122,1.6725,1.6186,1.5959,1.5421,1.5043,1.5712,1.5456,1.5093,1.5825,1.5506,1.5078,1.5113,1.5133,1.5146,1.5108,1.5127,1.5114,1.5018,1.4933,1.4913,1.4968,1.477,1.4573,1.4581,1.3879,1.2835,1.1409,1.1053,1.0744,1.0087,1.0075,1.0122,1.018,1.0247,1.027,1.0195,1.0217,1.0163,1.0067,0.9758,0.9329,0.8733,0.8898,0.8552,0.7699,0.8051,0.7835,0.7178,0.6696,0.6253,4.4364,4.2759,4.0941,3.9878,3.8057,3.5864,3.3518,3.2071,3.051,2.8035,2.8015,2.825,2.7709,2.9552,3.1489,3.2393,3.3518,3.4507,3.5244,3.5095,3.4679,3.4109,3.4071,3.3524,3.2127,3.1675,3.1148,3.0302,2.9364,2.8746,2.8495,2.7333,2.6574,2.6414,2.5214,2.4452,2.4232,2.3867,2.3681,2.3661,2.3281,2.3041,2.2914,2.2533,2.1882,2.1074,0.0,2.0743,2.0392,2.0301,2.0258,2.0257,2.0173,2.0108,1.9972,1.9437,1.9265,1.9282,1.9222,1.893,1.8486,1.8115,1.7641,1.7206,1.6818,1.6346,1.6063,1.6554,1.6328,1.6074,1.6649,1.642,1.6113,1.613,1.6162,1.6193,1.6193,1.5849,1.5438,1.4947,1.4831,1.4832,1.4823,1.4794,1.4804,1.4859,1.4454,1.3718,1.2414,1.1984,1.1512,1.0713,1.0643,1.0525,1.0212,1.0236,1.0226,1.0194,1.0186,1.0183,1.0161,1.0051,0.9681,0.9071,0.936,0.9089,0.8244,0.8482,0.8281,0.7664,0.7262,0.6884,4.5798,4.4173,4.2699,4.155,3.916,3.6386,3.3876,3.2099,3.013,2.7105,2.7369,2.7882,2.7184,2.8955,3.116,3.3081,3.3601,3.4338,3.616,3.559,3.5039,3.5097,3.4927,3.451,3.3601,3.2808,3.1977,3.111,3.0245,2.9454,2.8822,2.7949,2.7089,2.6293,2.5736,2.5127,2.4501,2.4557,2.4588,2.4564,2.3828,2.3782,2.4362,2.3634,2.2792,2.1956,2.1905,2.1396,2.0573,2.045,2.0318,2.0208,2.0117,2.0058,2.0007,1.9974,2.0001,1.999,1.9896,1.9884,1.9756,1.9087,1.8736,1.8478,1.7778,1.7434,1.7326,1.7444,1.7359,1.731,1.7514,1.749,1.7454,1.7463,1.7539,1.7575,1.7564,1.6911,1.6082,1.5273,1.5142,1.5123,1.4915,1.4868,1.4868,1.4803,1.4812,1.457,1.3856,1.313,1.2382,1.1613,1.1556,1.128,1.0605,1.0421,1.0373,1.0386,1.0268,1.0201,1.0215,1.0125,1.0038,0.9848,0.9763,0.9617,0.9359,0.9148,0.8827,0.84,0.8,0.7636,4.6596,4.506,4.3538,4.2133,3.9847,3.7217,3.4358,3.1978,2.9848,2.7821,2.7566,2.7736,2.7804,2.9368,3.125,3.3023,3.3639,3.4708,3.7127,3.6115,3.5408,3.606,3.5473,3.4715,3.3823,3.2952,3.2117,3.1314,3.0478,2.9969,2.9747,2.8436,2.6995,2.5636,2.5575,2.549,2.5399,2.5442,2.5461,2.5467,2.531,2.4951,2.4401,2.4227,2.3699,2.2859,2.2819,0.0,2.1449,2.1381,2.0889,2.0208,2.0069,1.999,1.9974,1.993,1.9884,1.9811,1.9813,1.9801,1.9775,1.9649,1.9134,1.8569,1.8384,1.7825,1.7427,1.8099,1.7742,1.731,1.8102,1.7776,1.7277,1.7321,1.7342,1.7353,1.7336,1.7171,1.7004,1.6887,1.6799,1.6507,1.5796,1.5753,1.554,1.483,1.4813,1.4831,1.4698,1.3977,1.3183,1.2402,1.2369,1.2353,1.2277,1.1679,1.1289,1.1266,1.0663,1.0269,1.0217,1.0189,1.0141,1.0059,0.9982,0.9838,0.9638,0.9433,0.9039,0.848,0.8127,0.7807,4.7241,4.6041,4.4868,4.2858,4.0385,3.7651,3.4379,3.2087,2.9928,2.73,2.7269,2.7664,2.7629,2.9324,3.1352,3.3164,3.3729,3.483,3.7441,3.6731,3.6058,3.6463,3.6124,3.5534,3.4661,3.3767,3.2928,3.2088,3.1278,3.0629,3.0151,2.8657,2.7084,2.549,2.555,2.5595,2.5593,2.5676,2.5694,2.5699,2.5703,2.5461,2.5063,2.5088,2.4599,2.3755,2.3713,2.3159,2.2333,2.2269,2.1927,2.1502,2.1377,2.1086,2.069,2.0611,2.0274,1.9861,1.9825,1.9801,1.9776,1.9763,1.9476,1.915,1.9114,1.884,1.8578,1.8964,1.8739,1.8477,1.8964,1.8802,1.8515,1.8528,1.8552,1.8402,1.7978,1.788,1.7756,1.7284,1.7151,1.6991,1.6534,1.6532,1.6295,1.5391,1.537,1.5271,1.4916,1.4538,1.4031,1.3245,1.3244,1.3113,1.2745,1.2365,1.2126,1.2185,1.1395,1.0897,1.0898,1.0422,1.0166,1.0166,1.0138,1.0025,0.9795,0.9679,0.9421,0.9023,0.8695,0.8416,4.7785,4.6941,4.6124,4.3715,4.1172,3.8295,3.469,3.2446,3.0289,2.7186,2.7256,2.7807,2.7671,2.9265,3.1261,3.3298,3.3696,3.4795,3.7785,3.7302,3.6765,3.7149,3.6826,3.6335,3.5653,3.4604,3.3723,3.3043,3.2081,3.1111,3.0023,2.867,2.7254,2.581,2.5651,2.5605,2.5636,2.5676,2.5691,2.5697,2.5703,2.5698,2.5689,2.5715,2.5347,2.4654,2.4607,2.4051,2.3185,2.3118,2.2936,2.271,2.262,2.2185,2.1559,2.1479,2.1053,2.0413,2.0327,2.0327,2.0289,2.0223,1.9961,1.9688,1.9686,1.962,1.9602,1.9564,1.9587,1.955,1.9555,1.9609,1.9636,1.9647,1.9636,1.9449,1.8776,1.8677,1.8454,1.7745,1.7609,1.7559,1.7309,1.7311,1.7077,1.6176,1.5989,1.57,1.5102,1.4945,1.4695,1.4114,1.4106,1.3827,1.3011,1.2812,1.2646,1.2518,1.169,1.1236,1.1238,1.0545,1.0273,1.0462,1.0485,1.0407,1.0244,1.0139,0.9925,0.9544,0.9242,0.9024,4.8116,4.769,4.709,4.4665,4.2319,3.964,3.5924,3.323,3.0967,2.8888,2.8372,2.8442,2.8686,2.9377,3.0767,3.3363,3.3295,3.4386,3.8569,3.7723,3.7262,3.8854,3.7586,3.6581,3.6504,3.4979,3.4006,3.3973,3.2532,3.0979,2.9378,2.8463,2.7605,2.6715,2.5979,2.5628,2.5707,2.5685,2.5697,2.5702,2.57,2.5694,2.5693,2.5718,2.5665,2.557,2.5527,2.4935,0.0,2.3999,2.3501,2.2785,2.2651,2.255,2.2467,2.2424,2.2287,2.2161,2.2031,2.1976,2.1971,2.1898,2.0891,1.9686,1.9643,1.9615,1.9602,1.9536,1.9479,1.9435,1.9485,1.9479,1.9435,1.9516,1.9493,1.9405,1.9419,1.9368,1.9294,1.9206,1.9257,1.9021,1.8218,1.8148,1.7879,1.7027,1.6323,1.587,1.5807,1.5263,1.4877,1.482,1.492,1.468,1.3843,1.3109,1.2374,1.1682,1.0795,1.0338,1.0316,1.025,1.0569,1.1353,1.1365,1.1365,1.1353,1.1216,1.0686,0.9757,0.9471,0.9304,4.7359,4.7967,4.8461,4.5649,4.2484,3.8958,3.4725,3.2932,3.1427,2.9018,2.8567,2.8748,2.9126,2.9607,3.063,3.2768,3.2582,3.3467,3.7334,3.6807,3.6665,3.844,3.8003,3.7359,3.6832,3.6138,3.5136,3.3619,3.1984,3.0762,3.0131,2.924,2.8427,2.7684,2.7323,2.7195,2.7183,2.6732,2.6472,2.6479,2.5937,2.5699,2.5693,2.5683,2.5665,2.5636,2.56,2.535,0.0,2.4927,2.4666,2.4312,2.4203,2.3831,2.3305,2.3271,2.2868,2.2388,2.2284,2.2215,2.2196,2.2137,2.1593,2.1012,2.1004,2.0988,2.0877,2.0314,2.012,2.0047,1.9627,1.945,1.9405,1.942,1.942,1.942,1.942,1.945,1.945,1.942,1.945,1.9361,1.8956,1.8941,1.8689,1.7808,1.7496,1.7164,1.6692,1.6447,1.6334,1.6317,1.5548,1.4926,1.4667,1.432,1.4047,1.374,1.2891,1.244,1.2502,1.198,1.1879,1.2204,1.2278,1.2023,1.1483,1.1469,1.0953,1.0024,0.98,0.9644,4.7301,4.8562,4.9102,4.5455,4.1807,3.8069,3.4403,3.2912,3.1662,2.9367,2.8955,2.9089,2.9475,2.9834,3.0553,3.2146,3.2235,3.3137,3.6134,3.6477,3.6848,3.8086,3.8446,3.8125,3.7007,3.6687,3.5681,3.3625,3.2164,3.131,3.1096,3.0203,2.9369,2.8607,2.8316,2.8217,2.8236,2.7666,2.7247,2.6983,2.6366,2.5936,2.5696,2.5685,2.5665,2.5632,2.56,2.5544,0.0,2.5437,2.5369,2.5273,2.522,2.482,2.4205,2.4132,2.3727,2.3132,2.3051,2.298,2.2944,2.2846,2.2752,2.2671,2.2637,2.2271,2.1705,2.1103,2.0919,2.0809,2.0289,2.0142,2.0089,2.0126,1.9926,1.9743,1.9743,1.9589,1.9442,1.9375,1.9405,1.9405,1.9298,1.9375,1.9236,1.8552,1.8365,1.8064,1.7509,1.7311,1.7132,1.6881,1.5913,1.5223,1.5095,1.4818,1.4584,1.4397,1.3816,1.352,1.3595,1.2983,1.2809,1.3066,1.3118,1.2839,1.2236,1.1991,1.1439,1.0558,1.017,0.991,4.8504,4.9505,4.8806,4.385,4.0197,3.7398,3.5749,3.3553,3.1562,3.0308,2.9731,2.9495,2.9829,3.0066,3.0522,3.153,3.2497,3.3699,3.5472,3.719,3.8267,3.8296,3.8996,3.8802,3.7063,3.6102,3.525,3.4468,3.3635,3.2818,3.2043,3.1151,3.032,2.9518,2.8645,2.8236,2.8285,2.8298,2.7837,2.6983,2.6991,2.6523,2.57,2.5687,2.571,2.5691,2.5644,2.5556,0.0,2.5445,2.5378,2.5303,2.5214,2.5198,2.518,2.5107,2.5044,2.4926,2.4731,2.4676,2.4666,2.4513,2.4462,2.4445,2.4375,2.3123,2.1696,2.1678,2.1678,2.1696,2.1678,2.173,2.1799,2.1784,2.1126,2.0486,2.0503,1.9863,1.9282,1.9282,1.9292,1.9308,1.9298,1.9344,1.939,1.9286,1.8669,1.8181,1.8176,1.7546,1.6755,1.5892,1.5913,1.5734,1.5047,1.4206,1.3394,1.2597,1.2522,1.2535,1.2605,1.2609,1.2997,1.386,1.3908,1.3917,1.3961,1.3158,1.2332,1.1484,1.0604,1.0045,4.5805,4.5108,4.3054,3.8118,3.6717,3.5805,3.2903,3.2318,3.1701,2.9307,2.9308,2.9623,2.9289,2.987,3.1268,3.3931,3.4207,3.5077,3.7957,3.8382,3.8602,3.9185,3.944,3.915,3.8024,3.659,3.5387,3.4606,3.3759,3.316,3.2882,3.2116,3.1265,3.0414,3.0117,2.9979,2.9998,2.9416,2.9001,2.8783,2.8162,2.7734,2.7457,2.6862,2.6574,2.6474,2.5878,2.555,2.5483,2.5412,2.5332,2.5214,2.522,2.5153,2.5107,2.507,2.4953,2.4842,2.4738,2.466,2.4634,2.4534,2.4447,2.4339,2.4284,2.3897,2.3327,2.2703,2.2118,2.1678,2.1625,2.1643,2.166,2.1679,2.1514,2.1312,2.1312,2.1146,2.1016,2.0946,2.0506,2.0104,2.0054,1.9632,1.9266,1.9214,1.9072,1.8934,1.8956,1.8851,1.8424,1.7596,1.7052,1.6228,1.4954,1.4651,1.4422,1.416,1.4144,1.4168,1.4242,1.4256,1.4398,1.4692,1.4755,1.4525,1.3923,1.3718,1.315,1.2292,1.1483,1.101,4.0244,3.9629,3.8007,3.4843,3.4381,3.4081,3.1709,3.157,3.1309,2.8891,2.9019,2.9461,2.9121,2.9583,3.0983,3.3779,3.4412,3.5383,3.7816,3.8867,3.9714,4.0616,3.9809,3.8976,3.8478,3.7172,3.5951,3.5111,3.4276,3.3667,3.3334,3.2527,3.1714,3.0818,3.0789,3.0806,3.0785,3.0278,2.986,2.9604,2.906,2.8633,2.8278,2.7721,2.7468,2.7324,2.6461,2.6055,0.0,2.5558,2.5322,2.5241,2.5198,2.5168,2.507,2.5031,2.4926,2.4827,2.4723,2.4682,2.4564,2.45,2.4357,2.4247,2.419,2.417,2.4024,2.3432,2.2921,2.2557,2.2482,2.2501,2.2538,2.2538,2.2337,2.2173,2.2191,2.197,2.1804,2.1732,2.1312,2.0819,2.0509,1.9984,1.9514,1.9206,1.9182,1.9214,1.9198,1.9308,1.9074,1.8249,1.7739,1.6978,1.5704,1.5129,1.486,1.4859,1.4859,1.4895,1.4963,1.4957,1.4989,1.5049,1.5106,1.4871,1.4347,1.4077,1.3524,1.2686,1.2191,1.1937,0.0,3.3928,3.3931,3.3744,3.3019,3.2195,3.1784,3.1241,0.0,2.9036,2.8871,2.911,2.9443,2.9511,3.016,3.2143,3.3822,3.5178,3.6059,3.9006,4.1416,4.2226,4.0214,3.8715,3.8598,3.7806,3.6929,3.5974,3.5146,3.4353,3.3535,3.2737,3.1893,3.1109,3.1008,3.0941,3.0794,3.0799,3.0413,2.9677,2.9684,2.9257,2.8475,2.842,2.8356,0.0,2.7351,2.6909,0.0,2.5846,2.5418,2.5301,2.5225,2.5144,2.507,2.5004,2.4964,2.4856,2.4745,2.465,2.4547,2.4447,2.4284,2.4191,2.4095,2.3996,2.3878,2.3816,2.3915,2.3976,2.3935,2.3996,2.4112,2.4112,2.3507,2.3014,2.3052,2.2501,2.1951,2.1951,2.1879,2.1551,2.0799,2.0458,2.0045,1.9321,1.9123,1.907,1.9019,1.912,1.8859,1.7975,1.8009,1.7738,1.6968,1.5586,1.4807,1.4887,1.4822,1.4823,1.4895,1.4895,1.4959,1.5085,1.5071,1.5072,1.5085,1.4276,1.3533,1.2854,1.2819,1.2775,3.3944,0.0,3.3564,3.237,3.1356,3.062,0.0,3.035,2.9883,2.8415,2.8745,2.9718,3.1098,3.1398,3.2655,3.6294,3.7286,3.8121,3.963,4.1117,4.1908,4.1457,4.1395,4.0916,3.9602,3.8694,3.7825,3.6923,3.6072,3.5494,3.5299,3.4535,3.3955,3.3712,3.3119,3.2157,3.0794,3.0799,3.0728,3.0581,3.0585,3.0507,3.027,2.9552,2.9218,2.9156,2.8201,2.7446,2.6776,2.6455,2.5909,2.5301,2.5248,2.5168,2.507,2.4966,2.4884,2.4821,2.4682,2.4584,2.45,2.4303,2.4172,2.4036,2.3976,2.3996,2.4016,2.3935,2.3878,2.3935,2.3837,2.3878,2.3955,2.3955,2.387,2.3819,2.378,2.3673,2.3527,2.3488,2.2938,2.2409,2.2282,2.1134,2.0174,2.0029,1.9485,1.907,1.9019,1.9067,1.8826,1.8,1.7907,1.7612,1.6827,1.6004,1.5536,1.557,1.504,1.4765,1.4813,1.4832,1.5104,1.5743,1.5772,1.5488,1.4965,1.4135,1.4029,1.4533,1.3915,1.3605,3.4203,3.3665,3.3077,3.362,3.2277,3.1059,3.1707,3.0753,2.9381,2.8187,2.8412,2.9246,3.0622,3.1532,3.3253,3.6742,3.7951,3.9394,4.1925,4.2354,4.2354,4.2286,4.2309,4.168,3.9964,3.9379,3.8555,3.7303,3.6762,3.6143,3.5403,3.4554,3.3895,3.3457,3.2622,3.1965,3.1409,3.1385,3.1237,3.0892,3.0898,3.0898,3.0896,3.0331,3.0111,3.0048,2.9096,2.8417,2.7947,2.7412,2.691,2.6436,2.6359,2.6072,2.564,2.5522,2.5196,2.4791,2.4666,2.4534,2.4394,2.421,2.4095,2.3976,2.3878,2.3878,2.3955,2.3873,2.3894,2.3878,2.3816,2.3915,2.3996,2.3955,2.4016,2.4112,2.4075,2.4132,2.4132,2.4056,2.3611,2.3151,2.2785,2.185,2.1032,2.0673,1.9936,1.9416,1.9379,1.9094,1.8751,1.8304,1.8285,1.8158,1.774,1.7089,1.6534,1.6274,1.5907,1.5744,1.5766,1.5461,1.5503,1.5935,1.6324,1.6319,1.5932,1.5177,1.5077,1.5543,1.478,1.4444,3.412,3.3918,3.359,3.5416,3.4073,3.2597,3.3485,3.1532,2.9295,2.8592,2.8524,2.8962,3.022,3.1672,3.3586,3.6348,3.8096,4.0153,4.3266,4.3188,4.2954,4.3461,4.2954,4.1896,4.017,3.9745,3.9009,3.7518,3.7171,3.6395,3.4952,3.4062,3.3249,3.2505,3.1655,3.1496,3.2108,3.1973,3.1552,3.0889,3.0898,3.0897,3.0897,3.0836,3.0806,3.0779,0.0,0.0,2.9303,2.8309,2.7893,2.7813,2.7585,2.7026,2.63,2.6228,2.5612,2.4791,2.4629,2.4462,2.4284,2.4153,2.4056,2.3996,2.3858,2.3816,2.3795,2.3789,2.3852,2.3878,2.3837,2.3976,2.4112,2.4016,2.4056,2.4132,2.417,2.417,2.4151,2.4056,2.3976,2.3656,2.2937,2.2539,2.2054,2.1327,2.0519,2.0002,2.0002,1.944,1.9052,1.9052,1.9107,1.9126,1.9182,1.8449,1.7782,1.7255,1.7036,1.6885,1.6885,1.646,1.6163,1.6034,1.6818,1.7213,1.7172,1.6544,1.6259,1.6243,1.5708,1.5423,3.3665,3.6633,3.7986,3.4279,3.4155,3.4469,3.2627,3.1321,3.0475,3.0399,3.0403,3.1315,3.4345,3.5179,3.647,3.9784,4.1159,4.2264,4.3525,4.422,4.4099,4.274,4.3127,4.2807,4.109,3.9568,3.8588,3.8307,3.698,3.6083,3.581,3.4963,3.4456,3.4293,3.3448,3.2712,3.2124,3.1431,3.1007,3.0894,3.0898,3.0897,3.0895,3.0827,3.0798,3.0779,0.0,3.0086,2.935,2.8393,2.7943,2.7806,2.7017,2.6541,2.6378,2.6233,2.5603,2.4783,2.4596,2.4462,2.4376,2.4229,2.4134,2.4056,2.3935,2.3837,2.3795,2.3795,2.3837,2.3935,2.3976,2.4036,2.4112,2.4112,2.4075,2.4112,2.4036,2.3996,2.3935,2.3858,2.3816,2.3759,2.3623,2.2983,2.2416,2.221,2.1447,2.0921,2.0901,2.0773,2.0646,2.0661,2.0598,2.0576,2.0598,1.987,1.9341,1.9275,1.774,1.6826,1.6803,1.73,1.7315,1.6661,1.743,1.7596,1.7015,1.6966,1.6988,1.7019,1.6972,1.6949,3.2156,3.4973,3.6838,3.5174,3.6006,3.6978,3.6074,3.4226,3.2753,3.2783,3.2834,3.3484,3.5506,3.7077,3.9029,4.2017,4.2841,4.34,4.427,4.4344,4.3993,4.318,4.3024,4.2516,4.1231,4.0374,3.9513,3.8606,3.7825,3.7006,3.6069,3.5174,3.4471,3.4003,3.3151,3.2294,3.1474,3.1088,3.0896,3.0898,3.0857,3.0852,3.0847,3.082,3.0793,3.0818,0.0,3.0482,3.0017,2.9041,2.8627,2.851,2.7566,2.6859,2.6301,2.5698,2.5167,2.4738,2.4596,2.4497,2.443,2.4266,2.4172,2.4205,2.4506,2.4632,2.4725,2.5184,2.4652,2.3976,2.3996,2.4092,2.4151,2.4132,2.4132,2.4151,2.4132,2.4036,2.3996,2.3935,2.3852,2.3768,2.3696,2.3263,2.2901,2.281,2.2046,2.152,2.1429,2.1065,2.0762,2.0718,2.0718,2.0775,2.0797,2.046,1.9963,1.9279,1.836,1.7704,1.7282,1.8041,1.8093,1.7327,1.8172,1.8453,1.8177,1.7808,1.7641,1.7657,1.7349,1.7209,3.1012,3.3069,3.5077,3.6329,3.7712,3.8942,3.9377,3.7356,3.5452,3.5632,3.558,3.5744,3.6616,3.8926,4.1354,4.3361,4.4025,4.4532,4.5207,4.4742,4.4159,4.3735,4.3112,4.2295,4.1205,4.0931,4.0189,3.8702,3.8428,3.7608,3.6087,3.5187,3.429,3.3434,3.2535,3.1716,3.0896,3.0898,3.0898,3.0898,3.0817,3.0808,3.0799,3.0813,3.0793,3.0813,3.0724,3.0683,3.0607,2.9389,2.9129,2.9396,2.8269,2.7318,2.6517,2.5291,2.4783,2.4676,2.4629,2.4584,2.4482,2.4303,2.4229,2.4356,2.5063,2.5303,2.5527,2.6376,2.5674,2.4624,2.4385,2.4408,2.441,2.4188,2.4151,2.417,2.417,2.4132,2.4109,2.4251,2.4018,2.3819,2.3903,2.3578,2.333,2.3175,2.261,2.2164,2.2042,2.1485,2.1103,2.1066,2.1066,2.1021,2.0871,2.0871,2.0371,1.9255,1.905,1.8769,1.8181,1.861,1.8628,1.8268,1.8966,1.9432,1.9682,1.913,1.8864,1.8874,1.8388,1.8172,3.1085,3.3119,3.5128,3.6917,3.8213,3.932,4.02,3.911,3.8186,3.9053,3.8624,3.8369,3.9286,4.1545,4.3412,4.3642,4.5043,4.6136,4.6192,4.6156,4.5495,4.3898,4.3624,4.2962,4.1244,4.0423,3.9605,3.8669,3.7849,3.6991,3.6055,3.5155,3.4295,3.3436,3.2538,3.1718,3.0898,3.0898,3.0898,3.0898,3.0818,3.0811,3.0799,3.0813,3.0789,3.0803,3.073,3.0644,3.0466,2.8767,2.8994,3.0237,2.8472,2.7638,2.7224,2.5612,2.4865,2.4682,2.4682,2.4601,2.4482,2.4412,2.4358,2.4413,2.5223,2.5481,2.5665,2.6475,2.6663,2.6425,2.5591,2.5331,2.5127,2.4373,2.4151,2.4112,2.4112,2.4036,2.4215,2.4881,2.4345,2.4006,2.4712,2.405,2.3471,2.3401,2.3212,2.308,2.3007,2.2838,2.2712,2.266,2.253,2.215,2.1413,2.1345,2.1053,2.0338,1.9891,1.9618,1.9547,1.8933,1.8937,1.9648,1.9841,2.035,2.1143,2.1167,2.1206,2.1279,2.1261,2.1279,3.0539,3.3163,3.5694,3.6519,3.8594,4.0616,4.1135,4.0853,4.0784,4.1722,4.1285,4.0887,4.1264,4.2169,4.3212,4.4333,4.4614,4.4852,4.5411,4.5026,4.4249,4.3043,4.2887,4.242,4.1211,4.082,4.0078,3.8711,3.8281,3.75,3.6093,3.5702,3.4842,3.3435,3.3081,3.2259,3.0852,3.085,3.085,3.0852,3.0808,3.0796,3.0817,3.0798,3.0784,3.0813,3.0724,3.069,3.0545,2.9291,2.912,2.9505,2.7692,2.6899,2.6692,2.6056,2.5338,2.4828,2.5355,2.518,2.4692,2.511,2.5261,2.5467,2.6728,2.7155,2.736,2.8157,2.838,2.8063,2.6667,2.6294,2.6184,2.5869,2.5795,2.5775,2.5735,2.5658,2.567,2.5892,2.5179,2.4635,2.4856,2.4468,2.3921,2.3329,2.3523,2.3685,2.3438,2.3384,2.3536,2.3876,2.3881,2.3779,2.3477,2.3534,2.3453,2.3199,2.1357,2.0298,2.032,2.0125,2.0167,2.047,2.0575,2.08,2.1105,2.1187,2.1247,2.1323,2.1381,2.1458,3.0346,3.3184,3.6071,3.6577,3.8821,4.1129,4.1911,4.2162,4.2579,4.384,4.333,4.249,4.1972,4.2175,4.2871,4.4367,4.4106,4.4003,4.487,4.4249,4.3395,4.2499,4.2382,4.207,4.117,4.0856,4.0112,3.8666,3.8313,3.753,3.6085,3.6005,3.5181,3.3459,3.3417,3.2556,3.0838,3.0796,3.0791,3.0785,3.0781,3.0813,3.0806,3.0793,3.0779,3.0764,3.0717,3.0683,3.0591,2.9621,2.9042,2.8653,2.7401,2.6682,2.6314,2.6312,2.5849,2.5333,2.6186,2.6048,2.5576,2.6068,2.6258,2.6485,2.7811,2.824,2.8409,2.919,2.9394,2.9093,2.7954,2.7429,2.711,2.6851,2.6777,2.6777,2.6737,2.6638,2.6628,2.6775,2.6036,2.5407,2.5589,2.5169,2.465,2.3985,2.4244,2.4371,2.4127,2.3967,2.4086,2.4686,2.452,2.4418,2.4584,2.4808,2.4932,2.4799,2.3013,2.1888,2.1683,2.1546,2.1593,2.1861,2.1942,2.2152,2.2399,2.2491,2.2558,2.258,2.2668,2.2611,3.0724,3.3205,3.6142,3.724,3.8783,4.0615,4.245,4.2961,4.3564,4.5385,4.4616,4.3062,4.1317,4.1763,4.2655,4.3552,4.3684,4.3969,4.4835,4.4215,4.3358,4.25,4.2382,4.2069,4.1169,4.0305,3.9437,3.8534,3.7705,3.6836,3.6044,3.6013,3.5197,3.3441,3.3406,3.255,3.083,3.0785,3.0806,3.0779,3.0779,3.0793,3.0817,3.0806,3.074,3.0703,3.0711,3.0668,3.0543,2.9592,2.8674,2.78,2.78,2.7216,2.639,2.6352,2.6233,2.6208,2.7031,2.7269,2.7219,2.7219,2.7219,2.7353,2.8146,2.839,2.8577,2.9306,2.9474,2.9511,2.9511,2.8775,2.7832,2.7019,2.6834,2.6834,2.6834,2.6733,2.6848,2.7588,2.6835,2.6321,2.7065,2.631,2.5605,2.5605,2.5446,2.5255,2.512,2.4579,2.4441,2.5062,2.4236,2.384,2.437,2.4859,2.4985,2.4652,2.4834,2.4574,2.3839,2.3089,2.3108,2.388,2.413,2.4585,2.5419,2.5553,2.5605,2.5605,2.5725,2.5348,3.148,3.3269,3.5509,3.7108,3.8861,4.0482,4.1723,4.2964,4.3893,4.4007,4.3264,4.2274,4.1193,4.1279,4.1779,4.2655,4.2279,4.2175,4.3038,4.2965,4.246,4.1601,4.2029,4.1829,4.034,3.9939,3.9188,3.7695,3.734,3.6868,3.6044,3.5962,3.5134,3.3453,3.3366,3.2499,3.0735,3.0789,3.0789,3.0779,3.0789,3.0784,3.073,3.0725,3.0714,3.0697,3.069,3.07,3.0645,3.0269,2.9908,2.9509,2.8284,2.7611,2.7307,2.7241,2.6792,2.6446,2.779,2.7888,2.7494,2.8061,2.825,2.8401,2.9221,2.9468,2.9506,2.9715,2.9699,2.9645,2.9645,2.9401,2.9041,2.8778,2.8721,2.87,2.866,2.854,2.8448,2.8526,2.7718,2.7019,2.7097,2.6747,2.6215,2.557,2.5792,2.5976,2.5678,2.5962,2.6177,2.6217,2.6015,2.5947,2.6015,2.6215,2.6315,2.6213,2.6245,2.5791,2.4666,2.4482,2.4503,2.4795,2.4906,2.5092,2.5337,2.5419,2.55,2.5553,2.5579,2.5516,3.262,3.4529,3.6583,3.8054,3.983,4.1398,4.2431,4.3265,4.3659,4.295,4.2498,4.2002,4.1147,4.1039,4.1384,4.2256,4.1657,4.1396,4.2296,4.2108,4.168,4.117,4.1244,4.0962,3.99,3.9185,3.8311,3.7288,3.6889,3.6455,3.5982,3.5933,3.5299,3.3924,3.349,3.2622,3.1248,3.0915,3.0764,3.0759,3.0764,3.0759,3.0691,3.0697,3.0697,3.0678,3.0661,3.066,3.0595,3.052,3.0243,2.979,2.8718,2.8095,2.7778,2.8006,2.7774,2.7532,2.8806,2.8943,2.8616,2.9095,2.9247,2.9323,2.9807,2.9926,2.9893,2.9876,2.9805,2.977,2.9735,2.9701,2.9626,2.9511,2.9488,2.9448,2.9448,2.9286,2.9134,2.8975,2.8361,2.7802,2.7661,2.7424,2.7083,2.6513,2.6638,2.6714,2.647,2.6783,2.6925,2.6792,2.7165,2.7369,2.7131,2.7674,2.7947,2.7777,2.7573,2.7265,2.6673,2.6121,2.5872,2.5927,2.6016,2.6075,2.6133,2.6219,2.6304,2.6332,2.6388,2.6415,3.3776,3.6137,3.8388,3.9602,4.1233,4.2733,4.3655,4.3451,4.2873,4.224,4.2131,4.1941,4.1132,4.1033,4.1345,4.2169,4.1618,4.1398,4.2179,4.1601,4.1053,4.1013,4.0301,3.9744,3.9585,3.8116,3.7157,3.7079,3.6351,3.5905,3.5905,3.5814,3.5373,3.451,3.3615,3.2759,3.1864,3.1086,3.0685,3.0711,3.0711,3.0711,3.0711,3.0691,3.0685,3.069,3.0629,3.0559,3.049,3.049,3.0012,2.9202,2.9113,2.8641,2.7992,2.8658,2.8899,2.9014,2.9808,3.0113,3.0128,3.0098,3.0113,3.0128,3.0053,2.9991,2.9905,2.9855,2.9872,2.9888,2.9859,2.9773,2.9701,2.9569,2.9471,2.9448,2.9488,2.9265,2.9089,2.8998,2.8785,2.8562,2.8406,2.8191,2.8025,2.7968,2.7677,2.7407,2.7319,2.7156,2.7058,2.7028,2.7709,2.8117,2.7943,2.8965,2.9479,2.9102,2.8696,2.8697,2.9177,2.7777,2.7094,2.7188,2.7252,2.7351,2.748,2.76,2.7727,2.7796,2.7852,2.7882,3.3237,3.4555,3.6264,3.925,4.092,4.174,4.1439,4.1324,4.1441,4.1969,4.1613,4.114,4.1007,4.1006,4.1117,4.1345,4.1214,4.1155,4.1359,4.121,4.0859,4.023,3.9942,3.9263,3.789,3.7435,3.6908,3.6245,3.5994,3.5898,3.5885,3.5263,3.4457,3.3518,3.2718,3.1856,3.0925,3.0785,3.0683,3.0697,3.0697,3.0704,3.0711,3.0704,3.069,3.0707,3.0621,3.0586,3.0568,3.051,3.0392,3.0139,2.9379,2.8998,2.8821,2.8951,2.8989,2.9079,2.9893,3.0213,3.0253,3.0213,3.0226,3.0253,3.0161,3.0157,3.0128,3.0128,3.0068,2.9984,3.0098,3.0007,2.9859,2.9773,2.9682,2.9607,2.9448,2.9286,2.9156,2.9021,2.8834,2.8601,2.8344,2.8246,2.8053,2.7789,2.7701,2.7522,2.7247,2.7282,2.7425,2.7709,2.7981,2.8287,2.8723,2.8994,2.9096,2.9028,2.9,2.9002,2.9104,2.8458,2.8015,2.7912,2.7945,2.8078,2.8211,2.8273,2.865,2.9338,2.9338,2.9338,3.2478,3.4266,3.6247,3.9789,4.0844,4.1107,4.1215,4.0681,4.03,4.0815,4.0897,4.0791,4.0462,4.0383,4.0304,3.9906,4.0246,4.0535,4.0542,4.0547,4.0388,3.9955,3.9117,3.8198,3.7297,3.6835,3.6384,3.5917,3.5853,3.5684,3.5288,3.4807,3.4171,3.3278,3.2431,3.1771,3.1274,3.0901,3.0715,3.0715,3.0715,3.0676,3.0637,3.0676,3.0707,3.07,3.0621,3.0595,3.0577,3.052,3.0479,3.0419,2.9902,2.9725,2.9702,2.9653,2.9615,2.9665,3.01,3.0279,3.0267,3.0266,3.0279,3.0267,3.0266,3.0253,3.0226,3.0199,3.0157,3.0128,3.0171,3.0128,2.9984,2.9893,2.9825,2.9755,2.9587,2.939,2.9222,2.8952,2.9454,2.9693,2.9071,2.8873,2.8564,2.7946,2.8076,2.8141,2.7861,2.8207,2.8589,2.8699,2.9007,2.9346,2.9646,2.9912,3.0078,3.0082,3.0082,3.0119,3.0194,2.9881,2.9374,2.8664,2.8699,2.8836,2.887,2.8971,2.9278,2.9693,2.9693,2.9901,3.1095,3.3939,3.6646,4.0138,4.0547,4.0299,4.1229,4.037,3.9393,3.9403,3.9966,4.0265,3.9607,3.9539,3.9346,3.8627,3.9161,3.9681,3.9684,3.9687,3.9603,3.9486,3.8138,3.7141,3.7019,3.6328,3.5833,3.5677,3.5638,3.5228,3.4411,3.4156,3.3751,3.3091,3.2237,3.1763,3.1763,3.1025,3.0676,3.0692,3.07,3.0645,3.0582,3.0645,3.0692,3.0692,3.0613,3.0586,3.0598,3.053,3.0479,3.0409,3.0386,3.0414,3.0379,3.0316,3.0316,3.0304,3.0318,3.033,3.0304,3.0318,3.033,3.0304,3.0318,3.0305,3.0292,3.024,3.0213,3.0199,3.0213,3.0213,3.0157,2.9984,2.9937,2.9926,2.9757,2.9568,2.9344,2.8975,3.0148,3.0929,3.0188,2.9889,2.9469,2.8578,2.8865,2.9074,2.8821,2.9311,2.9729,2.9696,3.0139,3.0438,3.054,3.0968,3.123,3.1274,3.137,3.1443,3.1385,3.1516,3.1006,2.9858,2.9622,2.9521,2.9521,2.9696,2.9799,2.9938,2.9938,3.0318,2.8157,3.1901,3.5837,3.8682,3.8885,3.8579,3.9534,3.9077,3.8501,3.8558,3.8663,3.8688,3.8595,3.863,3.8628,3.8502,3.8645,3.8778,3.8783,3.8789,3.8471,3.7729,3.7396,3.6941,3.6239,3.5982,3.5577,3.4837,3.4757,3.4372,3.3517,3.271,3.2213,3.2072,3.1313,3.0839,3.0806,3.0668,3.0591,3.0591,3.0653,3.0645,3.0582,3.0629,3.0629,3.0629,3.0586,3.0616,3.0586,3.052,3.0479,3.0469,3.0414,3.039,3.0379,3.0379,3.0379,3.0379,3.0379,3.0379,3.0379,3.0379,3.0379,3.0379,3.0379,3.0367,3.0367,3.0367,3.0279,3.0213,3.033,3.0279,3.0185,3.0157,3.0157,3.0083,2.9793,2.9589,2.9451,2.9365,3.0235,3.1139,3.1473,3.1462,3.1139,3.0398,3.0208,3.0128,2.9913,2.9857,3.0004,3.049,3.0448,3.0609,3.1147,3.1201,3.119,3.123,3.1998,3.2066,3.1263,3.2398,3.2814,3.2412,3.0832,3.0051,3.0091,3.0202,3.0651,3.1264,3.1305,3.1376,2.8614,3.201,3.5026,3.7747,3.8281,3.8247,3.8694,3.8171,3.763,3.7707,3.7345,3.7169,3.7631,3.7781,3.7656,3.7165,3.7528,3.7692,3.7226,3.7577,3.7377,3.6007,3.5832,3.5459,3.4601,3.4496,3.4275,3.3918,3.3887,3.3471,3.2608,3.2159,3.1724,3.1251,3.087,3.0668,3.0653,3.0645,3.0637,3.0613,3.0643,3.0643,3.0586,3.0586,3.0604,3.0582,3.0595,3.0586,3.0595,3.053,3.05,3.05,3.0458,3.0436,3.0436,3.0436,3.0436,3.0436,3.0436,3.0436,3.0436,3.0436,3.0475,3.0463,3.0463,3.0441,3.039,3.0436,3.1823,3.3044,3.2045,3.1072,3.0279,3.0213,3.0113,3.0468,3.2089,3.2259,3.1607,2.9741,3.0588,3.1865,3.2589,3.2285,3.1678,3.1052,3.0965,3.0879,3.0587,3.087,3.115,3.1319,3.1133,3.1329,3.2085,3.1998,3.1987,3.2162,3.2548,3.2304,3.1224,3.273,3.3823,3.4389,3.2632,3.1817,3.2094,3.1803,3.1807,3.2115,3.1743,3.1816,2.8331,3.1026,3.3012,3.6142,3.7064,3.734,3.7831,3.735,3.68,3.6869,3.6196,3.5783,3.6442,3.6612,3.635,3.5462,3.5896,3.6094,3.5429,3.5895,3.5812,3.4519,3.4384,3.4094,3.347,3.3322,3.3218,3.3011,3.2986,3.2577,3.1715,3.1661,3.1382,3.0729,3.069,3.069,3.0683,3.0661,3.0637,3.0595,3.0607,3.0598,3.0598,3.0588,3.0568,3.0557,3.0586,3.0577,3.0577,3.052,3.0451,3.049,3.049,3.049,3.0549,3.052,3.052,3.052,3.0549,3.0655,3.0848,3.0914,3.0942,3.097,3.1097,3.1124,3.1124,3.1167,3.3053,3.4831,3.3851,3.2646,3.1674,3.1569,3.1386,3.1876,3.412,3.445,3.3566,3.108,3.1679,3.2783,3.3364,3.2886,3.2306,3.1791,3.1746,3.1764,3.1673,3.2091,3.2366,3.2426,3.2235,3.2359,3.2985,3.2798,3.2753,3.3134,3.3134,3.2883,3.2341,3.3639,3.4763,3.5588,3.4253,3.3549,3.3549,3.3093,3.2821,3.2821,3.2241,3.2388,2.5341,2.7062,2.8865,3.3196,3.4403,3.4951,3.6687,3.6494,3.5948,3.5962,3.5327,3.4798,3.4801,3.4835,3.4558,3.3664,3.3553,3.3594,3.3554,3.3589,3.358,3.3498,3.3484,3.347,3.3418,3.3356,3.2989,3.2226,3.2098,3.1683,3.0814,3.0768,3.0746,3.069,3.069,3.0683,3.07,3.0637,3.0621,3.0595,3.0607,3.0598,3.0598,3.053,3.052,3.052,3.052,3.052,3.051,3.0419,3.0398,3.0409,3.0479,3.052,3.0598,3.0604,3.0574,3.0604,3.0607,3.1081,3.1757,3.2017,3.2132,3.221,3.2782,3.3026,3.3072,3.3063,3.3142,3.3604,3.5151,3.5418,3.5224,3.5224,3.507,3.4843,3.4651,3.4583,3.4458,3.4041,3.3907,3.3865,3.3726,3.355,3.3343,3.3136,3.2827,3.2924,3.367,3.3382,3.3373,3.4025,3.3899,3.3739,3.3652,3.3168,3.3134,3.3721,3.3755,3.4252,3.5351,3.5674,3.582,3.5622,3.552,3.4776,3.3389,3.3515,3.3481,3.3355,3.3447,3.3488,2.4068,2.564,2.7345,2.9555,3.1449,3.2796,3.2934,3.4501,3.5642,3.4521,3.4491,3.4375,3.3238,3.3476,3.375,3.3437,3.3397,3.3198,3.2647,3.3031,3.2982,3.1845,3.2221,3.237,3.1776,3.1208,3.0964,3.1242,3.0748,3.0496,3.0703,3.0711,3.0697,3.0704,3.0697,3.0683,3.07,3.0637,3.0613,3.0595,3.055,3.053,3.053,3.052,3.051,3.05,3.05,3.05,3.051,3.0479,3.049,3.052,3.051,3.053,3.0598,3.0634,3.0643,3.072,3.1504,3.1805,3.1951,3.2648,3.3064,3.3403,3.3606,3.4207,3.4671,3.3981,3.4265,3.4729,3.4582,3.509,3.5611,3.552,3.5339,3.5124,3.485,3.4689,3.4517,3.4227,3.4154,3.403,3.3807,3.3643,3.3473,3.3178,3.2961,3.3062,3.3666,3.3903,3.4033,3.412,3.4352,3.4513,3.4528,3.4343,3.443,3.5104,3.5138,3.5256,3.5588,3.5711,3.5711,3.5622,3.5622,3.5351,3.481,3.438,3.4143,3.41,3.3668,3.3744,2.308,2.4395,2.5903,2.7509,2.9054,3.0418,3.1354,3.2973,3.4095,3.3515,3.3631,3.3389,3.1931,3.1899,3.2178,3.2491,3.2526,3.2324,3.1733,3.192,3.1679,3.0501,3.0611,3.0564,2.9975,2.9406,2.9318,2.9869,2.9385,0.0,3.0242,3.0302,3.0412,3.0685,3.0432,3.0411,3.07,3.0637,3.0613,3.0586,3.053,3.051,3.053,3.05,3.049,3.0479,3.0479,3.049,3.049,3.0469,3.049,3.052,3.052,3.0723,3.1023,3.106,3.1271,3.1581,3.2383,3.2693,3.2878,3.3468,3.408,3.4613,3.4613,3.5145,3.559,3.4861,3.5193,3.5544,3.4709,3.5085,3.567,3.5534,3.5339,3.5157,3.5037,3.4791,3.4539,3.4335,3.424,3.4142,3.3913,3.3753,3.3559,3.3238,3.3024,3.3344,3.4649,3.4565,3.448,3.4806,3.507,3.527,3.5359,3.5301,3.5377,3.5756,3.579,3.5745,3.5532,3.5577,3.5577,3.5487,3.5577,3.5577,3.5566,3.507,3.4878,3.4878,3.437,3.4447,0.0,0.0,0.0,2.7138,2.7218,2.7736,3.2006,3.1811,3.1206,3.289,3.2573,3.1736,3.0902,3.0065,2.9745,3.0593,3.0707,3.0739,3.0739,2.9983,2.9464,2.9476,2.8727,2.8212,2.8199,2.8179,2.8179,2.8194,2.8168,2.8557,2.9401,2.9469,2.9808,3.0586,2.9817,2.979,3.0622,3.0599,3.0604,3.0559,3.051,3.0549,3.0598,3.0479,3.0458,3.0479,3.0479,3.0469,3.0398,3.0398,3.0436,3.0447,3.0539,3.1071,3.1874,3.193,3.2452,3.3188,3.3214,3.3788,3.4468,3.4516,3.5106,3.5784,3.5784,3.5779,3.5811,3.5788,3.5818,3.5793,3.5736,3.5704,3.5681,3.5547,3.5354,3.519,3.519,3.4908,3.4561,3.4427,3.4274,3.4167,3.4028,3.386,3.3698,3.3452,3.3122,3.3875,3.6661,3.5514,3.4931,3.6187,3.6191,3.6105,3.6105,3.5966,3.5834,3.5622,3.5577,3.5566,3.5463,3.5566,3.552,3.5325,3.552,3.5566,3.5542,3.5566,3.5577,3.5577,3.5577,3.5577,2.2713,0.0,0.0,0.0,0.0,0.0,2.5765,2.7524,2.914,2.9609,2.9523,2.9467,2.9803,2.9156,2.8627,2.8807,2.8846,2.8856,2.89,2.8695,2.8573,2.8554,2.8355,2.8194,2.8203,2.7644,2.7522,0.0,2.761,2.7644,2.8515,2.8544,2.8656,2.8885,2.9207,2.9227,2.8877,3.0086,3.0366,2.976,3.0288,3.0569,3.053,3.049,3.0458,3.0409,3.0469,3.0469,3.0398,3.0441,3.0974,3.1728,3.1545,3.2232,3.3345,3.2985,3.277,3.274,3.3588,3.3743,3.3821,3.5088,3.5687,3.5881,3.5857,3.5864,3.5872,3.5864,3.5842,3.5793,3.5736,3.5728,3.5757,3.5681,3.5509,3.5436,3.5436,3.5107,3.473,3.4321,3.4311,3.4264,3.3913,3.3643,3.3481,3.3393,3.2902,3.3635,3.6622,3.658,3.6277,3.6291,3.6276,3.6191,3.6062,3.5966,3.5834,3.5622,3.5566,3.5802,3.6388,3.5744,3.5664,3.6202,3.6189,3.6189,3.6142,3.5744,3.552,3.552,3.5429,3.5337,0.0,0.0,0.0,2.3201,0.0,0.0,2.4351,2.5137,2.6014,2.7461,2.7456,2.7245,2.7335,2.6918,2.6534,2.6488,2.6482,2.6889,2.8001,2.7568,2.7257,2.76,2.7016,2.6705,2.7069,2.6671,2.6554,2.7074,2.6641,2.6758,2.7624,2.7658,2.7809,2.8199,2.8641,2.8857,2.8746,3.003,3.0428,2.9947,3.0393,3.0598,3.052,3.05,3.0469,3.043,3.0479,3.0469,3.0458,3.0897,3.1468,3.2058,3.1923,3.2745,3.3994,3.3799,3.3779,3.3865,3.4559,3.4598,3.4481,3.5546,3.591,3.591,3.5917,3.5892,3.5905,3.5905,3.5885,3.5818,3.5771,3.581,3.6142,3.7517,3.669,3.5573,3.552,3.5261,3.487,3.4435,3.4358,3.4227,3.4016,3.3643,3.3393,3.3393,3.2838,3.3038,3.4828,3.6197,3.6811,3.636,3.6199,3.6105,3.601,3.5834,3.5881,3.6209,3.6093,3.6384,3.7071,3.6558,3.643,3.6783,3.6816,3.6816,3.6768,3.6477,3.6323,3.6323,3.6229,3.6014,0.0,0.0,0.0,0.0,2.2987,0.0,2.5234,2.3832,2.2646,2.5662,2.5507,2.4674,2.4213,2.391,2.3752,2.3779,2.387,2.4852,2.7421,2.6443,2.5751,2.6656,2.5216,2.4516,2.5377,2.5464,2.5472,2.5472,2.555,2.5948,2.6736,2.6771,2.7121,2.7901,2.7994,2.8446,2.9185,3.0089,3.0574,3.0545,3.0604,3.0625,3.0621,3.0588,3.0584,3.0626,3.0721,3.0799,3.0837,3.1622,3.1942,3.197,3.2126,3.2977,3.4244,3.4536,3.5097,3.5718,3.5763,3.5754,3.5745,3.5864,3.5892,3.5937,3.6125,3.6183,3.6167,3.5967,3.5889,3.6006,3.6345,3.6416,3.7113,4.0084,3.8462,3.6211,3.6073,3.5607,3.5089,3.471,3.4427,3.4203,3.4216,3.378,3.3567,3.3864,3.3116,3.2614,3.2932,3.5322,3.6811,3.636,3.6148,3.6053,3.599,3.579,3.6005,3.6898,3.6936,3.7095,3.7467,3.7519,3.7486,3.7385,3.7469,3.7519,3.7519,3.7502,3.7485,3.7485,3.7485,3.7117,0.0,0.0,0.0,0.0,2.4401,0.0,2.1278,2.1269,2.1798,2.183,2.0586,2.007,2.1973,2.1159,2.0413,2.1046,2.1729,2.3081,2.5641,2.513,2.4807,2.5761,2.4316,2.3621,2.4542,2.4623,2.4627,2.4635,2.5269,2.5743,2.5938,2.5928,2.6002,2.6197,2.6809,2.7225,2.741,2.8913,2.9667,2.9673,3.0343,3.0668,3.0604,3.1255,3.1514,3.1521,3.2248,3.2557,3.2535,3.2764,3.2851,3.2908,3.3645,3.4507,3.5369,3.5485,3.5668,3.5763,3.581,3.5818,3.5866,3.5878,3.5948,3.6243,3.757,3.8004,3.7713,3.6284,3.5889,3.654,3.9202,3.9906,4.0082,4.0723,4.035,3.9728,3.9591,3.7233,3.5124,3.4889,3.4668,3.445,3.4264,3.3902,3.452,3.6902,3.4966,3.402,3.6257,3.6849,3.6811,3.636,3.6241,3.6191,3.6096,3.5975,3.5912,3.5893,3.6996,3.7643,3.7534,3.7669,3.8133,3.9002,3.8399,3.8347,3.8911,3.7852,3.7253,3.7153,3.7153,3.7086,3.0152,0.0,2.7605,2.6339,2.5112,0.0,0.0,2.0448,2.0133,2.1007,1.914,1.8003,2.0105,1.911,1.8218,1.9005,2.0249,2.1415,2.2255,2.271,2.3304,2.4239,2.3197,2.2742,2.3649,2.3738,2.394,2.4378,2.5205,2.5715,2.5715,2.571,2.5704,2.5701,2.6945,2.7562,2.755,2.9245,3.008,3.0056,3.0482,3.0692,3.0668,3.0994,3.138,3.1785,3.2248,3.2673,3.3098,3.3576,3.3751,3.379,3.4284,3.4953,3.5699,3.5766,3.5818,3.5833,3.5788,3.5833,3.6201,3.7915,3.8536,3.8684,3.9525,3.9798,3.9611,3.874,3.8483,3.8883,4.0556,4.0943,4.0907,4.0907,4.0804,4.0177,3.8293,3.6441,3.5141,3.4945,3.473,3.4517,3.4264,3.5356,3.6698,3.8023,3.6834,3.6233,3.747,3.7241,3.6851,3.6561,3.6402,3.6276,3.6217,3.5966,3.5756,3.5622,3.7753,3.8956,3.8807,3.8705,3.8864,3.9415,3.8977,3.8871,3.9148,3.8474,3.8162,3.8195,3.8195,3.7996,3.1723,3.0518,2.9399,2.8027,2.5846,2.3659,0.0,0.0,0.0,2.0693,1.8476,1.6715,1.8429,1.721,1.6215,1.7041,1.8332,1.9,1.8332,1.9523,2.0958,2.222,2.1737,2.1633,2.2526,2.2464,2.2942,2.4315,2.4746,2.5176,2.5679,2.5718,2.5715,2.571,2.7075,2.7927,2.8186,2.9611,3.0447,3.0697,3.069,3.07,3.0692,3.0723,3.1236,3.2058,3.221,3.2789,3.3661,3.435,3.4642,3.4672,3.473,3.5127,3.5718,3.5775,3.585,3.5883,3.5826,3.6281,3.7391,4.0193,4.1124,4.1116,4.1116,4.1114,4.1225,4.1927,4.1632,4.1167,4.1512,4.1256,4.0907,4.0898,4.073,3.9798,3.684,3.5916,3.5602,3.5401,3.52,3.4847,3.4301,3.6205,3.7863,3.8267,3.8241,3.8072,3.7757,3.7241,3.6771,3.6643,3.6444,3.631,3.6294,3.6195,3.6107,3.6062,3.8599,4.0087,4.0037,3.9625,3.9462,3.9487,3.9487,3.9499,3.9435,3.9435,3.9358,3.9202,3.9202,3.8904,3.438,3.2901,3.0877,2.7795,2.7262,2.6145,2.0901,0.0,1.9862,1.8666,0.0,1.492,1.6679,0.0,0.0,1.4379,1.4686,1.48,1.4686,1.5509,1.6992,1.9367,1.958,1.9823,2.0718,2.0145,2.1049,2.4168,2.3078,2.3233,2.5564,2.5718,2.5715,2.571,2.5871,2.6721,2.8173,2.8411,2.925,3.0717,3.0697,3.0668,3.0629,3.1418,3.2184,3.2993,3.3759,3.456,3.5322,3.5493,3.5553,3.5553,3.5544,3.5659,3.581,3.581,3.5826,3.5889,3.5883,3.7908,4.0558,4.0987,4.1123,4.1171,4.1171,4.1166,4.1732,4.4855,4.3486,4.1449,4.2988,4.2174,4.0898,4.0848,4.0694,4.0429,3.9934,3.8497,3.7243,3.7079,3.6836,3.6136,3.4463,3.4286,3.5349,3.8187,3.8372,3.8174,3.814,3.7091,3.6367,3.636,3.6318,3.6318,3.6318,3.7295,3.7853,3.7652,3.9174,3.9986,3.9781,3.9468,3.964,4.0249,4.0249,4.0547,4.112,4.112,4.0348,3.8876,3.8876,3.881,3.4842,3.3691,3.2026,2.9148,2.7896,2.6256,2.1767,0.0,1.9608,1.8905,0.0,0.0,0.0,0.0,0.0,0.0,1.3755,1.3751,1.2734,1.3767,1.5218,1.6811,1.7446,0.0,1.8943,1.9179,2.0078,2.2031,2.1483,2.2183,2.4796,2.4949,2.518,2.5685,2.6193,2.6771,2.7495,2.845,2.9323,3.003,3.0496,3.0661,3.0621,3.0974,3.1884,3.3199,3.3488,3.4417,3.5676,3.5697,3.5718,3.5689,3.5757,3.5784,3.5896,3.6596,3.7066,3.7564,3.8578,3.9862,4.1264,4.2279,4.2644,4.2654,4.265,4.2642,4.2903,4.4387,4.4465,4.4266,4.4982,4.3565,4.176,4.0964,4.0718,4.0422,3.9646,3.9273,3.8842,3.7974,3.8099,3.8051,3.7108,3.6003,3.6017,3.8199,3.8241,3.7969,3.7899,3.7203,3.6609,3.636,3.6284,3.662,3.734,3.7672,3.8252,3.9156,3.9749,3.9986,3.9729,3.9974,4.0213,4.0382,4.0779,4.1054,4.1295,4.1295,4.0885,4.0066,4.0236,4.0348,3.5541,0.0,0.0,0.0,0.0,0.0,0.0,0.0,0.0,0.0,1.7615,0.0,0.0,0.0,0.0,0.0,0.0,1.2629,1.1338,1.2022,1.3199,1.4519,1.5895,1.6953,0.0,1.7728,1.8547,2.0426,1.9844,2.0898,2.4215,2.4408,2.4796,2.5654,2.6314,2.6852,2.7309,2.8532,2.9362,2.9835,3.0418,3.0653,3.0582,3.0616,3.1545,3.32,3.3161,3.4089,3.5718,3.5999,3.6086,3.6106,3.6414,3.6509,3.6612,3.7318,3.8085,3.8967,4.0532,4.1393,4.2092,4.3849,4.4401,4.4407,4.4403,4.4203,4.4006,4.4318,4.5096,4.5906,4.6162,4.4715,4.2891,4.1781,4.1308,4.0733,3.9514,3.9747,3.9871,3.8871,3.9048,3.932,3.9007,3.7816,3.7241,3.825,3.8104,3.7828,3.754,3.7203,3.6851,3.6444,3.636,3.6784,3.798,3.8003,3.8547,4.0036,4.0257,4.0137,3.9729,4.0581,4.0921,4.0647,4.1342,4.1749,4.1832,4.1832,4.1807,4.169,4.1436,4.1295,0.0,0.0,0.0,2.9175,0.0,0.0,0.0,0.0,2.0312,0.0,0.0,0.0,0.0,0.0,0.0,0.0,0.0,0.0,0.0,0.9609,1.0078,1.2609,1.5156,1.6711,1.6745,1.52,1.5945,2.0192,1.8158,1.8983,2.4132,2.4404,2.4793,2.5687,2.5722,2.6529,2.8147,2.8228,2.906,3.0672,3.0697,3.0668,3.0582,3.0616,3.1545,3.32,3.32,3.4139,3.5786,3.6667,3.7065,3.7152,3.8011,3.8338,3.826,3.7763,3.8305,3.9435,4.0671,4.2197,4.3899,4.5657,4.6204,4.6205,4.621,4.5468,4.4802,4.5896,4.5456,4.4894,4.6027,4.5318,4.4184,4.3566,4.2671,4.166,4.0669,4.0266,4.0042,3.9895,3.9623,3.9324,3.911,3.867,3.836,3.8364,3.8104,3.7757,3.739,3.7126,3.6926,3.6684,3.6444,3.6732,3.7801,3.8413,3.9117,4.007,4.0661,4.0572,3.9763,4.0976,4.1577,4.1375,4.2104,4.2833,4.3562,4.3562,4.3502,4.3469,4.1815,4.0983,0.0,0.0,3.4287,3.0858,0.0,0.0,0.0,0.0,0.0,0.0,0.0,0.0,0.0,0.0,0.0,0.0,0.0,0.0,0.0,0.9919,1.0064,1.0965,1.2865,1.4097,1.4075,1.4004,1.5066,1.7655,1.7084,1.8392,2.2538,2.3239,2.3937,2.4829,2.5412,2.6264,2.7378,2.7944,2.8778,2.9913,3.0432,3.0668,3.0582,3.0613,3.1534,3.32,3.3209,3.4148,3.5786,3.6706,3.7104,3.719,3.8071,3.8766,3.9256,3.9077,3.9208,3.9779,4.1388,4.2705,4.3891,4.5069,4.5815,4.6286,4.6286,4.6013,4.5817,4.6207,4.6005,4.5799,4.6186,4.5528,4.4656,4.4409,4.3169,4.1893,4.1514,4.0722,4.008,3.9954,3.9599,3.9245,3.9007,3.8652,3.8401,3.8336,3.8106,3.7793,3.7503,3.7203,3.6926,3.6725,3.6444,3.6922,3.8379,3.92,3.9765,4.0104,4.0324,4.0407,4.0414,4.1331,4.1955,4.2342,4.3074,4.3573,4.3923,4.3923,4.3923,4.3923,4.3248,4.2841,3.7812,3.668,0.0,3.164,2.9805,0.0,2.3982,0.0,2.1677,0.0,0.0,0.0,0.0,0.0,0.0,0.0,0.0,0.0,0.0,0.9268,0.9548,0.9319,1.1061,1.2407,1.2657,1.2877,1.399,1.6376,1.6283,1.7641,2.125,2.2497,2.3509,2.4362,2.5254,2.6105,2.6949,2.7784,2.8612,2.9491,3.0315,3.0676,3.0637,3.0931,3.1853,3.3209,3.3528,3.4429,3.5834,3.7074,3.7549,3.7665,3.8857,3.966,4.0112,3.9816,3.9916,4.0454,4.226,4.3216,4.3891,4.5071,4.5858,4.6289,4.6287,4.6288,4.6289,4.6287,4.6282,4.6315,4.6309,4.5816,4.5176,4.4495,4.3384,4.2267,4.1552,4.0722,4.0002,3.9873,3.9551,3.9165,3.895,3.8621,3.8368,3.8238,3.7967,3.7757,3.754,3.7203,3.6926,3.6684,3.679,3.7428,3.8853,3.9744,4.0188,4.0138,4.0324,4.0593,4.0855,4.1808,4.2523,4.2879,4.3614,4.3981,4.4097,4.4097,4.4097,4.4097,4.4015,4.3864]}]]